GFSSGP_500_rhum_000.txt.gz
RH
21 18 16 14 9 6 6 5 5 4 4 4 8 12 16 23 34 49 55 53 58 64 64 70 62 32 27 21 24 28 32 46 46 47 51 40 28 24 26 16 8 5 5 5 7 11 3 9 9
17 14 11 7 5 3 3 3 3 3 4 5 8 18 28 35 41 48 56 55 53 55 53 52 32 15 13 16 30 49 45 40 38 32 27 19 10 13 6 2 5 5 3 10 13 10 4 3 9
12 9 8 4 2 4 3 3 3 3 3 5 11 21 28 36 38 29 19 21 29 24 21 13 12 17 27 38 38 45 39 25 12 10 10 10 11 11 8 13 19 22 11 3 6 6 5 3 1
5 4 4 2 2 3 4 4 6 9 11 16 25 35 31 20 10 7 9 9 8 10 17 17 12 16 25 28 24 17 12 16 15 17 14 13 15 16 21 22 16 15 15 12 11 11 13 10 7
2 1 1 3 4 5 6 10 16 25 22 39 33 12 7 5 7 12 16 16 16 17 23 20 16 18 20 22 21 23 23 22 18 6 5 5 6 6 5 5 4 4 5 6 10 15 18 16 14
2 3 9 6 7 12 13 17 19 15 8 8 7 7 11 11 8 9 9 10 13 13 10 8 5 5 9 15 22 18 10 7 6 5 5 7 9 11 12 10 9 9 9 10 8 6 6 5 5
4 8 24 21 27 16 13 17 18 7 7 9 12 14 5 3 4 6 6 4 4 7 5 5 6 7 5 5 5 7 10 11 12 12 12 11 12 12 12 12 11 11 12 12 13 13 12 11 9
10 20 28 33 16 15 19 14 9 8 5 6 8 3 3 2 4 4 4 4 4 6 7 8 10 12 15 15 16 15 16 17 17 17 16 14 14 17 19 20 20 18 17 17 15 14 13 13 14
27 37 22 17 17 15 15 8 4 4 4 5 5 5 5 5 6 7 6 7 7 7 9 8 10 9 14 15 12 12 15 14 14 15 15 17 22 29 36 41 43 44 45 46 47 45 32 19 15
19 26 14 14 12 7 4 2 2 6 8 9 10 10 10 9 7 6 6 7 7 10 14 14 12 10 12 11 10 12 13 14 14 15 17 23 34 40 41 40 40 46 50 52 55 57 54 53 44
15 12 14 10 4 1 2 4 5 7 9 10 10 9 8 8 7 8 8 8 9 11 9 8 7 7 10 12 14 14 16 18 23 27 30 33 35 36 36 38 41 46 50 50 52 52 54 52 50
12 8 8 3 1 2 5 7 7 8 8 10 10 9 8 9 8 9 9 12 9 9 8 9 9 11 14 17 20 23 29 33 40 45 47 48 48 49 49 49 49 49 47 48 50 49 48 46 46
3 3 4 6 6 6 8 8 11 11 13 10 12 12 11 12 10 9 9 8 10 10 11 14 17 25 27 33 32 33 39 44 46 51 51 51 50 46 46 46 44 42 41 41 40 39 39 38 38
3 4 6 7 8 9 11 12 10 11 12 13 11 10 9 8 8 9 11 14 17 18 18 18 21 24 30 38 38 40 43 44 40 41 41 41 42 44 45 47 46 44 42 42 42 41 40 39 38
6 6 8 9 9 11 13 12 11 11 13 12 12 11 12 13 13 15 18 21 24 25 26 27 28 32 37 43 45 48 47 41 38 36 37 44 46 47 48 47 45 43 43 42 40 38 39 41 42
8 8 9 10 11 13 14 14 17 17 12 12 14 16 17 19 19 19 20 25 28 32 34 38 39 37 35 38 47 50 43 36 37 42 45 55 57 55 52 51 49 43 38 34 32 31 31 32 35
9 11 11 12 15 14 14 14 15 17 14 18 18 19 24 25 26 27 29 30 33 34 38 34 34 31 36 39 38 40 42 49 55 57 56 58 56 50 47 45 40 31 26 26 28 32 33 38 39
14 18 18 17 16 18 16 14 16 15 17 18 20 25 26 28 30 32 31 32 32 31 29 32 33 38 43 49 49 50 60 64 64 65 62 55 49 40 37 34 29 26 24 25 25 26 31 31 43
18 19 19 20 22 21 20 18 20 23 22 24 28 29 30 32 35 36 35 36 36 34 33 39 42 47 54 54 52 57 62 65 66 67 64 50 40 32 29 22 18 20 20 22 29 26 23 26 27
17 17 18 20 21 21 20 22 21 24 24 25 28 31 36 37 37 35 38 43 46 48 49 53 55 62 74 77 75 74 67 59 55 50 47 40 30 25 22 21 23 25 26 28 32 33 33 28 32
14 13 12 13 15 17 17 18 19 20 22 25 27 28 28 32 38 46 52 53 55 58 62 68 75 77 70 69 62 56 54 50 41 37 37 37 33 32 32 33 33 34 38 39 38 34 36 35 33
11 14 14 13 12 12 16 27 17 19 19 23 24 23 26 31 36 44 52 53 55 56 60 72 69 64 60 58 54 50 44 38 33 30 32 34 36 38 40 43 48 51 52 52 54 51 48 55 48
20 18 16 15 16 17 16 23 14 21 23 22 20 19 20 28 40 44 48 55 58 54 56 59 55 52 48 46 47 51 42 38 38 41 44 50 52 54 60 65 64 60 59 58 58 55 53 49 36
20 18 18 20 21 21 19 21 13 20 23 21 20 23 28 34 37 45 52 51 50 53 54 51 51 49 47 47 42 40 44 57 58 57 58 62 73 78 73 73 71 67 55 38 33 24 15 8 8
19 20 22 23 23 22 22 21 20 22 22 24 25 30 36 38 45 50 52 54 56 52 51 47 48 46 46 65 60 66 84 88 67 68 72 74 74 70 55 41 39 39 36 24 19 17 10 9 12
27 27 28 27 26 26 25 25 23 26 30 33 33 38 47 52 52 54 54 51 48 44 44 49 49 50 60 59 66 72 72 78 84 83 64 47 40 38 37 39 39 46 36 21 20 19 8 10 4
36 32 34 33 31 30 30 32 38 45 43 47 51 54 52 51 48 46 45 46 53 55 54 51 54 60 66 72 77 81 80 55 46 47 45 44 43 44 41 35 36 35 51 54 28 17 20 7 6
35 33 33 34 34 34 34 39 49 44 44 48 53 51 47 45 49 56 57 55 47 44 50 58 61 64 67 60 50 44 46 46 48 49 43 37 32 32 44 50 65 55 40 27 28 15 14 40 82
33 35 36 36 40 40 32 38 43 47 52 53 54 59 62 65 65 59 54 50 51 58 62 64 58 47 41 43 45 49 50 48 46 38 27 34 74 72 77 69 44 28 22 27 23 69 98 100 100
48 48 48 49 46 52 58 60 62 64 57 56 66 64 63 61 57 52 54 57 59 59 55 50 46 48 49 52 54 50 46 43 29 28 63 100 92 89 44 24 19 21 27 48 74 100 100 100 100

GFSSGP_500_rhum_003.txt.gz
RH
71 31 14 11 6 7 88 63 30 10 6 4 3 3 4 11 12 50 89 48 43 47 43 35 27 25 11 15 21 21 34 27 13 18 21 24 18 17 12 8 2 6 9 4 1 5 7 9 6
27 18 12 10 5 68 98 21 45 19 2 3 3 4 7 14 27 35 42 47 34 22 19 10 8 8 9 13 16 22 22 12 15 16 18 14 12 16 12 11 19 23 22 17 3 2 7 7 6
15 12 6 4 38 64 98 49 8 2 3 3 4 6 15 23 23 27 26 14 8 7 7 9 11 5 6 14 19 21 17 15 18 16 14 6 9 15 17 20 15 10 10 13 11 8 8 11 12
6 6 5 3 76 68 50 14 2 6 9 9 9 11 20 13 8 9 7 9 11 11 12 17 15 15 15 19 22 20 20 14 6 4 4 5 5 6 6 6 6 5 4 4 4 7 16 17 14
3 2 20 75 78 25 23 3 6 24 13 10 17 9 7 6 5 6 8 10 13 11 14 11 8 7 8 11 11 10 6 5 4 5 5 6 8 9 9 9 8 8 8 8 8 6 5 5 5
2 4 82 92 92 6 8 11 16 17 12 8 10 8 7 8 6 8 9 9 7 5 3 2 4 4 3 3 3 4 6 7 8 8 8 8 8 8 9 9 10 9 9 10 12 11 11 10 9
3 91 88 100 46 12 12 17 19 14 10 10 8 11 7 3 2 4 4 2 6 6 8 7 6 6 6 6 7 8 9 9 9 9 9 10 11 14 20 24 27 28 28 26 20 16 14 14 14
25 90 93 86 22 16 18 17 10 7 7 10 12 7 2 2 3 3 3 4 6 8 8 8 8 7 7 8 8 10 10 10 11 10 11 12 15 19 28 34 37 40 42 43 41 38 39 40 21
13 71 69 50 45 17 13 10 6 3 2 5 4 3 3 3 4 5 6 7 8 9 8 9 7 5 6 8 9 10 10 10 9 11 14 19 23 27 32 39 41 41 42 42 45 48 48 48 46
37 58 58 22 18 12 10 5 4 4 5 5 5 4 4 4 5 5 6 5 5 6 6 6 7 7 8 9 8 10 12 14 18 25 32 38 43 45 45 45 46 48 49 49 54 55 54 53 50
50 68 15 12 8 6 4 3 4 7 8 8 9 8 7 7 7 7 7 9 9 9 9 9 10 12 12 11 14 18 23 28 33 39 45 47 46 47 46 41 39 40 43 44 42 44 49 49 50
39 20 10 4 0 2 3 5 7 8 9 9 10 11 11 9 8 8 9 8 9 9 9 12 13 15 17 21 28 37 42 43 46 47 47 47 47 48 48 47 46 43 45 47 45 42 42 42 42
5 6 2 1 2 5 6 6 7 7 8 11 12 11 9 9 9 8 9 11 13 16 19 21 23 25 28 30 35 42 44 50 53 52 53 54 51 47 48 52 52 50 46 45 45 42 40 41 41
3 4 5 6 7 6 7 9 10 11 13 12 12 11 10 12 14 12 11 14 15 22 23 27 31 32 31 31 38 44 56 57 48 46 52 55 51 52 49 50 54 52 50 46 43 41 40 38 37
4 5 6 8 9 10 10 13 14 14 14 12 12 15 17 15 14 13 16 22 21 22 29 32 32 30 33 40 48 55 51 51 50 52 49 46 48 50 52 52 48 47 46 44 40 36 31 27 25
7 9 35 12 11 11 13 86 22 15 13 15 17 15 16 18 16 18 24 27 25 29 28 30 28 29 34 43 49 52 50 52 49 46 50 56 53 55 57 54 48 40 34 28 21 18 15 15 16
13 78 40 14 12 13 17 85 21 18 16 19 17 18 19 23 23 29 30 29 29 30 35 35 32 35 44 48 53 55 58 57 56 56 55 53 52 52 48 45 44 35 28 28 26 25 23 21 22
73 54 30 52 15 18 18 21 17 18 17 17 20 25 28 28 32 34 32 31 31 34 42 50 42 48 50 48 62 65 59 54 61 65 66 62 55 47 40 33 29 28 25 24 24 26 28 28 27
22 21 24 22 22 22 22 23 20 19 17 21 24 28 31 35 37 30 31 37 42 46 57 60 44 64 59 65 73 69 65 66 71 71 58 55 41 34 32 30 29 30 29 29 32 32 31 30 33
20 20 20 21 22 23 22 20 19 21 24 25 26 28 30 32 29 31 32 40 45 55 57 61 67 65 68 70 78 80 70 67 62 54 46 41 38 35 36 40 43 42 43 44 46 45 43 41 47
15 14 12 13 12 14 19 20 14 18 21 22 23 22 25 26 26 30 40 47 57 69 71 67 65 72 76 83 68 66 63 55 48 43 43 46 50 54 57 59 62 61 57 52 51 55 51 44 40
16 18 17 15 15 52 12 78 74 38 21 23 22 22 26 24 29 43 54 58 67 74 83 87 85 72 65 73 64 61 56 48 46 45 48 55 71 86 90 97 76 75 69 60 55 47 42 40 35
20 21 21 22 22 22 23 19 87 75 36 24 25 26 26 30 42 49 48 52 64 78 80 68 59 65 69 54 52 51 44 56 98 100 100 100 100 88 91 78 64 57 46 42 40 38 36 33 30
20 20 20 20 23 31 46 27 100 98 32 22 21 22 24 28 34 38 45 48 54 56 58 66 69 54 51 50 53 56 62 86 88 79 85 86 86 75 64 49 44 42 40 36 33 30 24 19 17
16 18 27 30 27 63 31 28 56 28 32 31 29 28 35 40 44 51 55 56 57 61 60 57 57 58 58 54 60 63 67 71 76 74 60 54 50 48 45 43 42 39 32 25 26 28 26 20 12
30 31 31 33 34 53 30 47 60 31 33 35 39 44 50 59 60 57 55 56 54 58 63 67 62 57 52 55 60 57 54 52 47 43 45 51 48 45 47 46 36 27 25 27 41 63 46 22 20
34 34 33 33 33 33 37 49 49 40 44 49 48 47 56 61 59 60 61 58 67 63 59 57 60 58 53 46 47 49 52 52 53 58 57 47 56 63 43 35 41 35 32 50 78 78 54 14 13
32 32 34 34 35 38 82 60 100 69 61 50 54 58 64 65 68 66 66 65 61 57 57 55 53 53 54 53 56 58 57 63 61 65 73 78 94 95 33 34 37 64 67 42 29 20 18 18 23
36 37 40 45 51 55 52 78 78 71 66 68 70 74 77 72 69 68 67 66 63 61 57 55 54 52 50 50 53 54 49 52 57 65 91 100 100 58 29 30 22 22 24 21 22 37 60 80 82
37 37 38 48 50 54 59 64 60 70 73 65 70 67 66 68 70 65 65 64 59 52 51 44 41 46 51 53 53 57 60 58 72 99 100 95 47 28 19 18 17 16 22 32 81 89 80 85 88

GFSSGP_500_rhum_006.txt.gz
RH
46 29 29 58 53 47 38 98 100 77 86 33 5 4 6 4 21 49 69 78 77 39 34 30 19 7 7 9 10 17 14 10 14 16 18 14 11 9 10 11 13 20 21 20 16 6 1 7 9
56 27 82 50 27 22 95 98 85 47 22 12 3 5 3 5 10 15 22 23 17 27 14 7 8 9 7 13 16 16 14 15 13 12 4 3 4 5 7 9 11 7 5 6 9 11 10 6 8
92 23 45 24 24 65 92 97 71 42 5 3 5 3 5 7 6 16 16 20 21 7 8 9 12 13 11 13 14 17 15 6 5 4 4 4 5 5 5 5 5 5 5 5 4 4 6 14 15
11 55 12 10 51 89 98 91 54 26 4 8 10 9 9 7 10 10 8 6 5 10 8 11 10 5 5 6 7 8 7 5 5 4 4 5 6 7 7 7 6 7 7 6 7 7 5 5 6
80 27 17 57 98 88 87 68 73 7 66 25 25 8 8 5 5 5 6 7 5 7 8 5 3 3 3 4 4 4 4 5 5 5 6 6 7 8 9 11 12 11 9 8 7 8 9 8 6
17 42 70 91 90 76 71 64 42 92 99 37 11 5 4 5 4 5 5 5 5 4 2 3 3 3 4 4 4 5 6 7 7 8 9 9 10 12 16 23 26 30 29 28 26 21 15 11 10
50 44 83 98 99 85 25 11 22 42 35 13 8 4 9 2 2 4 4 4 3 4 4 4 4 4 5 5 6 6 7 8 9 9 10 11 12 14 18 24 31 35 36 36 35 33 33 34 34
59 76 84 96 98 91 20 22 16 27 19 6 12 7 2 2 3 3 3 3 5 5 4 5 5 6 6 6 7 8 9 9 8 9 10 12 16 21 29 34 35 38 40 39 41 42 42 44 41
54 92 98 95 89 49 20 14 10 7 5 11 9 3 3 3 3 4 4 4 4 5 6 7 6 6 6 6 7 9 10 10 12 16 21 28 32 38 45 49 46 46 46 45 45 43 45 47 51
69 65 68 72 63 56 15 10 5 3 3 5 5 4 4 4 3 4 4 4 4 6 6 6 7 8 8 8 9 11 12 17 22 28 34 37 37 34 30 32 34 36 36 36 36 44 46 44 40
68 74 60 40 34 20 12 6 5 5 6 6 6 6 6 5 6 6 8 9 7 7 7 8 10 12 14 16 18 21 24 25 29 36 38 36 35 34 35 32 35 39 47 47 48 44 46 48 44
79 73 69 34 11 7 5 4 4 8 8 9 9 8 8 9 9 10 10 8 9 12 14 18 17 19 24 26 25 26 30 32 32 35 35 37 37 38 40 43 45 48 42 42 45 44 42 43 42
71 48 23 2 2 3 3 5 6 8 8 8 9 10 10 11 10 10 11 12 13 12 10 13 21 22 20 16 22 31 35 35 38 40 41 46 46 44 45 50 52 52 48 43 41 39 38 35 34
6 3 1 2 4 6 6 7 7 8 9 12 14 12 12 14 13 14 14 15 14 12 13 19 32 31 36 19 27 37 39 42 45 46 54 56 52 51 52 50 46 45 44 40 33 28 29 28 25
4 6 6 7 8 8 8 8 12 11 15 13 14 15 17 14 11 12 17 19 17 16 19 30 79 46 50 29 36 39 46 49 48 45 47 44 42 43 47 47 47 42 36 29 21 18 16 15 16
4 8 47 16 12 10 10 47 45 30 14 15 16 17 18 18 17 17 19 26 17 18 40 87 88 54 44 38 29 38 40 45 45 44 40 41 47 43 46 40 36 29 23 24 23 22 21 20 19
23 80 84 50 23 13 15 76 95 26 18 21 25 24 22 29 23 26 24 32 27 24 17 36 26 45 76 98 59 45 53 57 59 63 55 53 56 43 37 27 24 25 24 25 26 26 25 23 22
81 72 78 50 15 14 18 39 64 18 23 23 25 26 38 31 39 36 20 31 42 23 20 19 13 33 54 68 87 67 60 60 71 88 58 59 56 42 35 31 29 25 26 30 31 29 27 25 23
72 60 50 84 21 19 19 26 20 26 20 21 24 27 38 47 40 28 42 49 44 38 42 16 32 85 95 68 57 73 75 93 88 74 53 47 34 47 37 34 33 35 38 38 34 30 28 25 24
60 45 44 25 21 23 26 52 17 21 23 20 21 25 30 31 30 26 26 36 42 51 47 58 48 56 70 76 70 84 98 80 70 57 46 41 48 74 94 94 66 55 84 89 72 69 43 33 34
23 21 18 23 15 14 19 82 31 28 31 27 21 20 22 27 28 26 26 36 51 60 71 76 75 91 100 86 77 76 69 66 50 51 80 54 58 75 95 96 93 82 66 81 55 46 42 36 36
15 17 17 19 20 51 32 77 96 79 50 39 31 31 30 26 22 22 25 40 48 72 87 93 75 80 100 88 73 67 56 55 57 62 58 55 59 61 68 68 58 59 49 48 45 45 43 40 36
18 20 21 22 21 25 37 45 98 83 76 46 41 31 28 27 26 30 32 38 54 60 62 63 73 80 71 62 59 60 61 54 52 49 45 42 44 44 46 48 44 44 48 49 48 43 43 45 42
20 20 20 19 20 21 52 81 92 96 82 83 34 30 30 32 36 41 46 48 58 62 65 78 85 56 57 63 60 57 54 48 44 43 44 46 47 51 54 55 55 54 54 54 48 50 57 52 37
21 16 17 38 55 69 77 80 77 55 66 56 51 36 36 49 52 51 55 57 57 56 58 62 69 73 65 54 54 53 44 45 46 39 41 43 43 47 48 50 53 63 63 69 69 77 76 69 22
31 33 34 36 53 47 58 53 80 68 77 70 53 62 53 45 53 61 63 61 60 67 70 66 67 63 61 60 50 44 39 40 41 45 48 48 51 60 60 56 55 57 86 95 90 64 50 18 12
30 32 31 30 31 31 41 98 100 85 85 62 61 58 59 62 65 67 68 65 69 69 65 58 53 54 55 50 44 41 42 43 46 42 43 49 55 79 100 99 100 98 42 27 18 13 11 9 11
35 35 35 36 40 46 83 100 98 86 100 82 66 62 61 64 65 66 66 68 62 54 49 44 39 34 30 30 34 32 32 35 46 57 55 56 66 91 90 74 45 21 15 13 11 9 10 14 22
26 23 27 35 38 43 44 65 65 76 77 71 82 77 79 83 82 80 70 59 54 42 39 31 32 30 35 33 30 39 45 53 56 56 56 51 44 35 26 21 19 18 13 11 11 14 25 38 64
22 24 23 28 35 36 38 46 50 53 65 100 92 74 77 83 72 63 60 51 40 36 38 35 34 28 31 35 38 54 54 52 55 52 40 28 21 20 20 20 16 13 12 17 32 72 86 87 83

GFSSGP_500_rhum_009.txt.gz
RH
82 59 43 12 24 25 84 93 93 100 99 85 80 68 35 21 23 28 74 70 66 36 32 32 14 7 6 7 13 12 9 13 10 6 4 4 4 4 4 5 5 4 4 4 5 6 8 7 5
76 59 33 34 42 50 89 66 100 89 97 95 86 74 14 8 22 6 13 54 29 20 28 12 6 6 8 10 13 12 10 11 6 6 6 6 7 7 7 8 8 7 8 7 6 6 4 9 12
91 79 31 57 66 93 78 96 92 96 94 83 55 11 6 9 16 10 24 34 37 24 9 7 6 7 7 7 9 11 7 5 6 6 6 5 6 7 7 7 7 7 8 8 8 9 9 6 7
96 88 49 68 93 86 83 74 94 97 96 78 22 3 5 11 11 9 14 21 10 7 7 6 6 3 3 3 4 4 4 5 5 5 5 6 6 7 10 11 12 14 14 10 10 8 9 9 7
76 31 58 90 82 96 94 94 83 91 96 61 14 17 19 12 11 9 7 5 6 6 6 4 3 2 3 4 4 4 5 6 6 7 8 8 9 12 14 19 24 26 26 26 25 23 23 21 16
94 79 83 82 92 97 92 80 74 84 71 70 44 7 20 6 7 5 5 5 5 4 2 2 3 3 4 4 5 6 7 8 8 9 10 10 11 12 14 16 20 25 28 28 27 28 28 28 29
59 89 85 78 94 94 83 92 84 69 73 71 6 6 10 3 2 4 4 4 2 2 2 3 4 4 5 5 6 8 8 8 9 9 9 11 14 19 24 30 34 37 37 37 38 36 35 35 35
92 70 92 92 97 96 83 83 48 19 56 12 7 10 3 2 3 4 3 3 3 4 4 4 5 5 6 7 7 7 8 9 10 13 18 21 27 33 32 33 38 38 39 37 35 32 30 30 32
95 95 97 94 95 94 93 59 19 9 11 9 6 9 4 3 3 3 4 4 4 4 4 5 5 5 6 6 8 9 11 14 17 21 24 27 32 36 40 43 38 34 34 37 40 43 42 37 35
97 88 98 89 94 99 62 27 12 8 5 3 9 7 4 3 3 3 3 3 4 5 7 8 8 8 10 12 15 19 21 24 24 24 27 27 26 27 27 28 31 35 39 42 42 40 39 41 41
70 69 93 99 79 56 48 13 5 5 5 6 5 5 4 4 3 4 6 7 7 8 10 12 12 14 19 23 19 20 23 24 30 30 29 30 31 31 30 33 32 33 37 43 44 45 43 42 42
72 74 68 67 64 31 13 6 4 6 10 9 6 8 8 7 8 8 8 10 10 13 11 14 18 18 17 18 19 23 18 16 26 36 31 33 35 39 40 38 36 36 37 35 36 37 37 35 31
74 42 52 65 44 7 4 4 6 7 8 7 8 9 11 10 10 12 12 12 12 12 15 16 20 26 39 55 34 29 26 20 25 35 39 41 44 44 40 38 38 37 36 38 38 35 33 24 14
28 14 8 2 2 4 6 9 10 11 13 10 9 9 10 13 14 15 12 11 10 10 14 48 72 44 69 80 56 42 41 38 38 48 50 42 39 37 38 40 40 38 35 32 32 26 23 20 16
4 5 8 9 10 13 14 18 10 13 14 16 18 13 12 12 11 10 14 14 15 18 14 51 97 98 100 86 56 95 89 77 56 42 46 48 42 51 53 41 37 29 27 24 20 19 18 18 18
10 10 15 47 36 18 12 14 29 41 17 16 16 16 15 11 8 8 11 28 15 15 17 28 72 93 98 93 74 94 98 86 64 43 46 43 39 53 51 39 34 29 24 22 22 20 20 22 22
81 98 89 90 38 18 20 16 49 39 22 20 18 18 14 14 11 11 13 16 24 26 30 29 34 45 77 71 91 97 91 67 68 64 58 53 58 52 41 34 37 33 30 30 28 27 28 28 29
91 96 89 73 44 29 28 45 46 14 22 25 27 25 23 20 17 21 22 20 25 39 59 48 48 82 81 66 71 70 76 80 68 72 62 56 49 43 44 43 43 43 40 41 38 33 33 30 27
96 80 78 78 28 29 25 34 33 22 24 28 27 26 25 27 21 23 28 26 43 58 32 37 46 48 54 70 63 92 87 87 73 60 54 46 49 49 44 42 43 40 39 42 41 35 32 36 41
92 68 51 13 16 24 22 25 24 25 32 25 26 23 24 28 29 32 36 41 52 56 59 50 55 58 57 54 80 79 96 87 68 62 57 56 47 46 44 41 37 34 33 33 33 33 31 33 36
25 41 53 25 19 22 18 17 18 22 42 70 67 74 47 45 38 36 42 58 60 53 47 62 75 71 60 75 78 98 91 63 60 58 52 52 51 45 40 35 30 26 23 24 27 29 32 33 42
17 20 19 18 18 22 25 54 44 32 22 20 54 38 40 42 38 43 42 40 37 42 46 47 59 70 74 86 95 100 67 63 58 58 56 49 43 40 36 37 34 33 30 26 26 35 39 42 43
19 17 18 19 22 25 26 33 96 83 63 59 72 62 80 70 38 35 39 42 50 57 62 66 68 67 68 64 65 67 66 63 60 53 48 40 32 27 28 28 27 29 34 41 41 40 49 58 57
18 18 21 22 21 21 43 61 71 81 95 49 65 79 100 73 51 44 46 48 50 54 61 62 62 64 66 67 67 61 51 43 38 39 38 32 28 27 32 37 40 46 48 47 48 48 52 69 79
16 18 16 14 29 22 40 63 100 93 74 54 48 56 57 58 59 55 50 45 55 65 68 73 76 75 74 62 50 41 34 28 24 26 26 26 31 41 45 47 49 52 52 52 52 47 40 30 33
20 22 23 25 32 36 58 52 58 60 74 81 84 74 90 95 91 75 71 68 64 67 82 81 80 76 67 60 53 42 29 26 28 30 33 40 44 48 51 53 52 50 43 35 28 21 16 12 11
29 32 33 35 36 38 42 42 62 98 100 100 99 94 88 98 61 70 68 65 68 67 61 54 42 32 27 24 21 27 32 30 33 41 46 48 51 51 45 34 22 15 16 16 16 16 15 14 12
26 25 22 21 26 33 51 60 64 62 69 72 67 85 71 60 74 94 84 76 68 57 47 43 38 30 26 28 30 29 32 32 39 46 50 46 37 20 9 8 12 15 20 27 29 21 15 15 18
14 14 18 18 18 22 32 44 48 53 60 63 61 85 89 84 82 76 65 51 45 44 44 33 30 30 29 31 34 36 40 42 41 46 38 19 8 9 13 19 22 21 21 18 16 18 22 43 78
17 18 19 23 23 22 24 45 43 48 52 78 97 96 89 85 74 63 60 54 49 46 36 34 34 34 37 38 38 40 34 35 37 24 9 9 11 17 30 21 18 19 20 20 23 29 81 88 68

GFSSGP_500_rhum_012.txt.gz
RH
96 95 54 21 52 91 88 83 86 72 62 79 95 80 78 93 61 88 80 50 96 91 54 27 24 11 7 6 7 9 8 8 6 6 7 8 8 8 8 9 9 8 7 8 9 8 6 5 7
96 92 79 42 24 83 85 84 82 70 95 85 93 88 96 95 74 26 35 32 41 52 41 23 10 6 7 7 8 9 8 6 6 7 7 7 7 8 9 9 8 8 9 9 8 9 10 9 8
95 94 78 73 38 38 92 100 79 94 85 97 94 80 78 94 84 41 18 21 17 70 31 9 5 6 5 4 6 8 5 6 6 6 6 6 7 10 13 13 13 14 13 10 8 8 8 8 9
89 95 89 93 70 52 76 86 74 68 88 97 95 84 73 46 5 7 8 12 56 31 10 5 5 5 2 3 4 4 5 5 5 5 6 7 11 13 14 17 20 21 22 23 24 23 19 15 13
91 88 56 87 85 89 96 94 70 87 95 90 75 65 73 30 9 16 15 17 10 6 6 6 4 2 3 4 4 5 5 6 7 8 10 10 11 11 12 13 16 19 24 29 30 30 31 31 29
85 88 88 94 69 91 87 98 82 72 64 52 62 75 47 14 12 6 5 6 6 7 6 3 3 3 4 4 5 6 7 8 9 9 9 8 9 11 16 22 25 28 32 32 33 34 34 33 33
94 81 90 92 68 98 92 99 82 51 41 43 76 81 50 10 6 4 6 7 6 5 2 3 3 4 4 5 6 7 8 8 9 10 11 15 19 23 24 27 26 26 28 31 34 30 30 30 32
96 76 93 82 89 97 90 97 92 62 72 32 85 12 6 3 3 4 5 5 3 2 3 4 4 5 5 6 6 7 8 9 12 16 20 26 24 26 26 21 21 23 24 27 30 36 39 40 40
99 97 95 93 88 96 96 97 81 70 44 16 13 14 3 2 3 3 3 4 4 4 4 5 5 6 7 8 9 11 14 18 22 27 27 24 26 26 26 27 31 27 28 31 33 35 35 38 39
94 78 88 94 96 96 98 90 73 28 12 6 6 4 3 3 3 4 4 4 4 4 5 6 8 8 10 12 17 22 25 28 25 21 24 28 30 32 33 33 33 35 33 33 33 35 37 38 39
96 96 88 93 95 91 84 40 52 10 3 5 5 4 3 3 3 3 4 6 8 10 10 10 12 14 18 22 23 26 22 16 16 19 20 23 27 30 28 33 32 29 29 28 28 32 37 39 41
82 72 71 81 96 90 70 21 6 6 8 6 8 7 7 8 6 7 9 9 10 11 12 13 15 14 16 20 25 52 40 36 32 32 34 23 24 26 31 32 31 33 36 35 35 35 38 40 39
81 77 76 70 66 60 30 9 5 8 9 9 11 10 12 10 10 10 12 12 12 12 12 17 48 61 48 30 87 87 63 61 64 58 65 42 32 31 38 37 31 34 35 30 27 25 22 25 26
81 51 40 59 61 10 4 6 8 10 9 9 12 14 15 13 14 15 12 10 10 14 16 39 27 79 78 76 77 94 65 61 67 91 75 58 45 44 40 40 38 37 36 29 26 25 21 21 19
58 6 9 20 14 10 11 9 14 9 9 8 8 11 13 14 14 15 15 8 8 12 11 19 88 52 50 42 72 89 69 85 94 82 74 60 63 53 51 52 45 41 36 36 34 30 27 25 24
11 8 23 20 17 15 14 20 44 21 12 9 12 16 16 12 9 8 8 14 14 12 17 27 64 69 59 51 68 92 76 75 74 68 62 62 62 55 51 50 49 48 45 41 38 36 33 32 31
59 20 42 29 49 26 22 23 44 29 13 12 16 16 12 10 8 11 22 17 15 11 14 64 92 77 75 77 77 63 78 96 68 80 78 69 58 48 50 49 48 45 45 44 41 37 34 32 30
76 52 28 58 68 51 49 19 19 14 22 23 24 19 18 14 14 21 42 27 18 22 74 91 71 87 97 95 58 63 73 74 77 80 77 73 57 57 55 52 49 48 41 33 26 20 16 14 12
88 83 62 86 71 82 92 63 26 18 18 26 39 30 23 20 21 31 30 40 32 59 88 84 99 98 86 51 44 72 75 77 82 93 88 68 67 62 58 56 48 35 26 19 14 13 13 14 14
99 84 71 50 50 69 55 36 27 28 28 26 39 39 69 70 61 63 77 84 100 88 86 98 90 55 44 45 60 73 77 79 75 91 86 81 71 61 50 38 34 28 24 20 18 19 20 20 20
78 86 76 64 52 30 22 19 18 17 18 22 51 82 96 97 98 98 96 86 61 50 43 36 37 38 47 59 68 74 71 85 78 85 82 70 58 50 44 39 31 26 24 23 23 23 25 25 26
30 61 74 58 29 34 26 31 26 21 32 38 45 62 84 98 96 94 88 80 54 44 43 46 50 57 70 78 76 75 78 83 84 84 73 64 51 36 34 37 32 28 25 24 24 26 28 28 29
15 17 19 18 19 21 26 45 48 54 36 37 74 91 100 100 93 100 98 83 62 59 58 60 72 80 77 71 76 87 88 86 73 58 38 29 33 34 30 26 25 24 26 26 28 33 38 40 41
24 24 24 23 23 23 24 25 28 31 53 82 98 100 100 83 75 77 71 83 79 81 72 83 82 76 80 83 81 72 51 35 27 26 28 32 30 29 30 32 30 29 27 29 32 32 26 19 16
13 15 16 16 16 18 24 41 39 57 77 94 91 76 52 43 61 88 85 100 94 78 77 85 87 92 87 75 52 35 27 26 29 32 32 33 34 30 31 32 32 32 30 20 13 10 8 8 9
19 22 23 23 26 36 34 37 70 75 69 62 36 40 68 93 98 82 76 79 68 76 82 86 84 51 36 29 25 23 25 25 27 30 35 36 36 37 35 32 25 15 11 10 10 10 11 15 18
28 26 24 24 30 33 32 33 33 31 34 36 76 100 99 84 92 69 87 76 77 71 48 40 36 31 30 30 30 32 35 37 38 39 40 40 40 37 26 18 12 12 11 11 12 26 45 19 18
16 15 16 18 18 19 18 19 21 28 31 37 49 55 56 57 60 87 80 71 57 42 42 42 37 36 35 35 38 44 43 41 44 48 45 40 34 19 14 12 10 11 23 63 78 78 38 14 20
16 16 17 18 18 19 20 19 20 22 25 32 37 41 50 94 81 73 57 41 43 48 48 47 48 44 46 51 49 45 45 48 48 46 44 33 21 17 11 10 19 37 100 100 56 56 29 31 44
16 15 15 14 16 20 21 18 17 20 24 31 40 45 51 95 100 79 50 52 63 63 56 57 53 51 51 43 45 46 50 47 47 46 36 25 14 12 8 51 74 86 100 100 73 61 85 100 95

GFSSGP_500_rhum_015.txt.gz
RH
71 71 91 94 86 94 95 84 80 80 72 72 75 80 96 96 97 97 97 89 52 75 91 92 59 20 10 6 6 6 7 7 6 8 8 8 8 8 9 9 9 10 10 9 9 10 11 12 12
99 93 87 91 59 79 94 94 93 95 88 69 63 91 97 93 93 95 99 90 83 53 62 85 54 14 5 6 7 8 8 6 7 7 7 7 6 7 9 10 11 12 13 12 11 10 10 10 11
98 98 85 88 36 59 88 96 97 94 96 96 87 88 97 97 97 85 59 47 26 39 48 70 22 6 6 5 5 6 6 6 7 6 6 5 6 8 10 12 14 15 16 18 20 21 21 21 20
98 87 97 86 51 30 53 85 94 92 93 95 96 97 93 80 88 77 63 19 12 22 21 26 7 5 3 3 4 5 5 5 6 5 5 6 9 12 12 13 13 15 19 23 25 26 27 27 27
95 95 98 92 86 72 50 76 94 98 94 93 96 95 91 82 70 58 52 14 11 13 10 5 4 3 3 4 4 4 5 5 5 6 8 10 10 10 11 12 14 18 22 25 26 27 29 30 29
84 82 87 100 81 80 76 72 78 84 90 96 96 89 93 68 71 38 25 19 15 6 5 4 4 3 4 4 4 5 6 7 8 9 9 9 10 14 19 23 27 29 29 27 26 26 28 25 25
94 89 50 87 88 95 90 100 88 97 97 94 84 94 86 73 61 55 14 6 5 5 4 4 3 3 4 4 5 6 7 8 8 9 11 14 20 25 24 26 24 24 22 22 26 24 23 25 32
74 76 83 86 96 94 96 99 98 97 95 94 53 85 73 51 17 6 3 4 5 5 3 2 3 4 5 5 6 6 6 8 11 15 19 23 24 23 23 28 30 32 32 32 34 33 33 34 36
94 90 74 86 97 88 95 96 95 96 86 62 18 43 34 11 3 5 5 5 5 2 3 4 4 5 6 7 6 7 10 15 19 20 22 26 21 27 32 32 36 36 32 32 27 26 26 26 27
92 86 95 92 87 92 93 93 73 58 37 10 8 12 7 2 4 4 4 4 4 4 4 5 6 7 8 8 10 14 20 20 18 22 22 24 22 19 21 23 31 32 33 34 31 33 34 34 34
86 100 98 98 96 97 97 68 27 15 5 4 5 6 3 4 4 4 4 4 4 6 7 8 9 12 14 15 15 18 23 56 54 48 57 46 37 31 24 23 23 31 34 33 34 35 35 36 35
100 94 97 93 95 90 78 60 42 7 8 7 7 8 7 7 6 5 6 9 8 10 11 12 15 18 22 27 35 34 55 86 80 70 66 69 68 65 44 28 30 35 35 37 37 36 32 28 26
86 85 91 73 74 82 69 42 12 9 10 12 11 10 10 10 10 10 11 12 12 12 14 16 20 49 55 60 56 51 82 87 92 85 68 80 74 66 43 27 35 43 41 40 37 34 31 29 31
84 63 63 59 62 63 20 5 6 8 10 13 15 12 10 10 10 11 11 12 17 23 27 27 31 28 47 60 53 48 52 99 94 81 72 62 57 36 39 45 45 42 38 38 37 36 36 35 34
72 53 23 51 59 39 5 8 11 12 13 12 13 14 14 11 13 12 11 17 23 25 19 44 57 65 64 68 53 55 64 73 49 53 54 59 58 59 63 51 46 47 46 46 45 44 44 42 41
68 10 66 42 16 11 12 14 23 24 15 11 10 12 12 12 12 14 18 27 27 17 36 84 94 76 84 93 92 98 99 48 35 40 62 80 67 61 62 49 54 57 57 56 54 49 39 27 18
57 49 39 33 30 17 20 47 33 39 16 14 11 16 17 16 13 10 18 38 41 24 49 85 96 91 97 98 97 99 86 47 47 52 69 76 61 65 57 58 61 54 31 18 15 14 13 12 13
20 74 28 37 42 25 18 20 24 20 22 22 21 19 15 17 25 24 34 56 38 26 76 99 98 98 98 91 97 85 50 84 93 82 71 68 74 66 67 52 27 18 16 14 13 13 13 14 14
18 53 39 48 30 40 22 14 17 16 20 23 24 20 27 32 71 75 57 41 36 55 85 98 92 88 59 36 51 77 82 97 86 70 65 79 72 70 48 37 28 21 19 19 19 20 20 20 19
79 48 42 41 49 37 28 24 20 20 19 17 19 49 75 72 92 100 95 83 84 100 97 70 53 50 44 48 62 76 91 72 65 69 73 76 75 56 34 26 23 24 26 29 28 26 26 25 23
77 74 79 74 60 52 30 22 17 17 19 30 27 28 56 68 74 84 98 99 74 75 74 74 61 52 53 54 58 57 60 70 76 82 79 59 36 29 33 38 41 40 38 35 34 29 28 26 26
59 74 76 79 72 67 39 24 22 23 26 36 34 45 79 94 90 98 74 76 82 97 93 76 75 63 66 56 59 74 81 88 90 80 64 58 56 56 50 48 44 38 33 31 30 30 31 29 25
29 31 44 57 76 72 45 27 22 23 25 38 50 68 87 97 79 84 91 76 85 78 69 64 72 75 66 72 87 97 98 95 76 66 49 39 39 39 42 38 36 35 33 34 38 37 29 23 20
19 23 24 24 27 30 26 26 23 28 52 78 85 79 69 96 98 75 58 70 80 96 85 66 68 79 86 90 91 80 58 45 41 38 39 38 35 35 34 36 41 42 44 42 35 25 20 15 13
28 26 23 21 20 21 21 21 17 23 37 56 75 79 100 92 69 77 79 99 92 77 76 82 88 95 91 80 65 54 46 38 34 34 35 33 33 33 37 43 48 48 42 30 23 19 15 11 10
18 20 21 21 21 20 25 25 30 36 38 36 36 43 44 54 97 99 98 90 76 70 80 73 68 48 41 42 40 35 33 31 34 37 33 34 43 45 50 54 50 40 33 27 20 16 12 13 50
26 27 26 20 17 16 15 15 21 21 22 26 34 34 38 58 75 78 79 72 77 69 63 47 46 50 50 45 42 38 42 44 38 35 41 49 50 48 48 47 44 30 24 16 12 23 28 86 54
18 15 17 18 18 18 17 14 14 14 15 18 20 25 29 37 41 44 65 76 73 63 56 53 56 58 56 51 48 47 45 39 37 42 46 46 46 40 48 42 28 18 12 11 58 74 76 100 95
16 17 18 17 16 18 18 18 17 16 16 16 17 18 20 21 23 28 34 45 64 57 56 61 66 59 52 51 54 53 45 40 34 32 31 30 33 44 43 30 19 11 11 43 73 56 96 99 96
18 15 13 13 13 14 15 16 17 19 20 19 18 19 20 20 23 28 33 46 54 65 68 70 63 61 64 66 57 47 39 31 26 31 33 44 52 44 32 19 10 11 16 20 42 97 100 100 67

GFSSGP_500_rhum_018.txt.gz
RH
37 57 45 40 68 85 90 90 89 87 83 73 70 63 72 94 96 90 95 96 98 88 83 82 48 70 28 16 5 5 7 9 7 8 7 7 8 9 12 13 14 14 14 15 15 15 12 11 11
68 75 80 89 78 68 83 91 92 78 86 96 95 94 96 95 95 94 93 96 94 73 52 31 51 44 34 8 5 6 8 8 8 8 7 7 7 6 9 14 15 15 16 17 17 18 19 20 21
72 80 76 86 75 71 84 94 84 89 95 97 92 96 95 94 96 97 96 80 51 48 36 30 32 31 20 5 5 5 7 7 8 7 6 6 5 6 8 12 14 14 14 15 17 17 19 20 22
76 77 86 82 73 70 76 74 98 92 97 95 96 96 96 97 96 96 84 64 54 44 27 31 20 23 5 4 4 6 6 6 7 6 6 5 6 9 11 11 10 11 13 17 21 23 22 22 22
82 76 91 91 62 60 57 62 98 95 96 97 97 94 94 94 96 82 69 78 55 31 23 18 15 5 5 3 4 5 5 5 5 5 5 7 9 10 9 12 19 22 23 22 22 20 18 18 17
72 81 91 88 82 64 72 48 80 92 96 97 95 89 89 89 91 91 92 77 40 33 20 10 6 7 3 4 4 5 5 5 6 7 8 9 11 13 17 21 21 20 21 22 21 20 20 21 20
61 87 100 100 92 91 94 94 95 94 96 96 78 71 66 50 57 70 34 21 17 16 12 7 7 5 3 4 4 5 5 6 7 8 9 12 17 21 20 16 18 24 25 24 24 26 25 25 26
62 86 80 66 88 97 98 95 95 95 95 84 88 46 52 46 47 36 7 5 6 7 6 7 4 3 3 4 5 5 6 7 8 12 17 21 24 18 16 17 22 24 22 22 22 21 19 19 20
85 76 71 68 97 91 87 97 96 94 88 84 41 20 38 28 22 4 6 5 4 6 4 2 3 4 4 5 6 6 8 10 16 24 25 24 26 29 27 21 20 22 24 23 27 29 27 24 22
88 84 90 88 98 96 96 96 96 90 40 20 6 9 15 10 3 3 4 5 5 5 6 6 5 6 6 7 9 12 15 20 26 39 59 66 69 63 57 46 47 38 34 30 29 34 33 32 32
97 96 96 96 96 92 97 94 56 15 6 7 6 8 7 4 4 4 5 5 6 7 5 7 8 8 11 14 15 16 27 38 68 86 88 87 84 68 71 66 73 53 36 35 35 37 39 38 37
100 98 90 88 93 95 89 65 62 21 10 7 7 6 6 6 5 4 6 9 10 10 11 11 11 12 14 32 44 50 57 56 65 99 97 97 80 78 80 74 68 47 40 43 40 38 37 39 38
95 91 94 90 75 82 68 61 36 12 12 11 10 10 10 10 7 9 10 12 13 13 11 13 15 18 18 26 28 62 54 48 56 64 66 54 73 73 65 53 54 40 40 41 39 41 44 44 44
95 94 91 92 75 66 62 19 9 8 12 11 12 15 14 12 10 13 16 15 14 14 19 23 24 21 25 25 43 64 68 51 67 78 50 41 50 60 53 38 34 41 43 45 50 52 53 52 49
95 61 25 47 72 70 38 6 9 17 16 19 16 16 16 15 19 22 21 20 17 25 24 34 62 65 80 88 77 86 96 98 97 85 66 31 35 43 40 46 56 54 53 56 57 61 55 37 17
90 24 29 40 55 42 8 8 24 39 24 22 20 18 16 19 21 24 24 41 45 28 30 47 66 79 80 97 96 99 99 95 97 82 91 67 63 68 61 57 60 59 56 50 33 16 13 12 12
90 59 13 28 13 11 16 20 32 34 23 23 20 18 22 20 18 16 24 52 67 61 46 62 83 91 100 97 96 93 94 89 76 93 91 100 93 72 61 63 64 66 42 18 15 15 16 16 16
61 31 17 14 15 16 14 32 54 64 40 29 25 25 24 23 19 15 21 47 50 50 39 71 76 88 96 96 82 63 50 56 74 95 96 73 66 66 66 72 70 56 35 22 21 22 24 23 20
44 30 51 27 16 16 20 23 24 26 22 25 30 28 30 36 35 38 47 49 58 63 70 96 97 95 88 72 86 66 50 50 61 54 56 61 69 74 72 65 49 27 24 25 24 26 27 28 26
39 48 47 38 23 24 38 28 20 20 20 19 19 19 30 66 60 45 31 57 82 95 98 78 52 47 40 58 60 53 61 64 68 72 76 80 78 66 44 27 21 22 30 36 38 35 34 36 35
48 44 63 66 58 50 49 31 24 20 17 15 15 17 23 46 53 76 92 88 98 81 68 65 52 65 78 77 64 64 69 72 72 70 71 63 43 34 34 40 50 58 55 43 37 36 32 23 18
80 77 52 53 76 75 62 46 31 20 16 15 19 24 30 37 48 55 99 74 86 75 51 40 58 86 91 70 54 56 68 76 78 71 54 45 49 55 60 54 43 35 29 24 22 19 16 16 18
57 53 57 62 67 72 55 30 12 12 18 24 25 31 37 40 60 84 94 97 78 63 64 79 99 76 63 63 68 73 85 74 64 59 63 62 55 45 38 34 26 22 22 20 17 17 20 25 37
28 30 30 29 24 18 15 17 17 22 24 21 34 42 42 60 47 71 96 75 69 89 100 96 68 88 91 88 81 74 64 61 60 56 51 43 39 37 28 24 19 16 17 18 21 29 43 48 38
18 19 21 24 26 25 22 18 15 17 25 36 37 39 47 40 40 46 51 95 65 77 57 53 68 96 79 68 63 52 54 54 50 43 39 39 34 27 24 18 19 20 22 31 43 52 47 43 35
21 18 18 17 19 21 21 18 19 19 20 23 24 24 25 24 27 30 33 32 41 43 45 71 71 63 56 44 44 51 53 48 47 46 39 30 26 23 18 20 25 32 45 51 55 43 40 22 9
19 22 26 27 24 19 16 16 17 16 17 16 16 16 17 18 20 22 25 27 32 38 44 56 54 50 51 55 53 50 53 55 45 38 32 30 24 19 24 27 30 36 45 54 46 35 12 9 16
28 26 18 16 17 18 18 17 17 16 17 17 17 17 17 17 17 18 20 22 24 29 35 40 42 74 56 55 58 63 58 46 38 35 33 28 26 26 28 33 38 46 53 45 27 8 10 16 24
21 16 19 18 16 15 15 16 16 16 17 18 20 21 23 24 24 22 20 21 23 27 33 44 100 79 68 67 67 60 50 44 41 36 29 29 29 30 36 40 50 50 38 16 8 11 18 24 46
16 18 17 14 14 15 16 15 15 14 14 15 16 19 23 27 26 26 25 24 24 26 33 44 56 66 71 71 68 59 53 46 38 33 35 35 38 44 48 54 47 31 14 8 12 18 23 50 62

GFSSGP_500_rhum_021.txt.gz
RH
14 19 16 12 22 28 67 70 55 80 94 92 73 58 50 44 45 64 89 95 95 96 96 92 73 54 44 30 33 6 5 6 6 8 8 8 9 10 10 13 14 14 14 13 13 14 14 15 17
24 31 38 35 35 36 76 69 53 72 86 95 89 79 66 69 85 96 95 96 97 96 76 57 54 57 36 35 13 6 7 7 7 8 7 7 7 7 7 8 12 14 13 12 13 15 16 17 18
42 43 55 62 77 72 68 66 69 77 87 100 96 94 93 97 97 96 96 97 96 91 87 62 45 37 39 24 8 7 6 7 7 8 7 7 6 6 7 10 12 11 11 14 16 17 16 15 16
61 60 62 71 70 68 65 67 85 84 100 94 97 97 96 96 96 95 96 96 94 93 58 31 42 33 24 8 7 5 7 7 7 7 7 6 6 7 9 9 10 15 16 14 12 11 12 10 12
65 70 72 80 75 61 64 78 71 85 93 95 96 97 97 95 94 95 96 94 94 63 44 38 32 28 12 8 5 6 6 6 6 5 5 6 8 9 9 12 16 16 12 11 15 16 16 17 18
58 69 77 80 78 64 62 48 56 80 95 97 91 91 93 91 97 94 93 89 64 46 49 37 23 11 8 4 5 5 5 5 5 6 7 8 8 10 14 18 19 13 14 18 20 18 16 17 21
56 53 78 97 76 81 50 60 86 98 96 97 95 96 93 86 83 95 94 86 39 21 19 16 9 8 5 4 4 4 5 5 6 7 7 8 13 17 20 20 20 26 17 16 16 15 14 14 17
63 49 87 92 74 79 77 94 88 94 98 96 90 66 59 67 33 24 17 7 9 12 12 8 8 5 4 4 6 5 6 6 7 8 11 17 21 22 36 65 59 50 30 18 19 24 22 20 14
53 44 89 94 73 81 92 95 93 96 97 90 68 35 26 41 13 5 6 6 9 10 9 5 4 6 6 7 7 6 8 9 12 13 20 22 41 74 80 76 66 59 53 62 48 40 30 31 31
38 93 100 91 88 97 98 97 97 97 94 31 15 9 13 13 6 4 6 11 10 8 8 10 9 8 7 9 8 9 11 14 18 23 29 39 85 87 84 75 68 64 64 68 63 37 37 37 37
50 94 92 95 91 94 83 98 97 53 34 9 9 9 13 6 6 7 7 8 7 8 8 9 10 9 9 10 14 16 20 25 26 32 47 60 94 81 74 73 66 64 64 54 59 49 38 38 37
100 96 93 95 93 99 93 64 73 21 9 8 7 6 7 8 8 7 8 10 12 13 11 11 10 11 12 14 17 21 33 39 54 65 59 68 63 46 44 48 58 50 44 43 46 48 41 42 39
87 98 94 98 93 86 66 38 23 12 15 10 11 13 12 13 13 15 15 14 16 15 13 12 15 17 16 16 19 24 44 62 63 64 76 71 58 52 35 35 33 40 40 43 40 47 46 45 50
97 97 97 95 94 75 59 16 18 21 18 14 13 14 15 20 21 22 20 17 15 12 13 16 18 25 36 43 52 51 63 93 99 97 97 97 96 90 72 52 56 54 55 51 46 48 52 54 58
98 94 90 95 82 69 16 16 19 24 36 19 20 16 21 24 25 19 18 25 24 19 18 27 73 82 66 83 100 100 97 98 97 97 98 97 98 89 91 79 63 68 51 49 52 56 65 55 24
84 42 48 44 63 66 14 14 34 45 25 31 27 24 22 25 29 26 25 25 32 42 42 43 65 67 84 93 100 99 98 98 97 96 85 75 96 96 89 78 57 57 65 67 66 64 61 27 16
58 61 55 60 61 44 11 16 37 37 28 31 28 25 21 25 25 24 36 48 56 73 70 76 90 93 86 87 97 94 96 84 75 46 59 92 77 66 63 62 69 70 68 63 52 38 28 22 21
81 60 40 32 28 14 12 36 79 65 58 59 38 28 25 24 24 22 26 46 62 64 54 62 88 99 92 97 93 69 73 61 64 74 84 68 63 70 80 80 77 70 55 34 26 25 24 23 22
63 62 46 16 16 18 22 29 54 76 77 44 43 32 25 23 22 38 50 46 47 57 67 70 83 93 75 70 51 61 59 66 62 51 51 66 82 87 88 74 52 32 27 28 31 34 35 32 28
41 53 47 34 24 23 32 36 35 30 27 25 26 24 20 20 24 22 27 53 81 78 81 85 79 56 34 30 42 67 74 64 58 61 73 75 70 60 47 43 41 44 47 50 47 35 25 17 17
38 83 94 75 65 41 40 32 30 25 21 18 18 18 20 22 22 25 33 54 75 77 83 82 70 47 50 64 81 82 61 59 66 66 64 58 52 53 54 55 55 56 50 35 24 16 14 14 14
46 69 84 83 86 88 51 34 35 24 18 17 20 22 23 24 27 46 66 79 89 99 84 50 38 43 82 95 91 71 48 57 58 65 55 55 60 62 61 59 51 40 26 19 12 13 15 16 19
80 87 63 46 48 38 30 28 21 17 19 23 23 22 24 32 48 55 46 37 45 46 38 49 46 49 92 50 39 57 66 64 59 59 65 72 66 57 49 43 32 26 20 14 16 19 20 23 26
76 52 60 52 36 20 16 20 14 19 22 19 21 28 31 38 48 38 32 25 25 26 32 42 31 29 29 48 70 93 80 62 55 57 58 53 50 46 37 32 31 26 21 20 21 22 28 32 35
42 29 23 19 16 19 21 17 16 19 22 24 22 21 23 23 23 23 22 20 18 19 20 20 22 24 29 36 53 68 51 49 49 50 53 55 45 40 36 33 26 18 18 22 23 33 38 37 36
24 18 19 21 18 18 20 17 16 14 14 13 13 14 15 16 17 16 17 17 18 19 20 21 24 27 31 37 39 39 45 54 57 57 48 46 44 40 34 27 26 32 30 30 36 38 39 33 22
21 17 16 19 24 18 15 15 14 14 14 15 15 16 18 20 21 22 22 21 20 20 20 21 22 24 25 25 47 86 87 60 58 55 53 51 48 42 36 36 33 31 32 39 44 43 32 17 7
15 21 25 21 16 17 18 18 18 17 17 17 18 17 18 22 25 24 26 27 27 25 24 23 23 25 26 31 39 43 54 63 66 66 62 53 46 41 39 34 34 34 39 46 40 26 10 8 10
25 30 19 18 17 15 15 15 16 16 15 14 14 16 21 28 29 32 35 35 32 30 29 27 28 30 31 31 35 53 66 74 68 59 50 48 45 41 40 38 39 43 47 34 21 9 10 13 23
29 19 18 18 15 14 16 16 16 15 15 14 15 18 20 25 28 32 34 35 35 36 34 33 32 35 39 39 51 64 72 68 61 58 59 55 48 48 40 42 47 47 31 16 10 11 13 30 36

GFSSGP_500_rhum_024.txt.gz
RH
13 14 10 9 16 15 31 52 48 53 71 75 67 82 90 92 66 67 71 82 95 74 94 96 93 87 53 35 24 22 6 5 6 7 8 8 8 9 10 11 12 12 12 12 12 12 14 15 15
17 18 18 24 34 50 82 19 28 51 67 78 78 87 86 86 84 70 87 94 94 95 96 93 67 56 48 32 29 22 5 5 7 7 8 7 7 8 8 10 11 10 11 12 13 12 11 12 12
27 22 28 39 64 77 98 34 30 64 68 81 99 95 92 90 88 89 86 77 95 96 96 96 73 45 57 43 34 8 5 7 6 8 8 7 7 7 8 10 10 10 13 14 10 9 10 12 12
39 39 37 61 77 79 76 59 71 70 80 84 98 95 97 96 97 86 96 94 97 97 94 94 62 73 60 38 19 6 6 8 8 8 8 7 6 7 9 9 10 13 14 10 10 10 12 13 16
62 62 66 75 75 79 69 69 78 88 85 99 95 99 96 97 96 97 96 93 95 96 96 94 84 90 62 50 10 6 8 8 7 6 6 6 6 8 8 9 14 14 11 27 26 12 14 14 13
76 58 65 79 76 86 79 57 76 85 78 95 93 96 96 96 94 91 92 92 89 91 91 96 92 83 81 16 6 6 6 6 6 5 5 6 8 8 8 14 15 15 24 42 39 21 14 22 19
73 57 57 74 77 85 94 67 62 65 89 94 96 96 95 95 88 84 87 93 92 87 74 87 56 54 49 7 5 7 8 7 6 6 6 7 7 9 13 18 30 43 49 48 45 35 16 20 30
76 60 52 54 97 77 87 84 69 94 97 96 97 92 93 93 43 66 74 53 56 32 43 52 43 32 13 6 7 8 7 6 6 6 7 8 12 16 21 63 70 67 60 52 44 44 46 41 33
79 63 43 50 71 88 96 97 94 97 97 97 95 47 42 67 31 21 47 41 41 47 24 15 12 8 8 7 7 7 6 6 7 9 14 17 21 20 46 75 63 58 61 57 49 48 47 52 40
82 61 38 61 88 98 97 94 95 97 97 96 62 17 20 16 9 11 12 13 18 16 13 9 8 12 7 6 6 7 9 10 13 17 20 22 31 35 48 75 67 54 53 60 57 46 42 45 53
67 50 46 100 92 86 94 95 96 96 97 88 23 15 13 26 12 21 13 11 16 9 8 8 8 7 6 8 9 14 16 17 22 38 43 47 60 67 68 58 43 41 44 42 41 42 52 45 46
60 42 75 82 92 97 93 66 53 13 27 12 14 17 10 17 12 8 11 10 10 11 12 14 13 13 15 16 16 16 22 35 50 60 65 76 81 86 71 62 56 45 42 35 42 40 41 40 38
56 91 79 92 91 96 57 39 35 36 15 7 9 10 11 13 18 21 20 20 16 17 18 19 20 22 22 20 26 31 38 41 57 63 76 88 89 82 87 89 74 62 53 47 45 38 32 34 40
89 100 97 96 94 99 41 41 27 25 15 13 16 19 20 23 22 22 24 24 22 18 18 17 27 41 60 63 64 68 81 89 95 96 98 99 98 95 92 77 57 72 70 62 54 55 50 53 56
92 96 99 96 99 85 49 19 20 15 19 19 21 20 21 21 24 25 26 31 30 30 29 26 30 46 83 89 78 76 87 99 98 99 99 98 98 100 100 84 64 61 69 70 60 66 69 64 63
95 92 94 86 93 47 43 27 14 20 33 31 30 28 27 26 23 25 28 25 31 38 47 59 72 97 96 98 97 95 98 98 97 97 95 93 82 83 79 76 66 66 71 71 74 73 64 52 36
93 82 81 62 70 46 24 44 37 33 48 48 45 35 30 27 27 28 35 47 57 63 71 72 82 81 82 91 97 98 95 94 92 94 86 81 78 88 79 77 80 80 85 84 77 63 42 28 25
84 72 62 57 66 35 28 71 90 54 46 76 55 42 30 26 27 27 32 40 55 66 66 66 74 81 96 96 90 62 40 65 80 76 69 70 73 79 88 94 84 64 49 42 38 33 31 34 36
92 93 70 42 38 25 27 84 88 84 78 79 61 44 35 26 23 22 29 46 37 39 48 63 84 93 96 80 63 45 73 87 84 81 71 59 66 64 55 47 44 45 46 52 54 56 55 52 38
69 79 98 73 51 33 34 48 59 77 72 60 33 31 29 25 22 20 23 26 33 43 46 61 62 69 66 57 41 57 95 88 63 52 48 53 57 59 67 78 80 78 74 67 62 53 41 34 28
75 66 92 96 51 52 46 44 36 32 27 25 22 22 23 22 21 23 29 37 48 49 60 79 81 79 48 27 26 29 53 38 39 53 67 66 62 63 67 74 74 65 58 51 41 36 32 27 20
77 68 82 95 89 100 78 91 35 27 25 25 23 21 22 27 28 32 43 56 49 41 65 58 36 22 18 19 21 24 24 24 29 60 90 75 68 63 61 61 57 52 46 41 38 33 30 28 26
71 54 54 40 84 80 52 39 68 28 22 22 22 25 28 28 38 53 56 35 22 18 17 16 16 17 18 20 20 21 22 27 35 54 64 67 58 62 62 57 51 49 45 39 35 30 26 29 29
68 66 96 88 82 66 42 32 67 17 22 21 21 20 22 35 40 34 21 17 15 17 17 18 18 19 19 19 19 20 21 26 29 42 60 78 91 61 58 56 54 47 43 34 30 34 35 31 26
54 83 56 37 34 30 19 20 17 18 18 16 18 22 22 21 18 16 16 17 18 20 21 20 20 20 19 18 19 20 22 26 28 35 52 66 66 69 68 60 49 44 36 35 40 38 29 28 27
67 76 49 29 19 22 19 18 21 20 17 14 14 14 14 15 16 18 20 21 25 27 28 26 25 24 23 23 23 25 28 29 30 34 43 57 65 65 57 49 47 43 49 51 35 29 28 27 27
35 33 25 25 18 18 22 18 14 14 14 14 15 17 18 18 21 23 23 29 31 31 32 31 31 30 30 30 31 33 34 36 35 33 48 63 66 57 52 53 51 56 51 32 30 32 29 22 10
25 23 20 16 20 18 18 15 17 16 16 16 17 16 15 16 23 25 26 28 29 27 31 34 36 36 36 36 37 40 42 43 42 45 61 68 68 63 58 57 63 45 33 34 36 30 19 8 7
14 15 21 25 18 17 18 17 15 16 16 15 14 14 16 18 20 20 20 20 23 24 27 33 40 42 42 42 42 42 45 47 52 58 70 72 69 66 69 66 46 36 36 39 31 17 7 7 11
19 23 29 18 19 16 14 15 17 17 17 17 17 17 17 17 17 18 18 18 20 21 23 29 40 45 47 47 42 46 51 62 62 68 74 78 79 76 64 50 42 42 40 34 15 7 7 11 12

GFSSGP_500_rhum_027.txt.gz
RH
13 11 11 12 13 10 32 88 85 45 13 22 43 77 79 100 94 91 75 85 96 71 52 53 73 93 95 75 45 28 22 10 4 5 7 8 9 9 9 10 11 10 10 11 11 8 5 6 6
20 16 16 18 17 80 71 85 59 27 44 40 62 68 76 80 78 81 96 98 97 96 93 90 95 96 78 53 50 31 25 6 5 6 7 8 8 8 8 10 10 9 10 11 10 8 6 7 9
34 26 26 27 33 79 79 93 42 23 71 23 61 84 75 87 88 80 86 97 97 96 95 96 97 94 63 69 63 32 13 6 6 7 8 8 7 7 8 9 9 9 11 11 9 18 16 8 10
60 58 35 36 86 85 91 52 48 85 40 51 69 77 95 85 85 86 86 92 94 96 99 96 96 95 75 78 64 23 6 6 8 8 8 8 7 7 8 8 9 10 11 11 12 38 32 11 12
64 51 54 61 85 94 82 44 97 61 63 72 76 64 100 98 89 90 82 93 95 97 97 95 96 96 95 97 81 8 6 9 8 7 8 7 6 7 8 9 9 11 13 14 24 40 40 23 15
55 48 70 79 81 92 84 92 85 46 94 85 78 80 86 93 87 95 95 90 97 97 96 92 96 96 96 96 67 7 7 8 7 7 6 6 6 8 8 8 9 13 16 45 52 45 41 35 22
63 74 63 74 97 89 94 74 96 50 76 96 76 85 93 95 84 82 84 94 98 95 94 94 96 97 97 81 19 6 6 6 5 5 5 6 7 8 7 8 12 18 38 48 50 54 42 36 34
73 73 68 79 92 85 92 70 70 68 86 80 83 93 93 94 86 86 90 91 94 97 95 92 99 92 48 18 6 6 5 5 5 5 5 6 6 7 9 14 18 32 50 50 44 38 46 31 27
77 71 72 86 69 93 50 63 64 68 73 87 73 100 92 86 78 74 92 97 96 96 95 99 90 72 20 10 6 6 5 4 4 5 7 7 9 12 17 22 25 38 56 48 40 34 42 44 31
79 74 75 93 73 70 95 57 54 65 87 99 86 77 68 34 58 74 66 90 98 87 82 69 83 76 21 6 6 7 6 7 9 12 18 20 25 34 39 40 52 64 53 43 42 42 45 38 31
72 89 100 84 60 73 84 69 64 65 84 98 87 65 72 28 15 44 40 47 40 37 10 9 20 12 10 9 12 12 15 16 21 33 38 49 56 50 60 67 73 69 58 58 59 46 40 35 36
65 91 77 69 88 87 78 77 60 79 96 94 66 46 28 21 17 27 23 14 12 8 8 10 14 16 15 15 16 18 19 22 35 49 58 68 67 73 90 91 88 78 62 50 47 48 43 41 41
66 90 62 51 90 86 95 92 88 96 24 16 15 9 8 14 14 14 15 14 15 15 16 16 16 17 18 18 20 24 41 66 68 82 96 99 98 96 99 82 68 72 61 50 54 51 57 55 47
83 73 84 70 94 89 75 91 94 27 8 12 20 17 16 17 19 20 21 20 21 20 18 19 20 25 34 49 62 73 71 80 92 98 100 98 94 97 98 95 97 96 84 64 52 44 48 51 55
98 89 99 98 96 89 95 50 52 22 28 36 25 21 22 21 19 19 21 23 25 27 26 31 33 42 66 81 81 90 100 97 99 99 100 97 94 97 98 88 92 90 83 60 57 51 58 60 63
95 96 100 96 97 72 81 86 14 32 30 25 22 24 25 20 21 24 28 40 45 44 43 51 64 71 72 74 77 83 98 98 95 94 88 75 80 77 74 64 62 67 68 71 73 67 60 59 51
96 99 97 89 92 49 100 94 26 29 31 36 33 30 27 27 24 25 28 48 58 61 68 68 61 61 57 71 89 97 95 84 58 59 68 67 69 72 67 67 71 70 64 56 51 48 45 45 45
96 94 87 91 81 97 75 74 22 44 52 67 58 49 40 31 35 32 32 28 32 44 51 43 40 40 56 66 85 89 66 47 26 28 30 37 49 59 61 60 58 54 48 45 49 55 63 59 56
97 100 78 69 55 73 79 55 26 53 55 85 84 64 50 43 36 27 26 30 37 34 29 31 29 45 58 62 64 62 29 16 20 21 23 35 45 60 59 50 53 64 73 71 77 73 66 59 53
97 92 94 54 37 35 19 56 89 98 99 90 73 45 39 38 43 40 29 24 24 28 36 33 27 35 58 57 33 17 16 18 20 24 28 31 32 44 61 87 93 90 87 71 68 61 58 53 43
98 96 99 94 50 39 76 100 41 37 44 37 33 36 36 36 38 33 27 31 35 34 38 41 42 63 37 17 16 17 17 18 19 20 19 20 25 35 49 65 86 98 87 64 64 59 49 39 35
100 68 80 83 49 79 55 88 98 48 26 30 42 35 29 29 27 30 30 32 35 29 26 19 33 18 16 17 18 18 18 18 18 18 18 17 21 26 41 48 56 56 62 66 64 54 46 46 46
97 74 66 75 50 98 92 70 90 94 72 38 34 25 21 26 28 26 29 34 27 17 17 16 17 18 19 20 20 20 22 26 27 25 25 23 24 27 29 35 47 60 70 70 59 55 56 55 48
77 69 48 51 87 82 71 98 88 83 68 37 28 21 22 24 22 23 28 18 15 16 18 22 23 23 23 24 24 25 28 30 31 31 32 32 34 34 34 36 54 66 68 61 60 57 56 49 40
64 73 94 91 99 78 86 65 75 85 54 31 18 17 16 16 20 18 15 15 17 22 25 27 26 25 25 27 29 31 32 33 34 36 37 40 43 45 43 53 68 71 68 68 64 57 46 39 33
60 100 99 93 89 79 76 30 62 27 19 16 16 16 15 14 14 15 18 19 21 26 24 20 19 22 25 31 34 35 37 38 40 40 42 45 48 50 52 59 71 72 72 66 58 54 43 36 24
64 55 54 62 37 21 20 56 28 16 14 14 14 14 16 17 16 20 22 22 22 20 18 18 18 19 24 28 37 41 42 42 43 50 46 48 50 54 53 67 76 76 70 62 54 52 36 28 17
35 29 30 28 24 19 74 67 80 18 16 16 15 16 16 14 14 16 18 17 17 17 17 18 19 20 24 27 35 41 45 49 92 57 52 52 54 56 58 80 83 82 72 60 47 30 19 14 16
26 24 22 21 30 26 22 59 41 17 15 15 15 14 14 15 15 16 17 18 19 19 20 20 21 22 26 26 26 27 35 52 62 60 56 51 51 53 71 89 90 79 63 63 41 42 32 19 11
13 12 14 16 26 21 18 25 17 14 15 16 16 17 17 18 18 19 20 21 21 21 22 23 23 24 25 27 28 30 35 46 53 59 55 50 53 73 93 97 88 66 64 67 82 47 17 14 9

GFSSGP_500_rhum_030.txt.gz
RH
12 15 14 15 13 10 8 9 94 87 60 40 16 56 37 32 72 90 90 96 96 93 90 80 94 87 62 67 95 92 67 29 20 8 4 7 9 9 9 9 10 9 9 10 10 9 9 8 6
16 18 18 16 12 12 32 73 99 30 44 24 31 36 22 31 70 82 77 69 81 87 98 98 97 90 82 93 97 92 49 29 21 6 5 7 9 8 8 9 9 9 9 10 11 9 29 28 9
27 33 22 28 15 12 74 92 90 63 37 24 21 30 41 26 60 54 60 58 69 86 91 95 95 98 96 96 97 79 61 29 11 5 6 7 8 7 7 9 8 8 9 10 11 11 22 31 28
51 45 41 29 18 59 96 65 52 92 60 42 31 19 16 15 48 56 63 73 74 78 92 96 94 95 97 97 94 95 63 12 5 7 7 8 7 6 8 8 8 8 9 11 13 20 27 36 34
66 61 57 37 35 83 88 45 47 69 30 70 44 65 41 45 61 52 62 68 82 93 93 99 97 98 96 97 96 92 31 6 7 9 8 8 7 6 7 8 8 8 8 11 12 34 45 44 32
79 72 62 63 70 79 82 36 43 27 65 59 87 59 53 64 63 68 64 67 90 98 98 97 97 96 97 96 96 89 30 15 12 7 7 7 6 7 7 8 8 8 9 13 15 29 32 39 44
78 78 63 66 88 91 88 60 43 47 97 62 49 48 53 58 60 61 77 92 92 98 97 96 96 96 96 96 96 80 34 10 7 8 12 6 6 7 7 7 7 9 12 15 18 31 37 40 34
82 76 68 68 75 100 95 100 77 57 69 66 78 74 72 75 54 57 79 94 91 98 97 96 96 96 94 92 82 81 67 44 30 21 5 5 5 6 7 8 14 18 26 27 34 47 38 36 37
81 67 61 61 69 84 86 81 96 52 38 62 73 62 78 94 81 80 90 99 97 96 96 96 96 96 84 40 10 7 6 5 5 5 5 8 11 13 19 26 33 36 42 52 59 44 45 45 42
74 76 65 93 85 95 66 91 97 78 64 52 63 67 83 77 83 90 92 97 96 96 96 96 94 84 48 8 5 6 7 8 11 14 15 33 31 37 50 52 62 63 68 73 59 52 47 46 45
76 79 94 98 87 84 89 94 60 61 63 78 86 87 85 91 94 90 96 94 95 92 19 38 37 14 9 10 9 11 12 16 23 42 28 60 60 69 66 85 87 88 86 73 59 48 46 40 36
73 82 83 99 79 84 81 87 61 64 98 97 92 95 73 61 44 90 79 76 29 9 8 10 12 13 15 14 16 14 18 30 36 82 96 88 96 91 84 90 90 88 88 65 53 50 41 43 40
72 92 91 91 68 82 94 69 61 99 93 96 90 41 20 15 13 23 29 31 11 14 16 16 16 18 18 22 34 56 69 92 98 93 93 86 89 95 84 84 71 81 77 64 62 50 50 47 43
69 73 99 65 84 56 88 87 78 88 74 84 16 14 14 9 9 6 8 13 17 18 18 19 21 24 33 56 78 97 89 92 98 98 97 99 86 72 64 67 76 70 48 45 51 46 63 80 47
91 68 71 56 63 78 98 97 80 60 40 36 24 17 19 14 12 13 14 16 16 15 19 32 42 61 79 80 83 82 99 99 84 95 92 54 30 21 24 24 39 48 53 51 60 60 44 40 39
82 95 79 84 97 63 87 71 36 52 30 23 18 25 33 28 21 15 17 19 20 25 30 41 41 58 52 66 62 72 93 97 84 60 34 18 13 17 21 32 45 47 50 48 46 48 45 45 46
92 96 96 87 95 97 85 58 17 22 23 26 20 21 20 19 17 17 17 16 18 19 25 43 51 48 48 57 65 74 84 89 63 28 17 14 15 17 19 22 28 28 30 34 42 50 70 76 58
94 93 99 96 79 98 96 95 35 35 39 26 29 26 19 17 21 22 20 21 20 29 38 43 35 30 34 32 35 55 62 43 16 16 16 15 16 17 18 19 20 28 40 47 52 72 90 81 61
86 98 99 91 64 86 96 97 50 14 35 34 46 44 26 23 26 27 27 27 20 16 13 13 21 24 27 38 54 51 21 15 17 17 18 20 21 22 21 20 21 25 36 46 48 46 50 64 68
99 96 99 72 26 63 95 94 24 12 31 43 44 29 23 23 27 28 24 19 13 14 12 20 30 35 31 48 27 16 16 16 17 19 23 26 27 27 28 28 29 31 34 35 34 40 49 62 69
99 99 93 90 48 20 86 42 47 23 30 37 30 25 22 20 22 19 17 18 20 22 19 21 29 20 32 30 17 18 18 20 21 22 26 28 29 31 34 36 37 38 37 37 34 39 54 59 67
88 76 98 96 94 27 61 99 96 82 37 24 27 23 22 20 18 20 19 26 23 25 23 23 16 19 21 19 20 19 19 19 19 22 28 30 34 38 40 41 43 43 43 37 32 41 62 66 63
95 80 75 87 92 81 97 93 86 92 85 66 74 54 35 26 18 16 16 25 22 21 20 16 17 21 23 22 21 20 17 17 21 25 30 34 37 43 44 46 47 41 39 34 31 56 71 76 71
71 54 32 58 95 89 95 97 93 99 98 97 91 76 36 26 18 15 13 16 17 15 15 19 24 24 22 21 20 20 22 22 26 30 35 41 43 46 50 50 48 47 41 37 48 72 81 78 66
41 61 79 95 98 69 95 83 99 92 92 59 17 23 24 13 14 16 16 13 14 16 19 23 21 19 18 18 19 20 20 24 26 32 36 43 47 59 60 55 52 50 43 51 66 84 85 77 67
48 58 75 98 85 96 93 83 72 53 40 58 21 17 15 14 13 13 14 18 20 21 22 21 18 17 17 18 20 22 23 25 25 28 29 30 33 95 87 57 56 49 52 62 75 78 79 70 53
91 54 78 95 43 31 33 35 32 46 27 15 14 14 14 15 17 16 14 15 17 18 17 17 17 18 19 20 21 22 24 25 27 28 30 31 84 70 56 60 52 57 69 74 76 85 71 48 44
35 36 28 29 22 16 73 85 95 80 57 17 16 15 15 16 14 14 14 16 17 17 18 20 20 20 22 23 24 25 26 27 29 30 32 100 55 54 66 58 64 79 75 75 78 66 41 40 39
31 29 22 24 28 17 29 91 88 61 33 17 15 14 14 14 15 16 16 16 18 19 20 21 20 19 25 28 29 28 30 30 31 32 38 52 59 67 62 72 78 75 74 79 73 64 60 61 86
25 25 17 14 13 12 19 31 56 46 22 14 14 16 14 15 15 16 18 18 19 19 19 21 28 31 33 32 31 32 33 33 34 45 52 93 74 76 81 80 75 73 78 81 76 72 82 89 91

GFSSGP_500_rhum_033.txt.gz
RH
16 20 15 16 17 12 13 26 26 32 23 42 88 79 75 74 88 75 26 55 80 76 97 96 97 95 96 92 98 97 81 93 92 66 15 7 7 8 10 11 10 10 9 9 9 8 7 24 23
18 29 28 15 11 11 24 20 54 50 30 70 72 52 59 66 57 36 13 15 48 65 86 92 95 92 97 96 97 96 97 96 90 58 20 6 8 9 10 8 10 9 8 8 8 9 10 15 21
27 29 24 14 10 11 58 51 44 78 81 61 47 34 26 29 41 52 39 55 44 50 78 78 88 92 97 96 96 97 97 95 92 55 15 7 7 9 8 7 9 8 8 8 10 10 12 28 33
29 42 31 21 20 52 75 67 84 77 57 64 36 68 51 40 35 41 20 31 71 75 77 99 94 93 95 97 97 97 96 90 85 41 7 7 7 8 7 7 7 8 8 8 9 12 15 26 32
46 56 42 24 34 85 82 97 62 60 57 65 64 33 55 43 50 26 29 46 76 73 76 77 89 95 98 98 98 97 97 97 78 34 13 8 8 7 7 18 9 8 8 8 9 13 17 25 30
59 48 43 48 82 90 81 50 48 47 44 54 40 77 83 66 48 51 58 77 88 88 67 75 89 100 97 99 98 96 96 95 50 17 10 13 10 25 27 10 7 8 7 10 15 20 22 34 37
68 74 72 55 53 97 85 66 75 73 61 46 65 56 43 46 60 52 64 97 98 65 85 71 96 98 97 96 94 95 96 78 71 50 35 21 34 14 6 6 7 10 15 20 25 32 36 43 39
82 90 67 53 88 92 90 84 80 89 67 60 46 51 41 76 89 72 66 96 95 96 96 96 96 96 96 95 94 96 90 56 38 42 43 12 8 6 6 13 15 25 38 50 49 55 54 50 48
76 87 62 84 79 78 93 93 98 91 97 74 56 28 33 65 96 80 87 78 99 98 100 97 97 97 95 96 85 58 54 50 41 22 9 10 14 18 25 33 38 40 58 67 73 71 57 52 42
76 79 74 82 100 98 97 97 93 71 91 82 67 63 75 70 94 90 91 96 92 97 96 96 94 92 74 62 35 18 6 7 9 9 11 17 24 35 50 52 57 62 76 77 65 63 61 51 50
62 66 98 97 89 78 71 59 84 82 91 64 96 87 97 91 89 98 97 97 96 96 95 96 90 20 10 10 9 8 11 12 12 17 37 52 66 72 63 64 65 61 57 64 60 73 66 53 60
57 87 98 91 96 46 49 76 68 70 66 53 78 79 87 94 97 97 97 96 93 87 70 60 49 34 15 12 13 15 17 27 54 68 71 82 67 64 65 58 52 48 55 60 59 64 37 42 36
72 95 98 95 69 95 76 55 37 78 75 71 86 100 98 95 90 93 95 58 49 66 56 31 18 13 13 18 32 46 60 71 80 82 81 93 67 49 47 22 43 33 31 51 54 20 20 28 21
75 96 93 98 87 99 84 72 72 91 94 90 93 95 75 65 38 36 25 7 9 9 13 16 17 24 35 44 54 78 70 94 68 75 55 54 34 21 14 16 16 16 16 19 22 24 27 27 42
100 100 98 78 90 78 87 96 91 62 58 28 22 13 13 29 12 23 9 12 17 17 21 27 33 34 39 41 52 58 70 72 86 93 52 22 16 16 18 17 18 18 20 22 24 31 33 32 33
87 69 74 64 65 79 87 96 82 66 25 18 24 32 23 19 19 15 17 19 19 21 25 33 30 36 43 45 45 44 48 44 54 55 19 16 17 18 19 22 22 22 20 22 22 25 24 26 22
98 70 66 85 79 91 94 72 38 26 39 36 20 17 18 24 19 16 13 18 21 20 40 29 27 35 40 40 48 52 58 58 42 16 17 18 20 24 26 26 27 28 29 30 30 31 29 28 25
67 90 97 97 94 83 67 53 40 39 28 26 17 16 23 17 13 13 11 14 22 17 29 43 35 20 30 31 47 58 64 22 17 18 20 22 25 26 28 30 32 35 37 38 38 36 34 32 28
98 98 99 87 100 76 84 76 48 48 10 11 10 11 21 20 30 18 10 9 15 18 13 13 23 18 44 22 40 49 16 18 19 20 22 22 24 24 28 32 38 41 40 41 44 41 38 38 29
91 91 94 84 73 78 94 58 54 38 17 23 21 24 24 30 22 18 10 11 13 13 13 12 23 23 16 23 45 19 19 20 21 20 23 24 24 26 27 32 37 41 42 46 46 43 44 37 30
95 95 86 100 74 41 98 90 88 30 24 20 20 17 16 23 20 17 17 13 12 12 28 34 91 22 23 20 21 20 21 21 20 23 24 22 22 24 27 32 39 44 47 49 46 44 46 38 37
59 90 90 64 87 23 59 82 70 58 61 69 39 25 17 11 18 25 18 15 12 24 33 43 20 16 20 22 23 20 19 20 20 20 20 20 21 23 26 29 30 32 42 69 65 46 48 44 47
100 96 92 85 96 90 37 58 60 94 94 98 69 56 33 9 15 26 32 17 16 18 25 38 16 20 23 21 18 18 18 17 18 18 20 21 22 22 23 24 25 28 38 86 59 48 48 55 58
78 80 73 69 66 80 60 86 93 90 93 81 86 50 40 17 21 43 22 20 20 22 14 16 19 23 21 18 16 16 17 18 19 20 21 21 22 22 23 26 29 32 84 71 49 52 58 61 55
50 55 32 27 54 57 98 84 99 91 74 42 31 43 30 16 19 24 15 15 25 16 19 19 20 20 17 16 18 18 20 20 21 21 23 25 25 26 27 29 54 88 63 55 57 63 70 64 71
41 72 90 75 88 62 96 74 75 85 62 25 17 20 14 14 14 14 15 17 17 17 17 16 16 16 18 20 20 20 20 20 24 27 29 29 31 31 33 38 74 85 69 58 65 77 70 67 73
66 77 57 65 86 47 67 47 50 26 38 75 28 16 15 16 17 18 16 14 14 15 16 16 16 18 20 21 20 21 24 31 32 32 31 32 35 38 46 53 88 100 97 61 81 79 81 81 85
55 100 78 51 31 16 21 47 74 68 100 75 27 17 16 16 15 14 13 14 15 16 18 18 18 18 19 24 32 35 36 36 34 34 38 43 47 71 63 62 63 63 66 73 77 76 77 72 65
45 48 49 32 24 18 19 80 92 97 90 66 33 17 15 14 15 14 14 15 16 19 20 20 19 19 26 32 38 40 38 39 48 46 47 56 64 100 82 68 60 76 79 71 77 69 76 64 67
33 29 50 27 28 17 11 20 76 98 70 68 42 16 12 12 14 15 16 18 20 20 24 29 29 29 29 36 45 49 54 61 59 58 56 65 72 93 68 60 73 74 72 72 77 71 92 100 100

GFSSGP_500_rhum_036.txt.gz
RH
16 16 12 10 17 12 18 36 27 21 26 38 46 74 93 96 81 63 55 40 57 43 49 84 86 97 95 78 86 95 97 97 98 96 96 80 13 8 9 10 11 10 10 9 8 7 7 6 8
12 13 12 9 14 22 35 41 31 27 18 17 28 54 69 92 93 69 54 42 41 44 33 31 43 84 75 79 79 90 91 98 98 96 96 71 17 12 25 12 10 9 10 8 8 8 8 8 8
9 12 12 9 14 34 44 51 66 30 16 32 33 34 67 73 72 86 54 34 51 62 61 72 68 72 67 79 98 90 90 97 100 96 96 89 56 36 11 18 8 8 8 8 8 9 11 13 15
10 11 14 16 24 49 63 57 69 41 34 59 62 67 68 74 63 49 42 39 56 67 54 44 76 82 90 93 90 96 96 98 100 99 97 84 26 24 22 12 8 8 7 8 8 8 10 13 16
11 17 17 29 50 92 75 76 57 47 44 57 60 64 74 56 47 52 49 49 47 41 52 55 80 90 96 97 98 99 98 99 100 97 85 47 21 19 29 16 7 7 7 8 8 12 18 24 23
23 35 45 54 89 72 53 47 42 61 86 73 68 46 58 48 57 74 64 80 78 69 72 91 94 95 100 89 98 98 97 99 97 94 85 47 63 48 18 11 11 6 7 10 14 17 25 34 41
69 55 74 62 94 82 70 58 81 96 79 72 64 39 49 54 50 49 61 92 89 98 95 95 84 82 95 89 98 98 97 96 88 33 20 18 14 20 29 14 12 18 10 16 26 36 44 48 51
85 70 76 76 77 69 49 69 97 95 96 96 81 66 66 61 54 66 94 96 96 96 96 96 98 91 99 96 97 95 95 94 92 78 61 23 54 37 30 28 9 9 17 24 43 56 62 60 56
81 92 83 92 78 71 76 75 90 97 94 89 75 93 69 64 60 89 96 92 88 97 97 96 96 96 96 96 93 95 96 91 79 69 66 69 35 17 9 16 34 50 56 54 57 65 59 54 55
98 84 88 84 92 74 64 72 81 91 92 75 91 84 64 70 81 79 92 83 75 96 96 96 97 97 96 93 88 67 66 48 26 16 12 10 13 22 30 39 60 52 47 43 46 50 60 65 69
97 72 96 91 88 75 62 55 62 51 60 61 71 59 65 96 98 97 94 90 100 94 100 96 95 92 64 28 16 12 9 8 11 14 17 47 62 68 55 48 57 53 50 42 46 50 55 58 67
60 89 99 91 80 61 71 62 78 70 55 65 49 47 78 77 97 96 96 98 97 97 95 93 91 68 46 24 22 28 16 16 29 64 70 65 61 49 44 31 47 20 28 17 26 24 34 45 22
67 85 94 82 54 65 94 93 70 75 72 66 64 52 72 89 98 94 90 88 82 87 89 89 70 53 34 23 30 40 55 57 62 64 67 55 56 61 23 14 13 14 14 15 16 15 14 15 16
84 86 88 75 86 91 96 92 84 88 75 81 92 92 88 98 91 70 29 17 21 31 38 48 59 39 35 34 38 46 54 55 62 60 62 67 33 16 15 14 16 19 18 19 19 18 20 22 23
88 94 100 92 72 71 70 84 97 86 64 41 30 27 44 93 26 16 18 17 17 18 17 21 22 28 34 40 40 39 48 62 43 72 73 32 14 15 17 21 21 21 21 21 21 24 25 29 29
67 86 95 81 66 72 71 78 89 53 38 25 31 34 59 31 25 19 20 18 18 20 19 17 21 22 34 43 42 42 47 46 45 44 23 15 16 19 19 21 24 26 26 26 27 30 36 39 38
63 70 86 99 91 86 90 77 72 56 30 34 22 20 27 33 24 21 20 17 22 23 37 29 35 20 20 27 24 45 50 61 24 14 15 16 20 22 22 23 25 28 30 32 37 41 41 44 45
79 67 51 89 94 94 67 42 60 39 28 26 17 26 24 17 15 23 30 26 16 19 14 13 16 23 21 43 22 25 49 18 16 17 20 20 20 20 22 26 29 30 31 36 39 46 49 53 49
66 77 83 94 100 99 96 70 50 26 17 15 18 15 29 29 16 21 30 30 24 15 12 13 18 32 28 18 31 44 18 19 20 20 18 18 19 21 26 25 28 30 28 30 34 41 57 68 80
72 92 80 89 84 45 72 98 82 21 10 20 29 20 18 33 16 17 21 20 20 20 23 43 53 73 20 20 23 22 20 20 21 19 18 19 20 23 25 28 27 28 27 27 28 31 34 48 88
94 81 76 75 91 69 77 71 90 15 28 21 19 29 23 25 22 15 18 17 15 16 30 44 63 48 19 20 22 21 20 23 21 20 20 21 21 22 24 25 26 26 27 29 30 33 43 72 100
81 64 61 61 100 59 53 59 51 34 22 42 61 46 14 23 36 29 27 35 18 30 32 53 54 44 21 22 24 21 23 21 19 20 20 21 22 23 25 26 28 30 30 31 39 72 79 100 62
82 84 83 66 83 34 66 88 76 80 44 62 84 73 40 28 21 22 54 46 45 39 43 34 38 37 22 24 25 22 20 18 20 21 21 20 20 24 28 30 30 29 30 32 37 84 100 100 80
77 97 79 87 100 91 84 38 39 82 98 74 88 46 36 33 52 20 30 39 38 22 73 58 45 32 23 24 20 18 20 21 21 20 19 20 25 29 30 30 30 34 36 42 48 51 75 83 89
94 82 89 92 74 61 66 52 51 94 59 44 52 64 34 15 17 32 19 15 16 22 54 42 31 20 18 18 20 21 21 20 19 19 22 25 29 31 32 39 44 46 53 62 60 59 56 57 58
71 52 60 53 41 47 79 71 89 79 86 63 34 19 17 15 15 16 22 17 16 30 28 28 26 18 18 20 20 19 18 17 17 19 22 27 32 41 46 48 51 67 62 86 85 62 59 66 57
73 52 59 64 46 62 80 75 64 57 41 27 42 18 17 17 17 20 17 15 14 39 18 17 18 18 19 20 20 20 19 17 21 27 32 37 46 53 53 58 60 67 73 95 92 68 76 73 72
51 61 88 79 61 63 44 30 34 30 35 76 64 26 18 16 16 16 16 16 17 17 17 18 19 20 22 25 29 39 51 52 53 52 53 59 58 56 54 55 57 58 68 66 64 86 86 79 73
74 41 69 84 68 38 23 35 34 63 84 79 61 55 32 15 15 17 18 18 19 20 20 19 19 21 30 50 66 78 84 85 85 75 64 59 58 54 56 62 62 62 61 70 94 95 76 83 82
54 44 47 50 55 41 20 20 31 54 49 50 39 37 19 17 15 16 16 18 20 21 21 19 26 43 51 59 80 93 98 100 89 84 86 60 56 64 62 56 53 61 73 84 86 84 95 100 100

GFSSGP_500_rhum_039.txt.gz
RH
10 9 19 23 22 17 10 23 68 64 58 54 55 85 61 53 46 53 56 56 60 59 50 54 55 39 47 86 96 88 69 91 91 94 97 96 94 84 21 14 8 11 11 9 9 6 7 7 7
10 8 13 21 20 17 20 41 58 55 38 32 36 64 64 70 79 60 64 74 74 68 61 57 56 50 37 42 60 64 70 89 95 100 99 100 97 83 19 9 14 39 11 11 8 8 8 10 13
10 8 12 15 18 34 64 72 50 47 47 61 56 48 73 63 70 71 76 77 72 66 60 44 48 62 69 70 72 57 82 84 96 99 99 99 86 36 21 27 52 17 24 8 8 8 8 9 12
9 9 12 24 63 78 60 52 36 26 46 64 71 55 53 42 79 82 73 58 60 61 58 52 55 68 77 59 84 84 86 100 99 98 99 96 94 85 70 36 20 29 8 7 8 8 8 11 16
11 12 19 56 70 56 40 45 25 25 45 63 67 77 74 65 69 80 47 52 63 63 63 60 61 59 51 74 88 92 98 98 93 97 97 97 73 25 42 37 33 25 8 8 13 9 9 12 15
16 22 66 66 67 52 41 40 31 23 44 71 67 74 66 66 74 62 52 58 69 86 98 89 76 96 54 54 95 92 97 98 97 97 96 83 72 49 13 25 39 14 19 7 10 12 12 11 24
19 49 75 83 80 76 85 56 68 62 59 80 92 75 58 48 63 60 54 55 62 80 89 91 97 76 57 96 96 97 97 98 97 97 89 74 49 50 53 45 15 28 31 27 19 12 32 49 47
44 90 84 85 86 98 100 100 94 76 95 83 83 86 63 52 55 58 66 72 77 96 95 96 94 98 78 96 96 97 98 97 96 76 30 24 28 29 24 29 36 40 40 15 34 53 42 41 42
85 95 88 92 83 100 100 83 84 73 79 95 95 83 63 67 60 57 62 80 97 96 96 97 96 95 96 97 96 95 98 97 91 84 57 50 33 46 57 48 41 27 36 50 47 47 42 47 49
96 95 97 90 99 98 96 80 66 67 68 73 64 64 83 82 73 81 85 85 81 95 95 97 97 96 96 96 97 98 96 92 84 71 55 52 52 29 24 37 60 64 63 57 50 53 39 52 50
95 97 95 98 100 86 92 70 49 51 49 68 77 81 74 87 95 96 95 90 91 90 87 97 96 96 96 96 96 93 90 73 39 22 18 24 38 62 76 72 52 50 62 40 19 14 18 18 13
93 92 96 95 88 82 75 55 51 52 68 63 83 84 62 67 79 93 96 94 82 81 98 94 97 95 93 73 39 35 21 14 14 31 74 65 68 65 59 53 34 15 13 12 12 12 15 17 17
97 100 98 98 89 79 70 84 82 63 66 66 89 76 65 81 83 95 96 88 91 94 96 87 93 74 77 75 46 28 37 61 70 75 73 78 57 55 50 27 14 15 16 17 17 18 19 18 17
98 97 98 98 85 70 59 89 78 72 72 67 86 93 99 99 96 97 90 76 71 84 71 80 85 86 78 75 74 64 71 71 79 66 64 80 81 29 14 14 18 20 17 18 19 18 18 17 16
99 99 99 92 77 71 89 75 65 71 53 36 25 22 66 82 48 26 23 23 22 24 34 40 36 45 52 43 41 43 51 54 45 34 60 77 40 14 15 17 16 16 17 19 19 20 22 21 21
97 83 71 88 71 65 62 63 87 63 36 25 34 39 57 70 56 25 20 24 28 34 35 32 32 30 38 36 32 26 37 47 45 38 33 18 15 15 16 17 19 18 18 20 19 19 20 21 22
69 94 73 83 65 58 81 92 83 77 42 25 25 25 34 28 19 17 19 26 24 30 34 29 35 23 17 18 25 25 44 49 59 19 15 16 16 17 19 19 18 18 18 20 20 21 23 23 24
85 83 73 72 75 52 66 61 59 51 36 27 24 27 26 27 22 18 18 18 18 16 16 13 13 14 16 27 30 21 50 46 16 17 17 18 18 18 17 18 18 19 20 21 22 24 25 27 28
91 72 62 57 52 80 73 91 84 50 28 23 28 35 35 27 32 24 16 14 14 15 25 23 30 32 41 17 36 47 20 18 19 19 19 17 17 18 18 20 20 21 21 23 25 28 28 30 34
75 84 98 89 90 87 80 85 75 45 17 15 17 21 33 30 25 28 25 18 14 13 20 39 55 60 20 22 22 20 19 19 17 17 17 16 18 20 21 21 20 19 24 28 29 31 33 34 35
53 82 98 100 68 76 75 81 57 32 13 19 31 25 26 28 19 26 29 30 25 19 30 42 53 64 32 23 21 21 20 20 18 16 17 19 21 22 21 20 23 28 31 33 34 35 37 44 54
98 83 91 91 84 86 64 58 69 40 14 32 62 75 55 24 30 40 35 55 63 55 53 44 57 73 60 36 26 23 24 21 17 18 20 21 21 20 21 26 31 33 35 39 44 46 52 67 73
93 69 76 58 52 64 72 29 17 25 26 24 50 75 87 55 25 21 46 64 71 87 65 54 70 92 58 41 26 21 33 17 18 20 20 20 19 21 26 33 37 40 46 48 51 70 62 67 66
72 68 68 65 70 65 50 57 44 29 50 59 58 50 27 42 45 71 65 82 91 83 56 93 86 74 38 45 19 18 28 23 36 30 22 22 23 26 30 35 41 50 50 59 65 80 61 54 66
79 74 67 67 85 70 83 74 53 47 60 45 38 34 16 22 14 45 44 74 87 66 65 90 50 53 41 33 17 23 31 35 55 41 38 31 40 44 44 51 54 56 55 80 55 56 58 61 65
69 65 56 49 52 60 63 40 38 59 71 71 65 21 17 14 15 25 42 59 71 76 82 90 42 30 31 22 21 21 24 22 50 72 68 66 47 54 70 47 52 62 60 54 62 56 54 84 61
86 79 59 50 44 40 39 59 58 66 94 72 42 24 17 17 16 16 17 18 23 55 67 46 24 25 26 24 22 19 20 36 69 85 89 55 61 72 74 82 72 55 55 56 55 56 60 61 68
89 81 63 52 55 55 52 64 63 67 68 39 31 43 18 17 16 16 15 16 15 31 20 20 20 23 23 20 19 30 58 50 80 77 56 68 82 86 91 86 74 66 59 60 63 67 71 72 76
88 88 79 47 66 76 52 48 31 26 22 26 57 67 27 26 19 15 16 15 15 18 21 22 22 22 24 27 36 38 75 80 75 78 82 74 77 85 94 93 76 62 58 71 74 86 90 99 100
69 78 80 60 47 58 43 31 23 26 30 26 41 76 63 46 37 18 15 16 18 20 21 22 22 21 22 27 45 64 86 93 85 79 84 81 91 99 98 92 99 88 82 84 85 89 100 100 92

GFSSGP_500_rhum_042.txt.gz
RH
13 14 12 10 21 24 22 22 50 88 91 99 94 94 91 88 73 67 59 74 84 79 64 59 58 55 54 62 56 50 53 67 57 69 88 91 91 89 96 69 24 9 12 21 14 10 8 8 8
11 12 11 10 17 26 32 44 57 40 64 79 88 90 86 88 82 64 55 43 39 47 64 68 60 57 56 52 49 54 40 51 51 77 83 90 94 89 90 57 16 11 39 28 10 10 8 8 8
11 12 11 10 12 30 42 50 38 24 32 67 67 61 65 62 66 54 53 67 67 66 70 67 59 55 56 62 61 66 69 68 71 94 94 94 93 97 76 28 10 15 27 15 17 8 8 9 8
12 14 12 13 20 36 45 43 38 33 37 62 53 65 67 49 62 51 65 52 59 63 68 72 61 62 52 57 66 75 86 75 81 92 98 98 97 96 78 52 44 39 19 32 14 7 16 31 8
13 16 16 14 32 44 54 68 56 49 42 57 58 73 74 69 61 44 42 58 82 85 75 73 78 81 76 65 91 92 59 98 99 90 95 97 99 99 95 61 31 20 40 34 10 27 18 9 13
18 18 17 23 43 72 67 61 46 38 43 36 58 76 81 82 70 57 67 67 70 71 88 96 95 91 95 97 84 88 75 83 83 86 97 96 96 80 53 47 28 31 25 20 35 27 26 20 20
22 21 31 81 88 76 69 61 78 76 49 67 71 89 88 80 71 63 70 87 69 77 92 96 96 95 96 86 95 87 86 87 85 96 95 96 97 81 56 21 26 36 41 20 35 44 39 34 39
21 29 86 99 77 66 82 79 78 74 93 87 97 99 91 81 70 66 59 71 65 73 86 95 90 96 87 96 94 93 94 96 97 98 98 93 62 57 48 54 40 33 45 38 38 42 45 49 41
28 98 100 95 76 76 90 82 80 88 86 98 96 88 87 89 80 68 51 56 53 63 95 96 96 95 97 98 97 96 96 98 99 98 86 48 27 49 46 47 47 40 42 44 50 45 50 41 28
64 100 83 98 96 83 94 95 83 84 74 81 93 86 91 89 75 58 47 47 44 56 84 96 97 97 97 98 95 94 96 99 95 62 44 74 87 73 71 51 26 53 73 76 72 61 22 9 10
77 99 88 97 97 86 90 92 86 64 85 81 86 79 76 78 78 74 66 63 70 82 93 93 95 97 97 96 97 96 97 98 91 86 75 57 47 35 29 45 87 81 50 22 49 19 13 14 14
100 100 100 100 93 90 90 93 84 65 68 55 65 90 78 73 69 76 72 63 85 85 71 86 97 97 97 96 96 90 91 91 70 44 41 58 83 90 94 77 72 29 14 13 15 17 16 16 16
100 98 97 98 99 90 84 93 99 80 64 64 92 88 81 76 83 92 97 90 94 82 84 95 98 96 95 93 87 83 70 54 46 46 66 93 75 64 58 41 25 15 15 17 17 16 15 15 16
98 88 93 98 100 84 78 95 97 92 47 59 54 61 88 94 95 93 86 81 92 72 62 80 86 80 72 51 53 52 73 82 89 88 78 73 81 77 34 14 15 16 14 16 14 13 15 16 17
100 100 81 87 90 85 62 81 82 94 71 29 33 64 71 42 41 75 38 40 46 66 62 83 86 81 79 75 78 77 80 80 72 58 39 60 64 36 15 17 17 16 15 14 15 17 18 17 16
84 94 98 89 69 76 72 83 74 76 41 28 47 54 66 53 63 33 29 33 42 50 52 44 47 54 55 55 55 45 38 36 46 53 50 38 22 15 17 18 18 16 16 17 18 17 17 15 15
76 72 98 86 68 65 61 64 85 65 36 23 29 44 42 48 39 35 40 43 44 49 51 44 30 26 28 26 23 20 20 47 56 51 20 15 17 17 18 17 16 16 17 17 17 14 15 16 19
90 84 73 100 68 66 63 61 57 47 48 32 24 27 35 25 31 33 32 32 38 43 25 20 16 18 17 17 23 26 18 49 36 14 17 17 17 18 16 16 16 16 17 17 16 16 18 24 27
96 97 68 77 74 71 55 54 49 60 44 38 34 31 26 27 26 25 22 19 17 20 18 22 31 29 25 26 15 37 36 18 16 16 18 17 17 15 16 16 17 17 16 16 17 20 24 28 28
76 70 89 80 53 51 71 70 61 50 29 26 27 29 42 34 32 32 22 17 16 15 25 52 58 65 59 20 36 28 19 18 18 19 18 15 15 16 17 17 16 17 18 22 26 29 35 40 36
55 75 94 97 89 96 93 79 78 46 32 25 36 33 37 42 33 31 28 24 19 16 21 32 52 68 57 22 22 19 18 18 18 19 16 15 15 17 17 16 18 20 26 31 36 43 54 46 45
68 61 77 81 69 78 84 73 74 71 28 23 31 48 71 36 35 33 29 30 28 31 39 36 44 57 70 43 24 22 21 19 20 20 16 18 26 27 25 26 30 44 42 41 48 54 49 54 75
75 74 70 72 66 54 44 39 62 60 44 28 33 74 74 81 42 55 63 47 65 67 66 67 56 59 85 60 40 33 22 30 54 71 53 43 58 64 46 56 66 68 60 61 59 86 63 69 73
57 67 73 78 67 54 55 45 41 28 55 71 49 33 75 74 46 46 46 90 100 100 100 78 97 88 94 85 40 49 36 47 51 73 74 78 82 60 59 63 75 82 83 78 94 89 98 82 57
48 64 69 75 79 65 76 50 59 70 46 63 60 64 49 29 39 42 52 85 71 84 91 70 100 84 61 52 35 45 36 34 37 73 80 88 88 85 77 76 94 94 99 90 100 92 66 58 63
67 62 65 66 67 58 62 49 52 56 48 52 58 38 29 21 24 19 43 50 62 83 85 79 96 62 38 27 28 34 34 22 41 85 89 99 100 96 96 100 100 98 100 96 82 85 94 92 76
77 74 77 70 64 56 49 43 36 51 65 71 58 56 27 16 16 17 20 28 38 51 62 92 32 21 21 20 22 22 33 44 70 85 99 100 98 100 100 100 100 99 99 92 100 83 83 99 75
75 78 72 71 64 51 45 44 41 50 66 64 60 66 25 15 16 16 16 16 18 22 26 20 21 22 20 20 23 20 37 53 78 88 94 94 100 100 100 100 95 87 98 100 100 80 73 72 76
84 83 76 73 64 63 50 44 58 51 45 36 40 38 41 54 19 20 17 15 16 17 17 17 20 22 38 28 20 38 57 63 78 77 82 96 93 99 100 100 98 100 100 94 68 78 84 98 89
76 63 62 62 62 76 65 48 58 49 26 22 36 39 82 80 46 30 39 29 21 18 17 20 28 44 56 64 50 64 68 84 82 91 74 77 100 100 100 100 100 93 100 84 80 81 82 88 77

GFSSGP_500_rhum_045.txt.gz
RH
25 17 14 16 14 12 17 28 32 72 89 86 85 88 92 94 95 92 83 90 92 84 79 70 68 64 62 60 53 54 55 48 39 37 46 54 87 85 97 90 58 11 11 12 18 18 10 9 8
21 16 12 14 14 12 16 36 40 28 53 69 90 96 100 94 100 91 82 78 72 74 79 77 73 66 69 76 68 52 42 56 51 44 42 70 96 91 98 98 58 16 12 18 33 14 8 8 8
18 14 12 12 13 13 25 38 40 33 26 58 75 88 91 80 78 87 76 77 68 57 47 46 51 58 76 79 44 34 31 62 65 54 52 77 89 93 96 94 65 14 10 28 33 13 10 8 16
17 13 13 14 15 18 34 43 48 41 33 41 66 74 75 70 59 55 56 65 63 52 64 62 66 69 69 50 38 41 35 58 90 58 74 91 86 100 98 90 58 26 10 22 22 19 9 13 11
16 13 17 17 19 52 54 47 41 39 46 46 53 62 63 62 59 64 44 38 48 63 79 85 82 78 68 75 74 61 56 88 99 50 73 84 88 100 95 86 67 58 45 23 30 29 21 30 25
16 16 20 24 42 76 64 73 76 63 56 66 89 76 74 82 79 75 64 40 48 73 83 78 93 97 95 90 99 93 76 98 82 53 71 84 94 97 94 90 84 46 17 26 31 26 34 36 39
16 20 27 90 98 89 89 73 68 70 74 64 81 84 87 78 80 81 75 68 71 89 94 90 90 90 97 97 98 96 91 76 57 69 87 96 96 96 94 75 51 21 30 31 36 27 35 31 40
19 25 78 98 100 88 81 74 68 76 84 65 51 58 63 65 68 70 71 70 79 76 90 95 97 96 97 96 97 96 96 94 90 93 98 93 97 90 72 31 24 37 40 30 42 37 32 43 46
24 76 100 99 92 74 80 96 95 76 92 72 94 62 50 80 82 77 70 73 67 57 68 70 64 82 98 96 97 94 94 96 96 97 97 98 89 69 37 49 48 41 46 49 33 44 54 57 22
60 99 100 95 100 87 86 99 96 97 97 90 70 71 88 90 99 97 79 74 64 58 54 64 96 94 96 96 96 96 97 97 94 97 97 68 44 42 71 51 52 45 30 47 58 32 58 28 13
83 100 93 99 96 95 100 95 95 94 95 84 73 65 63 78 94 92 75 74 65 52 50 88 79 86 96 96 96 97 95 94 96 86 44 48 61 73 69 64 54 46 59 53 24 14 15 13 12
94 91 99 83 80 91 91 86 92 95 88 73 62 64 55 90 100 80 61 73 73 66 71 81 90 97 97 97 97 97 96 96 91 82 72 58 46 54 76 64 75 84 44 14 15 14 12 12 12
99 70 91 80 76 94 92 90 93 95 51 59 63 56 83 95 84 61 68 76 81 65 75 74 85 91 96 97 97 95 95 93 86 71 73 82 92 90 81 78 65 43 15 14 14 12 12 13 15
76 97 74 97 98 100 96 92 93 79 86 34 63 61 74 91 96 89 96 97 91 90 81 95 99 99 96 96 95 90 71 78 83 82 80 72 96 80 80 46 14 14 15 15 13 13 15 16 16
63 83 68 84 92 98 88 74 74 77 88 54 53 52 53 75 82 75 70 66 64 68 74 77 92 72 57 53 52 51 60 60 87 98 93 81 75 74 74 15 15 16 13 12 14 14 15 16 15
51 77 90 99 91 99 88 78 87 79 78 42 58 63 46 61 45 62 72 76 58 62 67 64 72 73 74 75 78 82 88 92 83 75 66 63 48 45 15 15 14 13 14 13 14 15 16 15 14
40 65 76 90 76 96 87 81 78 82 41 39 50 44 59 52 41 31 38 51 49 46 45 51 52 54 55 53 54 51 44 42 48 67 64 34 14 14 15 15 14 13 14 15 16 16 16 16 17
57 52 65 94 87 94 77 72 92 74 48 33 40 34 31 38 44 47 45 48 53 52 44 37 27 25 24 21 22 24 25 32 56 58 28 14 15 15 16 16 15 14 15 16 15 15 17 18 17
60 70 70 86 91 99 80 65 60 91 47 40 37 31 30 31 32 34 34 40 46 28 18 17 17 18 20 21 22 18 21 25 56 19 15 16 17 16 15 15 14 15 16 17 18 21 21 17 21
62 53 76 70 63 71 69 67 62 64 55 34 32 44 39 33 31 29 29 26 24 28 26 34 32 44 58 47 24 42 42 30 18 18 20 18 16 15 15 16 15 19 25 27 31 36 34 30 32
62 45 91 88 62 45 81 74 94 67 34 20 32 44 38 51 37 35 25 19 18 19 25 39 48 62 73 62 24 35 23 21 20 19 18 19 16 17 20 38 32 42 37 44 43 46 51 52 46
52 56 72 77 98 99 93 88 76 81 58 55 39 47 57 56 31 28 27 23 19 19 17 32 43 57 65 82 39 24 22 22 22 21 43 44 50 57 46 34 41 52 52 58 72 70 74 68 76
45 50 55 68 91 74 85 82 84 77 41 83 96 100 93 91 44 34 42 33 26 26 26 48 48 54 54 75 70 29 26 25 23 47 64 62 72 63 57 48 54 61 66 77 79 81 82 72 72
53 51 54 61 66 61 71 63 57 46 48 71 63 76 97 100 98 82 52 47 44 37 37 44 77 56 55 84 89 58 43 45 41 37 34 44 80 79 79 73 80 71 92 85 100 96 93 100 97
41 51 53 57 52 52 64 56 66 77 55 48 69 60 75 75 80 99 76 79 49 66 82 74 85 68 78 72 71 62 39 43 41 33 47 71 94 94 92 95 94 92 83 89 98 100 99 100 98
44 44 52 51 51 56 64 58 67 79 64 45 62 66 64 61 67 66 62 65 43 44 63 68 90 72 99 96 87 59 38 28 28 35 64 82 98 95 97 89 88 94 95 100 100 100 97 90 97
56 60 62 64 71 69 64 58 56 47 46 48 46 54 64 50 20 28 30 22 34 54 68 85 87 75 66 39 56 36 40 38 34 64 80 90 100 100 100 76 90 100 100 98 100 99 100 100 99
76 81 81 80 71 69 61 60 55 61 48 47 65 71 75 75 33 19 19 21 21 22 22 26 45 27 27 24 24 49 59 63 65 88 97 100 100 99 100 86 97 88 100 100 97 97 100 100 86
98 89 92 87 70 58 58 54 58 66 60 51 50 52 58 54 40 21 18 17 17 18 18 20 20 22 23 22 44 58 79 80 88 93 99 94 85 74 100 100 100 98 100 100 100 100 100 100 89
100 91 81 81 71 63 56 50 68 68 71 55 35 28 31 25 42 90 53 28 42 39 35 28 23 23 23 50 60 84 76 84 78 74 80 100 90 94 100 100 100 100 100 100 100 94 100 92 99

GFSSGP_500_rhum_048.txt.gz
RH
18 24 24 17 18 17 33 40 26 26 35 67 80 80 96 96 65 94 85 93 90 92 73 88 76 63 64 70 65 58 56 46 44 38 39 48 52 78 86 89 80 73 47 26 14 12 20 11 10
22 20 19 16 15 36 64 70 48 38 31 43 54 83 91 93 99 85 97 96 94 94 80 84 73 66 59 63 63 63 61 43 38 39 32 38 46 85 94 94 93 79 50 33 15 19 26 10 9
21 19 16 14 15 37 74 67 33 31 39 37 70 79 91 93 72 96 96 94 86 84 80 74 68 70 68 66 67 69 53 30 24 40 58 53 67 91 91 96 97 83 58 22 14 34 29 11 10
23 17 15 13 18 33 24 40 47 54 49 39 51 70 77 84 94 85 80 83 75 76 76 69 61 56 55 64 67 57 39 34 36 53 58 66 85 94 92 96 99 81 44 21 16 27 22 15 17
18 16 15 16 18 19 22 26 45 59 60 47 44 47 60 65 80 72 66 58 46 45 52 66 63 73 76 66 57 53 48 71 60 63 81 82 92 96 97 98 97 73 46 23 16 26 27 25 32
16 16 19 67 61 42 38 46 72 62 56 55 50 34 49 64 63 57 57 46 55 54 62 61 82 80 81 74 71 80 95 96 87 99 99 71 85 95 98 96 91 68 59 50 37 31 30 29 32
16 20 36 44 66 98 84 89 86 84 64 68 67 62 56 55 65 55 63 76 71 80 89 87 76 83 86 88 95 81 88 97 97 99 96 76 92 99 98 98 94 88 71 34 24 32 31 27 41
19 28 65 100 100 99 98 88 80 79 72 64 51 64 68 69 68 72 83 85 90 90 88 96 96 96 96 96 97 91 98 96 88 96 96 96 97 92 98 95 82 66 31 29 35 35 42 32 39
19 54 100 100 98 95 80 89 85 59 70 93 68 61 49 54 65 62 69 91 90 95 97 96 83 80 83 95 88 97 97 96 97 94 96 97 96 91 81 72 39 35 42 40 42 46 40 46 59
25 84 100 90 88 70 93 88 69 99 80 93 96 88 82 68 58 49 74 74 93 88 82 75 59 47 72 95 97 96 92 96 94 97 96 96 93 78 69 42 51 46 50 41 34 52 25 41 22
42 86 95 75 84 97 96 81 74 97 97 94 88 82 75 71 67 65 61 55 93 92 76 61 53 88 95 96 91 67 95 95 97 94 96 97 83 59 46 61 51 57 51 41 53 30 13 13 11
52 87 87 72 69 81 90 75 77 95 72 76 70 63 94 68 58 74 82 90 93 74 67 67 58 95 83 100 99 97 97 96 95 93 96 79 57 61 65 62 60 61 70 50 15 13 12 13 14
32 56 83 100 84 68 85 96 98 95 87 57 63 80 74 74 86 77 84 70 55 69 78 82 99 98 93 97 96 97 96 95 94 95 96 75 62 61 73 82 74 68 61 25 14 15 14 13 13
49 47 64 92 96 97 88 94 76 86 76 66 59 56 59 79 97 96 96 84 81 85 71 84 91 88 93 98 96 97 97 96 93 89 61 50 64 93 74 75 58 20 14 15 16 13 13 14 14
48 80 59 81 93 92 85 91 86 77 75 66 69 59 92 94 99 100 100 97 93 98 94 100 100 97 99 97 99 96 94 92 90 84 80 74 75 86 84 84 30 14 15 14 13 13 14 14 13
31 76 100 81 74 74 93 97 81 72 75 50 66 39 75 81 96 97 96 94 95 72 61 77 82 83 78 72 69 67 66 72 80 89 88 78 82 78 86 78 16 15 14 13 13 14 14 13 12
45 100 84 99 94 92 92 95 69 69 56 52 52 53 56 39 54 80 90 82 59 53 56 60 74 83 85 84 82 82 88 94 93 86 80 71 69 45 30 15 15 14 13 14 15 14 12 11 10
96 47 86 98 94 98 78 87 75 86 46 54 48 46 50 41 36 37 50 48 47 52 46 41 46 54 54 52 52 50 46 46 49 65 80 80 37 16 16 15 14 14 13 14 13 13 14 17 14
49 32 100 84 91 98 91 82 83 73 88 50 42 43 32 40 52 52 49 48 46 38 33 31 27 26 43 21 20 24 33 33 48 73 70 32 16 17 18 16 15 14 14 14 14 27 16 15 22
51 60 98 55 62 90 98 95 83 75 76 74 48 39 33 33 36 34 32 35 42 29 20 18 19 21 23 30 30 23 30 39 39 57 27 20 21 19 18 15 14 14 27 36 26 34 21 27 38
56 89 94 88 39 47 52 58 83 83 70 37 33 39 48 46 34 34 30 24 21 24 23 29 39 46 56 64 55 31 43 32 27 22 30 22 19 19 18 17 29 46 41 38 36 32 33 44 62
51 60 64 88 88 100 66 100 86 98 90 46 23 43 40 48 40 36 29 26 22 20 19 19 31 38 47 60 70 41 33 24 23 25 22 22 26 53 62 63 69 70 55 48 38 44 53 59 56
35 41 49 56 80 87 91 94 100 93 94 64 45 32 42 69 40 33 30 25 25 25 22 22 40 56 66 63 60 72 36 25 24 25 24 29 48 56 53 56 64 70 56 42 48 65 79 71 83
47 50 49 54 65 63 89 79 100 96 79 85 64 39 69 80 74 72 53 26 28 37 35 28 37 62 93 77 69 95 76 50 48 48 47 45 38 49 71 84 78 69 56 50 72 63 66 79 98
44 45 88 86 61 69 66 64 93 81 62 54 74 77 75 66 77 86 59 77 59 37 28 34 55 70 84 94 95 86 98 85 80 46 36 31 34 51 74 85 92 84 82 79 63 49 83 92 95
37 44 96 100 83 100 59 60 98 68 65 56 53 57 86 92 96 80 88 95 93 55 42 30 39 73 93 84 95 91 70 97 68 50 45 34 59 76 82 88 87 93 93 99 82 82 100 98 98
50 41 61 77 63 64 68 67 80 62 51 45 49 52 69 74 62 44 40 53 64 64 50 46 57 74 99 88 87 76 77 64 51 66 74 83 80 94 98 96 95 100 90 98 100 99 100 100 89
58 54 62 73 83 78 95 76 100 68 53 49 48 52 70 77 90 88 36 22 26 30 44 66 59 52 58 64 32 26 21 31 55 62 88 96 96 97 98 96 100 100 96 69 77 100 99 100 100
43 61 72 82 70 89 87 93 72 74 70 57 48 51 72 86 76 64 36 20 19 19 19 19 22 22 25 24 22 21 26 56 70 91 90 91 87 90 92 100 100 98 82 84 78 66 100 100 100
52 79 87 91 87 66 70 58 66 61 74 69 64 55 41 39 44 67 73 59 37 37 30 24 26 33 38 39 27 27 52 62 82 86 60 75 85 94 98 100 91 82 80 61 47 81 100 99 77

GFSSGP_500_rhum_051.txt.gz
RH
5 8 17 20 21 27 46 62 61 86 90 78 53 88 94 65 67 89 93 92 82 72 84 84 82 85 77 73 70 66 63 63 61 51 44 39 43 61 60 72 70 68 64 59 43 22 13 15 16
6 11 20 19 19 57 56 54 89 73 95 83 31 23 36 58 93 92 96 78 96 78 91 94 92 94 88 69 64 59 60 66 65 50 38 40 32 33 47 68 84 79 77 58 38 24 15 22 16
6 11 22 33 76 66 57 84 94 83 46 48 53 29 50 82 77 77 82 99 93 97 96 95 90 96 81 68 62 56 58 72 66 34 30 52 58 50 55 86 90 92 89 68 33 24 18 29 19
7 15 19 17 70 69 64 92 83 54 68 43 51 83 25 28 59 61 95 76 89 97 94 95 86 72 64 62 66 72 77 71 62 39 51 42 64 64 80 89 94 94 96 75 45 28 21 31 19
10 17 32 87 70 71 84 82 56 45 100 100 45 99 29 43 76 55 72 76 84 74 69 62 64 67 68 68 66 58 51 48 52 51 79 49 66 78 94 96 95 92 96 69 52 23 17 23 25
13 17 86 88 85 83 87 95 100 100 100 64 50 85 32 33 37 53 62 58 76 64 78 74 64 72 70 70 60 54 55 72 72 84 72 64 78 93 83 96 95 96 92 62 52 24 27 27 27
13 86 88 78 93 95 91 89 97 81 61 58 47 45 43 30 28 33 49 59 51 47 61 88 74 83 76 74 78 79 88 94 96 93 91 94 96 96 92 93 90 91 87 70 68 50 27 29 30
12 16 84 84 100 95 89 79 73 76 85 62 52 73 51 52 32 32 31 37 47 78 83 95 93 98 97 94 86 78 84 98 95 97 95 96 97 97 94 94 93 91 94 85 32 26 33 33 44
13 64 91 94 95 98 86 85 91 68 65 62 53 49 72 75 49 51 52 47 62 82 91 97 92 95 96 96 96 96 94 96 96 97 94 93 95 95 97 94 95 94 73 26 30 35 41 46 35
14 96 98 80 87 86 72 78 72 97 85 57 77 86 68 79 54 51 54 63 70 75 82 72 71 83 89 83 78 78 96 97 96 97 96 95 96 97 96 95 77 34 37 47 44 46 46 39 26
67 87 91 98 70 68 67 88 83 76 98 92 97 93 82 97 85 65 47 42 47 60 66 61 67 67 69 75 87 88 97 95 97 94 96 96 96 96 95 77 32 52 51 59 45 48 41 13 12
14 68 75 92 59 64 71 78 76 81 93 61 92 95 91 95 88 80 69 66 74 66 71 62 72 85 75 80 98 96 86 84 89 95 97 96 96 96 93 73 64 60 58 57 52 20 14 14 12
24 25 60 51 53 55 55 81 73 76 75 63 56 75 85 95 88 88 74 57 52 75 86 85 78 97 92 98 94 74 96 97 96 97 95 95 96 93 67 65 60 64 67 65 56 15 16 13 13
76 13 29 64 65 56 76 86 64 53 55 67 63 55 71 83 100 100 100 77 69 58 61 78 99 97 97 97 98 97 96 95 94 97 96 97 94 72 71 76 71 56 36 32 16 15 14 14 12
24 19 93 48 74 79 98 95 100 64 61 63 56 50 75 91 99 100 99 88 84 92 95 99 97 99 98 97 96 95 94 94 97 96 96 93 79 76 73 70 79 37 15 16 16 16 14 12 10
34 69 100 97 86 80 61 95 65 62 57 58 60 48 80 94 100 98 92 95 96 98 96 100 98 99 100 96 94 97 97 97 95 94 89 76 71 70 71 79 86 47 16 18 16 13 12 11 10
81 92 97 82 87 59 79 94 56 58 61 45 49 46 65 90 96 96 94 88 84 88 96 94 94 90 83 79 82 83 77 77 79 82 81 79 69 72 72 74 72 18 17 17 15 13 11 11 15
93 95 88 83 90 62 94 97 97 52 54 43 51 60 57 41 37 64 69 57 55 49 44 63 65 70 76 72 80 80 83 94 99 99 100 90 86 76 45 23 18 18 18 16 14 12 12 13 21
50 99 87 89 100 72 94 100 73 85 58 80 56 43 33 33 39 60 44 39 43 38 36 28 24 36 54 32 39 40 38 39 41 66 74 89 88 26 18 20 21 18 16 14 14 18 33 31 26
38 100 97 87 82 43 98 98 95 92 60 74 33 30 31 27 25 36 41 41 42 38 29 25 20 20 54 57 21 22 22 27 30 39 60 76 48 20 21 21 19 18 16 15 42 47 38 23 17
49 98 96 94 90 44 51 63 98 77 64 50 38 31 36 40 37 30 26 23 20 24 21 18 18 23 46 47 52 43 25 38 43 48 44 36 32 24 24 26 26 36 37 48 60 62 40 27 38
91 65 81 96 100 99 71 88 97 100 64 61 34 22 27 34 49 43 35 31 21 16 15 14 12 12 19 33 42 54 56 35 28 24 25 34 29 41 43 48 61 59 54 54 61 51 44 39 38
70 70 40 81 100 100 95 100 89 96 92 81 54 39 29 31 36 32 32 28 26 25 22 20 17 21 38 50 55 46 40 53 29 25 26 39 40 42 44 50 53 62 72 81 81 71 68 73 62
47 49 44 50 100 99 100 85 100 97 100 93 100 72 36 32 52 71 64 67 58 28 28 29 30 24 25 44 65 81 60 70 66 30 34 50 51 44 34 33 48 70 89 90 87 74 66 67 61
35 52 84 100 100 68 98 99 100 94 100 59 64 97 94 49 37 71 84 71 90 92 62 72 33 24 54 72 82 97 98 79 89 67 69 70 39 49 47 50 69 81 90 94 90 80 73 78 71
37 57 90 82 92 97 90 47 94 99 64 66 70 48 57 58 64 60 72 96 96 79 75 69 54 50 35 81 97 92 78 98 88 96 94 67 56 68 78 81 86 98 95 90 87 99 96 100 100
83 48 92 99 90 52 93 53 77 72 56 52 59 58 59 55 74 86 73 44 30 28 54 55 40 49 52 69 83 83 97 29 26 30 32 51 66 94 92 98 92 94 91 85 95 96 98 100 97
42 72 69 58 81 76 93 97 98 84 49 56 51 46 43 54 71 79 76 90 77 21 28 27 42 60 66 62 73 61 34 33 27 26 34 60 84 94 92 81 79 82 88 98 99 100 95 79 89
24 36 71 100 91 96 100 99 98 91 66 58 60 55 44 49 75 93 94 86 61 24 20 21 23 22 23 26 22 21 24 35 28 26 45 65 75 72 51 45 83 67 58 73 88 94 77 89 40
98 44 72 100 98 96 85 86 99 82 81 62 57 53 49 48 59 93 84 84 85 38 21 19 19 20 20 20 28 42 45 41 26 32 46 50 49 27 22 28 44 98 98 60 96 100 85 47 42

GFSSGP_500_rhum_054.txt.gz
RH
14 8 3 4 12 16 35 46 66 70 79 93 62 77 96 70 54 81 66 97 81 96 96 96 91 81 79 74 73 74 74 72 68 67 60 54 42 38 37 66 65 66 62 61 58 51 38 32 21
12 4 3 10 17 40 60 68 58 65 95 76 74 73 76 89 84 50 82 69 77 93 86 92 96 95 93 91 88 80 77 71 68 64 64 56 37 37 34 36 54 64 72 70 68 56 43 30 23
7 3 6 15 50 73 72 86 91 58 85 44 67 70 56 94 90 79 91 100 80 92 95 87 87 90 92 93 96 88 76 72 73 68 68 49 33 40 41 40 48 61 88 81 82 65 46 26 23
4 4 15 33 61 59 76 82 91 80 54 32 31 39 36 96 63 95 96 81 82 79 65 97 90 93 98 94 96 91 84 85 79 80 66 42 33 33 46 56 68 85 89 87 87 71 51 24 23
3 10 34 93 93 89 67 56 42 27 26 24 35 33 50 96 78 34 38 71 57 61 74 85 93 95 91 92 97 100 100 95 85 72 65 58 45 37 47 66 92 95 91 90 92 73 46 30 21
3 15 78 92 92 88 76 44 16 15 14 15 22 86 32 32 55 44 50 56 53 92 94 96 95 97 92 93 90 87 73 63 56 53 49 57 60 56 55 74 93 94 94 93 92 77 53 34 25
6 22 84 83 73 60 55 67 72 84 62 89 93 43 91 75 76 64 48 46 48 76 66 82 88 93 88 76 76 70 75 88 92 78 99 84 85 62 64 91 95 89 93 92 86 75 72 34 34
11 20 80 91 80 50 54 87 48 38 32 61 86 38 42 55 58 62 47 43 47 72 89 91 88 94 96 86 81 84 72 88 100 90 91 87 95 90 77 93 92 81 84 87 90 89 36 28 35
12 44 95 96 95 65 99 94 34 80 48 98 57 98 51 66 97 93 46 41 55 69 97 88 90 96 91 96 96 92 89 97 97 97 95 83 97 95 96 97 91 90 89 92 65 29 30 36 44
11 51 82 100 92 52 58 47 49 79 92 47 95 46 30 63 76 86 53 51 67 63 78 80 91 95 82 84 96 96 96 81 87 92 94 96 96 96 96 96 93 96 95 40 30 44 47 49 42
14 63 98 84 68 51 44 32 75 83 50 67 66 74 69 83 62 60 46 43 53 55 62 59 84 76 80 82 78 94 90 92 94 95 96 97 96 97 96 95 96 96 74 47 49 47 50 55 18
34 42 57 59 53 43 50 75 58 71 66 54 46 52 81 80 67 71 61 54 51 33 30 39 46 58 82 60 70 64 98 92 94 97 96 97 97 96 94 96 95 94 71 58 59 55 36 15 15
57 22 61 60 37 43 62 75 93 67 84 54 42 45 60 64 79 81 76 65 58 54 42 46 61 70 70 72 70 77 95 97 97 97 97 96 97 96 96 96 94 77 60 62 70 65 15 14 11
42 51 10 31 44 54 68 50 92 96 100 58 42 44 55 60 63 72 86 75 55 52 47 64 74 84 68 64 97 97 96 97 90 94 96 97 97 96 96 95 90 73 73 74 74 41 14 12 11
14 8 11 93 65 62 60 76 93 85 69 56 45 40 47 54 63 74 85 92 75 62 54 59 66 69 98 100 96 97 96 90 96 97 96 97 96 96 93 89 80 60 36 21 17 14 13 12 12
12 8 40 66 88 98 68 53 91 59 49 56 46 41 47 67 83 90 95 97 99 94 93 98 92 96 82 96 96 96 96 96 97 95 98 97 95 87 93 77 81 82 22 16 16 15 15 14 13
44 55 93 81 84 83 62 87 89 71 51 61 44 45 62 60 84 80 77 64 64 86 90 89 92 95 98 98 97 96 94 96 98 97 95 93 86 95 84 90 90 84 44 17 18 17 15 14 13
100 99 97 80 89 84 90 65 62 90 69 67 53 39 50 44 28 34 56 45 49 41 31 48 82 85 94 94 90 85 82 83 92 88 92 94 95 97 91 73 71 38 18 20 18 16 14 13 22
50 78 82 99 85 79 68 99 92 74 77 53 54 40 27 30 39 49 51 41 42 42 34 27 24 59 42 23 24 37 42 44 58 83 85 90 97 98 74 52 28 20 22 19 16 14 14 38 54
33 21 55 100 100 63 69 72 74 70 96 60 30 22 23 22 20 26 29 26 23 31 28 20 15 18 48 37 24 24 24 29 33 39 63 77 98 83 22 29 40 22 19 18 24 35 42 53 65
23 22 68 92 97 76 40 58 77 62 100 61 48 32 25 20 21 17 18 17 17 17 14 14 13 13 19 21 32 44 39 34 39 39 43 69 70 56 24 24 24 28 31 57 63 57 57 62 71
26 54 66 74 64 73 86 45 71 62 98 67 52 34 33 17 18 28 22 17 22 18 15 15 15 14 17 34 43 44 38 48 33 33 38 30 26 40 46 40 35 41 50 47 64 72 86 91 72
34 41 59 27 77 69 100 72 89 78 86 75 56 61 50 28 18 20 26 29 29 26 21 21 21 20 20 38 52 69 71 64 55 34 25 22 24 30 34 42 49 42 47 45 72 87 83 94 89
34 35 45 41 50 66 73 99 61 97 94 96 98 68 91 57 19 31 63 62 74 84 88 49 44 41 32 31 36 57 70 76 66 88 61 33 40 50 51 43 42 44 49 74 80 89 98 98 92
26 32 36 45 40 49 80 94 93 69 96 94 85 84 66 85 78 43 30 49 48 76 87 74 78 65 51 47 51 45 64 97 80 71 87 85 63 79 60 62 67 76 80 92 98 97 87 85 88
24 32 31 56 97 86 67 84 99 64 94 66 55 54 57 39 42 47 46 25 69 60 55 47 50 46 35 38 44 88 97 97 98 95 44 96 78 84 64 80 90 95 93 94 93 80 84 80 99
42 24 39 90 78 94 80 66 54 40 60 53 46 47 48 63 57 35 49 58 28 52 32 19 26 29 32 46 94 78 66 72 94 95 87 67 42 64 48 96 96 92 78 47 66 75 62 58 73
17 64 67 58 71 82 87 57 98 92 77 58 54 47 50 46 42 43 53 66 77 58 52 23 19 22 24 36 59 45 44 56 56 99 35 30 45 55 85 67 72 45 27 26 51 57 98 98 98
20 24 58 69 64 54 60 85 93 94 99 48 58 47 50 49 46 42 54 69 71 83 72 57 19 20 21 57 90 94 84 47 38 35 47 45 51 49 43 40 31 24 20 12 15 16 70 44 100
24 23 30 46 65 57 56 64 97 86 99 90 58 56 56 37 32 40 53 96 100 91 79 65 30 20 58 79 99 93 71 46 48 81 68 56 33 48 56 44 19 10 9 11 12 13 14 16 17

GFSSGP_500_rhum_057.txt.gz
RH
24 17 12 6 3 4 16 29 56 73 91 86 92 96 92 82 83 79 93 88 94 73 95 98 96 95 94 80 76 77 75 71 73 74 73 70 64 52 39 36 52 60 60 60 57 58 52 50 46
25 16 8 3 5 12 33 42 88 92 93 72 65 84 92 86 89 76 68 79 88 90 89 89 96 94 94 84 86 86 83 77 74 74 73 72 66 56 39 37 39 58 64 65 64 63 60 58 45
21 11 4 6 14 28 49 65 69 64 84 83 58 79 91 86 80 82 87 66 78 99 90 82 82 97 96 93 86 82 74 80 82 79 78 77 72 58 39 35 36 35 49 71 79 77 78 62 50
15 5 4 11 50 64 65 91 84 45 67 88 62 68 61 83 88 75 77 78 79 74 64 62 86 90 94 98 79 86 82 87 88 87 96 87 74 48 34 38 52 48 56 62 79 84 84 70 54
9 4 4 10 43 87 84 69 67 51 52 63 69 59 30 22 26 45 94 92 95 72 80 76 81 88 97 96 95 88 99 94 94 94 90 88 80 69 51 37 51 63 73 79 90 88 88 72 53
4 3 7 29 77 82 76 67 58 67 83 89 37 32 54 49 55 41 77 94 93 73 70 79 73 94 92 94 97 93 95 99 86 77 72 64 58 67 64 57 44 73 97 97 96 92 88 88 69
3 5 10 42 72 66 66 78 57 76 96 98 71 64 70 73 43 75 95 96 97 60 61 78 92 92 95 92 87 96 84 70 61 60 61 59 58 66 72 69 71 78 91 93 96 94 85 84 68
4 6 23 74 85 79 66 61 72 82 84 65 96 60 79 92 94 80 94 86 72 76 52 82 95 84 85 94 93 86 76 61 55 70 63 81 78 99 100 89 78 88 99 87 90 86 84 73 44
4 20 31 73 98 57 58 30 32 39 76 82 82 91 83 52 54 68 83 85 63 56 70 93 97 100 96 96 96 96 97 83 62 78 86 99 90 98 92 90 96 96 98 92 89 91 65 29 37
4 12 32 90 89 51 45 61 46 54 84 98 70 61 78 92 47 48 84 95 60 57 52 74 88 86 95 92 84 93 96 97 93 94 93 88 82 96 94 95 97 96 96 95 90 36 32 38 48
5 11 27 90 91 18 34 52 74 75 79 100 68 58 61 74 71 61 48 63 66 47 54 54 54 81 72 94 70 89 97 83 83 96 96 94 95 96 92 97 96 96 97 90 37 45 47 52 55
6 17 23 50 95 20 37 27 44 84 97 82 55 52 61 60 77 70 63 66 68 45 39 39 46 59 55 60 61 82 83 93 71 88 95 97 95 96 98 96 96 96 96 95 96 76 53 49 30
5 23 23 42 47 33 38 37 36 67 94 73 40 46 56 58 64 75 78 92 75 64 52 45 40 44 60 77 78 77 63 73 71 90 96 88 93 96 96 97 97 96 96 94 82 68 69 18 15
6 6 8 10 31 51 53 60 46 78 94 63 38 39 56 53 54 62 77 83 72 66 59 51 46 40 58 60 96 64 65 77 95 96 95 85 96 96 98 98 97 96 87 76 70 77 57 15 13
7 5 7 10 59 74 77 81 63 72 70 68 43 44 63 62 61 68 78 81 63 54 62 54 53 53 81 70 64 72 68 89 96 96 95 96 97 97 98 97 95 94 97 86 72 72 24 15 12
10 10 9 28 74 83 73 71 74 91 82 75 40 46 61 85 86 80 80 83 84 86 65 64 51 64 68 65 70 92 84 86 96 92 96 95 98 100 98 98 92 81 27 21 20 18 16 16 15
11 20 29 48 95 94 69 53 58 88 68 79 54 52 54 34 55 51 58 43 34 33 69 82 68 68 73 82 95 85 91 95 96 96 97 96 100 98 96 95 98 99 71 18 18 18 18 17 15
11 12 50 93 98 100 90 57 53 69 89 68 52 41 28 45 37 36 42 31 26 26 21 29 65 86 99 96 98 99 96 99 98 94 97 99 95 95 94 96 100 96 93 35 18 19 19 16 15
8 17 22 91 96 100 100 99 55 55 92 80 45 30 30 20 21 38 38 44 28 20 20 14 16 45 24 32 49 77 89 82 90 96 96 96 96 97 99 99 92 61 26 18 19 19 17 19 35
9 18 23 91 81 98 93 66 65 50 74 83 40 40 23 19 16 17 16 16 25 20 13 14 11 16 20 21 19 20 20 29 37 46 57 66 86 97 92 86 69 68 23 20 22 28 51 58 52
11 18 24 62 89 100 78 76 46 82 48 75 77 62 32 33 22 17 13 12 15 13 13 14 13 11 19 27 31 39 30 25 21 23 29 67 81 93 66 34 41 26 27 38 52 49 42 46 51
11 28 21 31 41 57 92 60 51 70 76 63 75 60 53 36 13 14 22 20 19 22 20 18 18 17 16 27 45 57 47 43 36 38 39 48 66 63 44 32 39 37 36 40 44 46 42 57 71
14 31 27 31 32 28 47 60 86 83 70 72 56 78 49 64 30 11 16 37 69 62 61 48 30 51 26 25 24 36 53 59 55 40 29 25 25 36 45 38 39 48 43 48 51 70 78 80 81
16 17 38 35 34 32 48 46 72 98 95 81 61 50 78 34 42 19 25 60 52 54 56 65 64 61 33 28 23 42 52 72 91 62 49 36 26 29 38 63 53 53 62 78 77 84 97 96 96
17 19 27 40 29 45 41 31 39 97 58 98 82 74 56 27 30 77 32 31 46 43 65 51 37 38 45 45 35 33 29 62 85 98 71 71 80 77 47 54 68 75 78 92 90 93 83 76 95
22 15 23 36 33 64 48 50 63 61 95 79 72 49 37 22 29 31 34 33 26 33 48 45 33 21 20 30 32 49 59 87 96 81 94 95 92 92 78 92 83 97 99 98 97 94 76 38 68
36 20 44 46 50 63 74 74 84 71 61 68 74 48 34 33 31 30 28 29 35 51 50 47 38 25 21 17 28 48 48 60 54 74 91 96 94 92 69 98 96 99 97 90 74 36 38 20 19
62 37 60 45 60 56 52 81 81 50 69 76 62 79 60 48 52 42 36 26 26 35 49 47 50 46 44 49 51 52 48 32 54 54 46 99 75 88 58 86 99 79 54 46 28 14 19 10 12
66 29 35 93 48 45 53 82 74 46 61 96 80 72 72 52 50 46 43 25 14 19 26 37 65 72 95 88 86 67 86 87 94 94 89 73 62 97 99 92 47 54 47 24 11 10 11 12 14
74 68 37 45 69 92 46 41 69 68 89 100 94 70 71 61 43 44 33 22 17 16 16 44 41 42 58 80 85 97 97 97 94 96 80 93 91 73 50 51 53 46 34 15 9 12 13 14 15

GFSSGP_500_rhum_060.txt.gz
RH
19 19 25 19 6 3 8 38 42 73 74 69 68 82 91 89 77 98 78 71 72 79 92 92 97 97 96 97 98 89 89 76 66 62 60 62 58 65 58 45 39 59 61 58 59 58 55 55 48
22 26 26 9 4 11 22 34 43 61 77 74 58 71 77 76 91 88 98 97 93 74 73 99 94 96 96 97 96 95 78 73 74 64 68 68 71 72 68 53 39 37 43 57 67 65 63 60 54
32 32 16 5 9 20 37 34 32 47 45 79 91 63 56 59 76 99 92 91 76 69 67 85 62 84 96 93 87 98 81 72 74 78 78 77 78 77 70 58 42 36 39 56 58 72 71 71 67
34 22 7 7 14 21 26 48 69 90 81 71 64 64 64 45 53 62 74 67 77 80 70 52 56 69 88 75 96 96 76 84 86 84 83 85 92 92 91 61 39 42 44 42 65 59 71 91 77
28 14 4 10 11 22 52 79 90 77 75 83 66 42 56 59 44 36 46 53 65 86 83 78 84 94 95 95 95 97 96 98 93 88 91 92 96 89 82 66 49 40 48 56 68 61 85 92 84
20 8 5 11 9 24 78 100 100 94 80 90 77 37 32 34 31 36 41 46 74 69 92 82 93 95 95 98 94 96 97 82 77 84 88 83 88 87 76 68 67 60 52 57 70 74 90 93 84
15 4 8 10 17 35 85 78 70 67 74 58 67 64 58 59 66 49 66 39 78 95 98 88 94 95 86 90 92 96 93 79 86 91 96 88 76 66 54 50 55 62 71 76 83 88 89 96 92
11 4 9 15 19 61 85 63 39 42 44 65 69 75 84 86 61 67 58 80 96 96 96 66 75 96 97 95 95 95 96 96 96 97 91 70 60 53 54 58 66 91 90 95 92 88 92 89 72
9 5 13 26 45 52 95 53 35 27 45 62 81 67 76 74 77 56 60 74 75 76 58 64 75 94 90 94 94 97 94 92 94 83 60 65 73 75 91 95 87 98 97 94 94 91 85 88 49
8 6 14 20 29 54 80 55 39 27 52 68 89 49 47 60 84 48 45 50 58 60 56 62 65 90 96 95 97 94 98 93 95 98 94 78 82 96 95 96 88 96 96 94 91 94 92 69 32
9 7 8 19 23 95 69 36 38 35 46 64 72 42 40 51 70 84 74 65 49 55 47 39 42 72 90 97 97 82 71 97 84 98 95 90 94 92 94 91 95 99 96 94 92 91 50 36 46
7 6 6 15 46 23 30 43 68 64 54 66 52 34 40 49 48 63 68 61 56 56 52 49 56 78 59 91 93 76 57 78 89 95 87 86 94 96 96 96 94 98 97 97 94 75 46 56 48
10 7 5 6 9 20 50 52 52 85 79 71 40 30 42 41 53 60 70 74 64 66 54 32 37 40 54 48 63 82 58 75 67 69 89 94 94 94 97 90 97 98 98 95 86 78 81 69 40
9 7 5 7 11 25 61 54 65 73 63 71 57 33 40 37 45 53 54 56 59 59 48 32 32 41 30 48 64 91 76 93 78 59 68 92 97 96 95 91 99 100 98 98 96 90 84 70 28
10 8 6 7 26 61 61 58 56 76 76 74 63 37 44 51 64 73 69 69 57 49 47 48 40 44 45 49 59 65 97 93 62 92 73 85 92 97 92 98 100 98 100 95 88 90 90 54 19
12 13 15 40 64 56 46 70 82 70 86 81 70 41 48 57 54 68 61 42 59 60 58 54 50 44 49 57 65 80 78 74 69 82 94 94 99 92 89 100 96 99 96 93 94 94 93 39 21
15 12 24 44 86 50 51 70 95 71 76 90 67 37 41 33 35 49 33 25 22 31 62 56 59 55 72 80 92 69 62 80 88 81 98 96 97 84 98 100 100 92 74 60 53 53 29 21 19
20 14 16 22 35 82 66 79 82 71 66 87 59 35 25 25 33 43 36 24 22 17 22 53 60 72 96 94 80 69 78 73 82 87 92 99 89 94 100 100 92 95 89 40 20 20 21 20 18
25 14 12 7 69 83 96 92 76 59 47 86 49 33 24 21 18 32 29 39 14 16 14 30 36 25 54 78 79 69 96 100 94 100 100 96 93 100 98 95 98 100 99 96 40 19 19 18 16
38 17 12 11 88 95 98 100 96 57 63 68 82 67 33 28 18 17 17 15 23 12 12 11 28 29 19 28 24 58 86 89 96 100 98 99 91 95 97 96 91 88 84 57 22 20 17 16 31
46 15 10 9 24 61 75 47 88 77 51 46 85 78 34 35 23 21 18 14 16 14 13 13 13 24 25 23 25 23 23 26 35 66 81 78 88 94 96 90 79 80 80 34 22 20 23 36 40
62 18 13 12 14 32 75 57 78 69 33 52 81 66 54 39 28 14 21 26 21 22 17 15 16 15 20 26 41 36 32 31 23 16 23 44 65 79 85 63 66 52 35 29 30 30 38 39 40
63 22 16 19 16 12 20 41 46 88 37 56 68 85 58 55 57 15 15 30 39 45 43 29 39 32 19 23 26 44 55 60 56 40 30 25 29 43 65 40 30 40 28 26 31 59 70 52 60
65 22 15 20 16 12 43 44 30 70 64 47 58 69 78 98 55 24 28 42 38 42 51 60 59 54 27 20 21 39 46 55 82 82 58 37 27 28 34 38 39 52 42 40 47 77 94 97 88
66 30 19 21 19 16 54 29 30 35 54 52 68 66 64 47 44 63 61 32 42 43 39 56 54 42 33 30 30 18 27 35 62 84 92 72 66 46 31 30 31 38 52 57 90 97 96 97 96
80 54 26 16 14 26 36 26 38 59 50 41 53 45 37 30 39 39 42 38 30 33 35 48 48 33 24 25 31 28 26 50 78 88 90 83 75 62 72 89 87 85 98 98 98 98 100 94 55
96 83 46 27 18 16 29 28 52 68 68 59 44 45 36 27 31 36 36 42 42 36 45 48 47 54 43 26 27 23 34 69 95 73 62 82 98 98 100 99 84 88 96 97 96 97 74 38 22
97 97 63 41 38 18 13 29 57 89 72 47 37 43 31 29 32 35 31 33 36 39 44 51 60 53 61 63 68 58 52 44 48 55 96 85 99 98 55 68 85 89 98 96 87 68 41 24 12
90 91 67 55 47 22 17 20 51 82 79 41 49 73 64 57 63 50 36 33 32 34 33 45 49 58 42 58 76 96 78 59 56 83 98 95 95 97 73 82 99 97 74 55 64 46 31 19 10
100 98 84 69 48 34 36 18 35 49 88 88 96 85 78 90 71 50 40 28 29 24 24 28 32 52 66 62 100 96 98 97 97 98 98 94 99 100 91 70 77 60 60 63 47 36 17 10 12

GFSSGP_500_rhum_063.txt.gz
RH
22 24 29 27 15 7 4 9 8 16 28 36 38 57 64 71 71 68 95 80 79 87 78 71 92 85 92 96 97 99 87 75 92 91 77 76 65 56 63 59 52 45 48 61 63 63 55 54 50
27 27 30 20 9 4 5 9 13 15 35 45 44 52 52 58 71 63 54 67 86 81 84 81 94 83 79 94 96 92 100 76 92 83 82 80 77 68 65 69 68 56 39 47 64 74 67 63 59
30 34 20 10 5 4 10 23 23 26 26 32 35 34 37 44 65 58 72 100 95 90 78 82 56 55 70 94 95 94 95 90 94 77 81 87 83 76 72 67 78 69 59 39 50 72 77 71 64
38 33 10 6 5 6 21 29 29 21 52 63 74 67 37 30 42 57 58 81 73 51 51 77 66 50 44 67 88 94 92 87 82 74 88 85 83 79 78 71 68 70 49 39 41 40 52 76 72
41 21 6 6 11 11 10 16 17 42 72 83 83 84 48 20 38 58 58 45 75 65 48 52 53 36 37 50 68 87 97 76 96 92 86 88 84 78 74 80 85 66 52 40 39 44 50 68 68
39 14 6 11 16 10 11 11 19 35 46 70 76 56 58 45 22 32 32 25 32 30 37 79 55 44 48 68 72 97 96 71 96 86 84 86 80 84 84 78 72 67 63 63 55 62 61 70 76
34 12 7 10 12 12 17 18 18 29 46 55 47 63 76 56 24 44 51 54 62 63 74 66 78 89 98 96 96 96 96 96 96 70 87 93 87 94 81 76 70 55 49 57 69 77 75 72 80
29 12 8 10 15 15 14 12 15 21 22 26 49 68 77 71 63 70 57 58 73 65 92 83 96 95 96 96 96 91 90 96 96 85 79 84 92 97 89 72 55 48 41 54 92 92 88 87 82
25 12 11 13 12 10 9 11 20 23 23 39 54 61 39 44 53 63 49 55 71 92 96 95 96 96 96 96 96 96 96 97 97 96 92 81 97 96 76 64 52 79 84 80 98 99 95 84 88
26 13 12 12 10 8 11 13 26 32 35 48 53 60 31 39 48 58 45 41 69 85 93 90 93 95 96 97 94 96 96 96 97 97 95 97 95 72 72 80 89 97 90 92 98 98 96 90 91
29 15 13 13 8 6 13 19 38 64 70 56 54 56 30 33 42 44 48 51 52 55 52 70 74 87 86 84 96 93 96 96 97 97 96 96 95 80 79 95 96 84 94 92 95 98 97 96 89
31 15 13 16 8 7 23 25 47 65 77 71 65 36 28 38 37 38 40 50 42 45 66 67 84 99 81 80 95 97 84 83 95 91 100 97 90 95 97 99 94 97 97 88 97 98 98 93 66
41 18 12 11 8 11 24 41 44 74 82 83 69 50 35 31 30 34 42 43 49 50 50 53 52 57 83 97 94 96 76 63 68 91 95 88 88 99 97 98 96 100 72 88 96 98 99 92 76
49 22 12 10 7 12 34 55 51 58 77 83 56 45 37 36 31 37 44 48 45 49 46 60 87 68 85 79 94 93 80 95 81 78 92 75 93 96 95 98 96 94 84 99 96 96 99 92 88
53 23 14 11 7 20 36 52 48 51 70 69 62 51 41 47 41 39 39 46 52 37 42 49 45 96 51 61 73 57 87 96 86 99 94 90 97 95 99 98 96 98 100 100 95 97 97 92 72
59 30 16 18 17 37 26 53 49 41 50 72 51 36 35 33 29 31 39 38 46 53 43 37 46 32 95 54 42 54 93 71 87 97 98 85 90 97 98 100 98 96 100 100 100 97 97 92 82
62 39 22 26 32 32 32 46 52 39 46 57 49 34 30 30 26 26 31 28 28 40 50 48 40 45 51 48 85 50 91 64 80 98 92 95 100 100 98 100 89 95 97 100 99 96 95 99 70
66 55 40 21 44 50 44 58 63 46 45 52 49 36 29 22 24 36 31 18 18 20 42 49 49 45 45 62 63 55 89 98 83 84 93 97 90 98 100 92 80 93 100 100 94 94 95 84 33
60 61 44 23 15 18 29 55 55 51 44 60 47 38 25 22 18 22 31 37 14 13 19 39 54 65 75 65 96 100 97 96 98 88 87 88 94 94 96 87 86 100 92 77 60 41 35 24 21
71 66 48 22 19 12 26 37 49 52 61 57 65 58 40 32 23 16 16 15 24 11 9 21 17 44 40 52 75 72 83 90 98 99 100 100 100 100 99 96 99 96 98 96 71 25 23 22 21
73 70 54 24 20 10 11 17 64 35 65 58 59 68 49 36 28 23 15 14 15 15 10 10 14 15 22 32 33 61 67 73 75 85 92 96 88 93 93 98 98 97 96 98 97 44 22 21 19
74 74 59 30 15 11 15 16 25 51 62 44 57 75 48 44 37 15 18 18 18 16 13 14 14 28 29 21 24 25 24 33 62 79 80 94 85 85 95 92 96 96 96 82 83 34 20 19 20
84 89 70 44 25 14 11 12 20 26 40 60 77 69 55 48 47 24 12 21 27 28 23 17 19 13 16 26 41 39 35 29 26 24 34 63 72 90 100 87 78 81 78 70 60 38 31 23 28
95 88 79 57 37 20 15 19 19 30 22 58 64 78 60 68 51 22 21 20 42 43 43 48 47 42 28 19 22 36 40 44 43 40 34 29 33 46 73 72 58 41 51 40 31 29 34 59 76
68 75 74 63 48 32 20 16 20 30 22 31 54 72 71 67 32 52 59 32 38 47 45 42 45 47 35 28 27 24 29 27 40 65 70 54 36 34 50 46 47 44 41 42 53 61 77 92 99
78 83 82 72 60 33 21 16 19 32 22 37 56 65 73 55 32 38 39 34 32 27 26 32 41 41 36 25 23 21 25 28 54 79 86 96 89 68 52 35 30 33 36 36 53 91 97 97 97
87 80 90 85 71 53 20 15 14 36 34 39 59 66 59 46 34 40 38 40 40 37 30 33 33 35 44 50 33 39 42 23 28 65 93 90 86 88 90 90 82 83 87 87 98 96 97 98 97
88 100 98 84 81 58 38 22 14 30 46 42 58 59 54 39 37 41 44 46 46 45 37 32 46 80 68 55 61 67 65 53 52 38 58 65 60 93 98 93 89 89 90 86 98 98 97 93 87
85 84 90 89 85 65 42 31 20 18 37 52 44 44 57 93 57 46 42 44 41 36 38 39 24 49 88 98 98 86 80 91 85 71 51 55 87 86 96 98 83 52 93 97 98 96 96 62 54
100 96 100 100 92 83 55 38 30 26 34 49 39 38 33 55 81 67 44 44 38 37 34 30 28 33 46 100 100 99 98 98 94 95 95 96 98 96 99 98 97 96 90 82 70 85 59 59 48

GFSSGP_500_rhum_066.txt.gz
RH
18 28 28 29 25 19 13 5 3 5 5 9 21 34 42 54 58 61 60 79 90 98 92 96 92 89 70 68 54 73 72 76 97 80 85 64 62 58 62 66 60 53 49 53 63 68 62 57 52
27 31 30 30 21 17 6 4 4 7 10 10 13 20 33 48 48 51 68 64 61 85 91 81 89 81 81 75 65 60 96 83 88 82 86 75 62 68 65 74 70 70 64 52 44 48 67 89 71
29 33 34 27 20 8 5 4 7 9 9 16 23 39 42 43 48 42 48 59 61 75 94 90 97 87 88 92 68 86 95 97 96 90 88 71 66 73 73 74 70 68 68 64 62 49 48 54 65
35 39 32 23 14 6 5 6 8 12 11 15 25 39 51 59 63 58 38 57 62 58 51 93 79 95 79 57 62 88 92 97 92 95 93 65 67 68 73 72 76 74 75 66 60 43 39 39 49
40 44 32 21 9 5 6 9 13 15 19 24 25 31 46 61 67 50 40 50 48 48 66 54 53 56 58 53 46 76 92 95 96 92 88 77 78 65 66 63 74 72 76 66 48 48 46 36 58
43 45 30 17 8 5 6 8 13 16 12 16 17 28 46 67 87 62 32 40 44 44 31 45 54 56 45 47 44 54 85 95 93 95 93 82 66 68 66 65 72 85 93 91 83 72 55 57 55
43 49 30 15 7 4 6 9 15 18 16 18 26 42 59 57 68 71 50 41 31 52 42 46 50 56 59 52 71 73 95 94 91 98 96 85 67 63 66 63 84 86 92 90 86 75 67 62 61
49 51 28 13 8 5 7 7 16 12 16 21 36 48 61 33 42 50 59 72 69 72 75 57 89 93 67 77 69 96 96 96 96 99 93 95 67 54 64 57 88 92 86 75 59 53 63 80 80
50 50 26 12 8 5 6 10 17 15 15 30 47 69 67 36 35 48 60 57 47 74 80 88 95 96 96 98 97 96 96 95 94 87 87 87 85 63 69 56 96 95 78 85 93 93 83 94 96
50 52 25 14 10 5 7 15 22 19 30 65 64 59 56 30 32 47 45 65 46 72 96 94 96 96 98 97 96 96 96 96 97 98 97 95 91 72 60 91 80 97 95 92 98 98 99 100 97
49 54 29 17 11 7 8 21 28 32 67 84 76 59 36 25 38 44 35 52 61 65 89 89 94 97 97 96 96 94 95 94 95 89 95 94 94 84 94 91 77 87 97 95 96 94 96 97 97
51 54 38 21 12 8 8 18 26 50 62 71 64 52 41 34 30 37 42 39 47 46 54 48 70 69 97 96 89 96 95 94 94 96 96 96 96 97 92 75 70 91 95 97 96 96 98 98 97
58 59 47 28 14 9 5 14 28 46 55 65 56 53 42 40 31 34 49 41 45 46 50 81 54 92 96 95 96 96 84 93 96 96 95 95 96 80 86 95 97 94 97 100 97 99 96 98 98
62 60 56 32 18 12 6 10 21 34 49 61 64 52 38 46 44 43 48 49 42 48 40 53 48 82 88 88 97 97 94 91 94 92 92 95 96 90 91 98 100 94 94 94 98 100 98 100 99
69 65 59 39 24 18 12 8 17 31 46 56 60 52 40 43 43 46 54 49 47 43 46 43 50 62 86 85 93 97 96 96 92 92 96 99 83 77 94 99 98 95 94 99 98 100 100 98 99
73 70 63 45 34 16 14 21 14 31 34 48 43 33 37 34 37 37 38 30 36 40 45 46 91 92 99 96 68 85 96 93 96 97 90 99 98 96 98 97 99 97 97 100 99 98 100 98 98
76 77 65 52 37 16 14 21 28 29 30 36 51 32 30 32 30 34 29 21 20 21 32 42 40 60 93 68 43 98 69 69 97 95 93 97 98 98 96 96 99 95 98 99 98 98 98 97 97
94 75 74 58 42 22 13 14 35 32 32 37 48 37 30 24 25 32 34 28 16 16 18 34 43 48 61 53 80 86 61 89 70 98 94 95 97 96 98 99 98 94 98 98 98 100 100 98 98
82 60 64 66 38 30 20 13 30 28 36 35 36 36 31 26 21 19 26 27 37 15 11 28 42 54 66 80 86 88 80 100 75 77 98 97 99 99 96 97 97 96 97 98 95 100 100 96 97
71 64 68 71 50 39 26 15 16 19 30 26 26 45 47 35 30 22 17 16 16 22 11 13 20 46 77 90 80 68 64 81 90 96 100 91 99 96 97 97 97 95 99 99 97 95 100 98 97
74 62 80 80 68 53 34 20 15 24 20 30 29 32 59 44 34 30 27 17 13 15 15 9 11 19 33 37 83 88 90 93 90 95 90 94 98 96 98 97 98 97 100 95 95 73 67 61 47
66 77 84 86 81 71 48 27 12 13 16 37 44 42 42 51 36 33 21 22 15 12 12 12 11 21 21 19 26 43 66 79 66 88 100 97 96 96 96 97 96 96 97 100 98 81 63 36 25
82 96 89 86 80 66 55 32 16 14 18 34 39 43 57 50 40 33 22 16 16 20 17 15 16 13 16 22 27 21 20 26 57 86 82 69 70 73 69 89 100 94 96 97 99 97 99 63 28
100 85 88 71 62 55 55 42 18 19 22 24 26 44 56 49 56 35 22 16 18 30 39 41 43 40 34 17 18 27 37 35 26 22 30 58 85 84 92 93 94 96 99 98 97 93 80 75 72
92 82 76 69 65 53 63 61 27 19 25 18 35 54 46 40 44 39 29 27 25 29 40 38 46 42 42 26 25 25 32 38 35 50 40 30 30 45 67 82 95 85 77 85 75 63 44 47 73
89 86 76 85 74 82 79 54 40 21 23 22 22 46 54 38 26 24 38 47 33 28 22 25 31 47 40 31 29 23 26 26 25 30 60 72 60 41 37 38 43 50 53 45 36 33 41 60 89
93 92 95 85 84 75 61 62 52 28 21 26 27 29 52 50 48 29 30 33 40 41 41 33 29 28 44 52 47 34 35 39 27 33 46 68 83 83 79 74 60 47 33 32 34 42 68 98 93
95 100 97 91 86 76 58 52 56 50 23 23 40 46 44 58 54 37 30 30 38 41 37 34 35 51 86 76 72 62 57 50 52 49 48 36 55 61 59 46 70 92 82 74 71 78 92 100 98
100 96 93 91 79 70 56 50 54 59 29 24 27 46 60 60 58 40 41 40 38 37 38 35 37 36 52 96 100 97 95 88 71 60 66 71 56 48 49 51 83 94 94 97 87 84 96 99 100
96 95 95 92 82 72 61 41 60 64 46 32 35 39 76 50 54 71 48 42 46 42 45 40 41 36 26 32 97 98 91 98 99 98 96 99 94 95 66 94 98 93 98 97 98 95 98 98 97

GFSSGP_500_rhum_069.txt.gz
RH
12 16 20 24 30 30 22 13 6 4 4 5 6 8 10 12 22 35 39 43 40 35 65 66 85 88 97 90 94 90 76 62 60 90 96 97 81 57 53 49 51 51 51 49 50 56 61 62 58
16 17 23 28 34 27 18 8 5 4 6 6 9 11 15 28 26 29 44 48 51 50 63 66 50 66 77 92 85 72 64 60 54 68 87 95 83 60 61 58 56 56 62 61 59 48 48 64 58
20 20 29 34 33 26 13 5 4 4 7 8 10 16 29 39 45 43 40 48 44 54 74 48 96 83 56 70 61 57 52 57 47 64 86 96 90 74 69 67 59 65 63 63 56 63 60 54 54
26 29 39 37 32 24 9 5 4 5 7 10 16 16 23 33 52 62 66 48 43 57 97 86 58 78 95 80 69 64 60 71 67 91 98 97 93 82 94 58 54 60 58 73 72 69 63 60 56
32 42 43 38 32 21 7 5 5 7 10 10 13 14 22 47 60 76 73 67 50 57 92 89 82 83 78 58 61 59 58 83 91 95 97 96 95 94 89 69 72 73 70 72 75 65 55 50 60
44 48 44 42 34 18 6 5 7 11 12 12 11 16 35 48 48 59 73 65 60 68 85 84 78 78 73 50 53 56 66 81 85 96 96 99 88 84 91 84 69 74 75 88 84 79 74 76 55
46 48 46 49 33 16 6 6 8 10 10 14 12 19 36 55 39 45 52 66 73 70 77 89 82 76 69 52 67 64 80 90 88 97 96 96 96 80 95 81 75 62 80 88 87 93 89 76 72
48 49 48 49 30 15 6 6 6 10 13 16 13 23 46 64 50 42 46 58 92 95 71 78 95 83 84 62 58 72 94 95 95 96 96 97 85 90 94 80 69 67 77 76 90 79 63 55 68
50 48 46 48 31 17 7 6 6 12 21 21 20 31 55 67 38 35 46 58 78 81 91 94 96 98 95 98 91 91 94 90 96 97 97 94 97 92 96 86 65 83 84 85 87 69 93 95 92
52 49 48 43 33 22 9 5 9 19 36 46 40 45 56 52 28 35 45 51 67 54 74 96 97 97 96 97 98 97 96 97 96 97 94 86 86 98 97 92 83 80 92 81 75 83 99 99 98
54 55 53 48 39 28 14 5 8 20 42 61 51 46 35 26 24 31 40 52 54 52 65 92 97 97 97 96 97 96 97 96 96 92 98 99 93 98 96 94 87 96 78 71 79 86 100 98 95
56 65 60 55 44 33 17 8 7 17 50 55 57 31 37 33 27 29 38 49 47 51 48 48 86 95 98 97 96 95 96 93 96 98 97 99 100 99 96 95 88 96 69 87 99 98 90 99 95
67 79 60 59 50 34 20 12 7 14 36 42 50 45 45 37 33 30 41 47 43 55 58 50 67 84 96 95 96 96 96 94 96 93 98 91 93 96 98 94 90 95 77 78 92 92 93 98 96
64 82 64 62 50 39 25 12 8 13 28 34 49 42 34 40 40 39 50 49 52 55 50 46 63 63 95 96 96 96 95 92 94 97 94 97 97 97 98 99 96 94 87 90 98 97 93 97 95
59 77 66 63 51 44 34 16 14 12 25 29 53 34 28 29 33 38 43 45 42 48 47 46 55 53 68 96 90 94 93 93 98 98 97 97 98 96 97 94 98 100 100 98 100 100 98 98 95
60 69 70 63 49 43 32 22 14 16 35 33 43 43 26 22 26 34 33 26 24 20 28 34 46 46 64 73 79 98 97 97 97 95 93 95 96 97 94 93 98 99 94 97 96 97 98 94 90
59 74 86 64 50 49 39 33 22 12 21 35 30 50 35 22 24 33 32 26 21 17 16 22 37 54 78 97 94 96 97 97 97 91 96 95 97 96 97 96 92 93 96 96 95 92 96 96 94
78 84 71 66 63 54 47 32 26 16 16 45 33 55 46 28 24 22 32 37 37 30 20 11 24 45 83 88 99 94 62 96 92 98 98 98 89 92 92 92 98 97 97 95 89 89 94 99 98
72 52 56 73 78 64 57 39 31 28 23 25 39 41 43 32 27 23 20 22 18 17 24 9 18 49 61 60 81 96 58 95 82 98 89 95 96 92 94 94 99 98 95 95 96 95 99 97 97
68 50 47 78 82 73 58 45 41 34 22 32 42 31 40 36 38 32 26 20 17 15 16 18 10 30 61 78 81 98 100 90 99 100 94 82 96 95 96 98 99 98 96 97 96 97 98 98 99
74 63 60 73 82 68 62 45 51 40 18 17 31 32 34 42 42 36 32 29 26 14 13 13 10 12 29 40 85 86 76 85 83 97 98 85 97 98 94 99 96 94 96 97 97 98 98 98 98
67 83 75 77 69 56 55 31 42 37 21 21 32 30 36 37 54 38 31 24 20 19 16 14 11 10 18 20 30 66 78 87 95 100 98 96 97 97 95 98 96 96 95 96 98 99 100 96 95
81 81 94 76 69 52 42 43 49 39 21 24 25 29 37 33 41 42 30 21 14 19 22 19 16 14 10 12 26 25 25 71 68 86 98 98 98 97 96 97 96 98 96 96 96 91 86 72 65
96 85 81 73 66 51 46 64 47 45 26 27 25 23 26 38 44 41 27 19 15 17 33 40 44 45 30 17 13 17 27 32 24 61 80 85 90 93 94 96 99 99 96 94 92 86 82 86 80
89 84 68 71 61 47 62 66 51 59 39 24 28 23 20 34 32 33 31 19 21 20 29 39 42 44 43 28 20 18 16 29 33 35 26 30 44 52 64 63 74 81 92 89 89 91 89 92 94
100 100 92 89 74 69 70 58 47 64 47 24 25 22 24 30 37 38 41 22 21 23 28 27 28 36 46 41 30 24 22 21 23 22 44 49 44 35 28 35 65 91 93 94 82 71 71 71 71
96 89 99 92 85 77 67 58 49 54 69 40 21 24 24 29 29 46 39 28 25 25 31 36 35 32 33 34 37 40 35 32 35 25 21 33 54 56 60 52 41 38 42 45 46 46 44 38 41
94 100 96 81 77 79 70 70 62 52 79 75 34 24 31 29 45 42 45 33 30 30 26 27 33 34 45 70 74 58 44 46 44 47 49 51 50 44 41 65 77 74 63 59 57 47 38 38 48
78 92 93 85 78 73 70 65 70 67 78 86 56 23 45 42 46 49 45 50 33 30 31 30 32 31 38 65 80 99 98 89 88 92 96 99 93 90 85 86 55 55 67 81 93 95 88 84 79
95 92 92 86 78 73 70 62 74 68 81 93 54 31 24 40 54 67 67 48 36 35 36 35 30 30 29 30 54 82 92 99 93 93 86 97 96 98 100 100 98 79 52 71 99 100 98 98 97

GFSSGP_500_rhum_072.txt.gz
RH
11 12 13 17 21 25 30 25 17 6 4 4 4 5 8 12 19 24 28 24 18 23 22 26 21 11 22 38 39 89 96 100 94 82 73 98 97 95 93 66 47 45 46 47 46 49 48 52 52
12 13 15 19 26 35 31 26 10 5 4 4 4 6 9 16 20 25 35 34 30 27 29 33 45 32 53 44 44 48 92 94 94 85 69 89 91 96 94 60 48 46 44 44 43 50 52 52 55
13 14 17 24 32 35 34 23 8 4 4 5 6 8 12 16 20 28 46 53 48 38 48 49 62 77 99 97 50 80 87 93 85 63 63 62 88 93 95 86 76 65 49 45 55 51 49 57 57
14 17 22 36 39 32 36 19 6 5 5 6 6 8 10 17 21 47 49 55 57 38 36 74 98 95 92 97 90 73 76 66 60 60 62 51 72 94 96 70 67 64 50 50 50 59 68 67 67
14 18 31 43 38 37 38 13 5 6 5 5 7 10 10 10 32 40 40 52 56 42 45 73 96 66 60 94 92 92 66 57 62 60 58 53 99 94 96 92 90 84 56 51 65 66 69 65 55
15 22 37 46 35 44 32 12 5 5 5 5 7 9 12 13 35 31 36 42 55 51 50 47 51 65 70 83 67 66 61 58 55 58 76 71 99 98 93 90 94 90 70 63 69 72 68 64 66
18 25 45 46 36 46 29 12 5 5 5 6 10 14 16 17 39 30 41 43 47 61 63 46 62 77 62 63 95 96 89 54 59 76 95 96 96 96 95 95 94 93 74 67 75 79 84 87 86
22 30 50 44 34 49 31 16 6 5 7 10 19 25 20 21 46 41 32 36 52 60 94 76 68 55 50 65 79 64 71 87 84 88 93 96 97 95 95 90 95 91 75 78 88 67 85 78 65
24 39 52 43 38 48 37 20 8 6 10 20 32 44 37 29 50 51 28 38 48 66 60 86 92 94 76 82 83 69 69 86 95 96 97 94 97 94 84 89 96 85 81 81 79 73 77 55 58
28 47 54 42 42 50 45 25 10 7 13 25 46 59 54 42 43 30 25 32 47 56 56 59 89 94 98 94 96 95 89 94 97 97 96 97 97 91 87 95 91 89 77 76 82 78 70 69 92
30 54 51 47 43 45 48 26 12 7 16 24 49 49 47 32 24 23 23 29 42 50 49 45 75 97 97 95 93 96 97 97 96 97 97 96 96 97 79 93 83 80 74 85 88 91 65 77 93
33 58 58 50 41 43 45 34 14 7 10 21 44 42 49 39 39 31 23 25 40 52 55 56 52 94 95 96 97 97 93 96 95 97 97 96 96 92 97 94 94 90 82 89 86 79 67 89 95
34 62 57 63 44 42 43 46 15 8 6 13 27 42 52 43 32 34 32 30 44 50 59 60 52 67 96 97 97 96 96 96 97 97 96 96 96 92 87 97 86 91 88 85 77 72 100 90 97
37 54 53 62 57 45 50 54 27 12 7 10 23 38 51 29 30 30 34 38 46 51 50 50 46 60 76 97 96 96 96 97 96 96 96 96 97 97 93 96 94 98 91 80 86 74 95 99 94
41 50 56 58 63 48 57 56 31 15 10 13 16 31 49 32 23 25 30 33 33 27 24 36 41 84 56 95 95 95 96 95 93 96 96 97 96 96 97 96 96 94 88 88 96 83 95 99 97
51 50 62 68 58 53 62 61 36 27 14 15 16 25 40 46 25 19 23 27 23 20 19 18 30 48 50 80 97 94 94 96 96 96 95 96 94 97 97 97 94 97 100 96 92 96 97 97 94
58 54 74 75 53 50 55 67 51 33 22 15 19 22 27 49 38 23 20 23 28 26 25 19 13 32 48 60 82 90 97 97 97 95 96 96 95 94 95 96 96 96 97 95 94 96 99 98 89
77 75 87 69 52 50 51 55 63 42 29 18 16 20 28 45 49 30 25 20 20 21 21 22 14 21 42 66 95 97 95 97 97 92 96 96 97 97 97 96 96 95 94 97 95 97 94 96 93
92 74 72 75 55 52 57 53 57 56 39 30 20 16 27 36 46 32 30 25 21 20 17 17 17 13 44 57 97 98 97 92 64 90 97 94 95 96 97 97 94 96 97 97 90 92 95 96 95
88 71 69 85 70 63 60 43 50 60 58 31 21 17 23 29 42 35 29 31 28 25 15 15 16 9 38 50 99 98 92 94 88 90 77 76 94 87 93 95 97 96 95 98 99 96 95 96 96
87 77 78 88 87 53 52 43 46 54 50 22 20 16 20 26 38 44 34 32 27 23 20 12 12 9 15 44 68 77 70 76 78 77 94 76 93 81 80 95 97 97 99 100 100 96 94 96 97
86 88 71 88 85 70 46 40 44 54 65 35 22 17 19 28 25 39 45 34 30 19 19 19 14 10 8 16 19 44 73 82 100 100 95 99 89 96 92 97 97 96 91 96 98 97 95 96 98
88 89 80 94 83 61 52 46 42 54 69 36 20 21 20 28 30 36 36 38 24 18 15 16 16 15 13 9 15 26 21 55 83 88 79 95 92 93 90 97 96 98 94 99 97 96 96 94 96
95 88 88 91 77 49 51 56 54 58 68 39 23 24 19 18 25 28 37 34 21 17 14 18 31 37 29 21 11 11 17 26 26 66 91 99 95 92 96 97 96 96 97 98 98 99 90 90 98
98 91 88 87 70 53 50 59 59 62 73 72 40 26 25 19 23 41 42 34 20 19 18 20 24 34 28 34 22 15 13 19 29 29 26 60 90 94 98 96 96 98 98 88 93 94 99 89 86
100 99 93 89 85 78 56 58 52 67 75 71 52 24 26 18 23 38 47 38 26 22 22 19 21 26 31 34 37 27 21 20 21 28 33 33 28 31 39 50 62 54 57 67 70 72 79 67 76
99 82 94 98 86 78 74 64 59 63 79 76 70 32 23 21 24 29 41 54 32 22 23 23 24 27 24 23 24 28 31 29 27 21 20 21 40 49 55 53 46 42 42 53 60 76 83 87 88
88 100 96 87 81 80 70 65 65 59 80 75 74 70 27 28 31 31 29 49 47 23 25 24 27 25 26 25 32 41 58 47 31 30 36 37 38 42 36 34 32 47 56 50 46 51 56 50 56
95 98 98 96 86 87 89 100 84 70 82 96 90 80 50 32 38 36 33 41 57 32 28 24 26 30 30 29 29 28 31 54 78 82 71 66 71 81 88 73 80 76 68 66 68 68 64 69 65
92 92 90 91 100 98 100 95 92 72 78 92 96 82 70 42 59 54 51 44 53 55 46 29 29 32 36 32 32 38 35 27 38 89 94 86 75 70 80 83 80 74 87 96 90 68 59 74 95

GFSSGP_500_rhum_075.txt.gz
RH
9 9 9 13 17 17 38 66 32 27 17 9 4 3 4 5 7 9 13 15 18 22 23 29 23 14 18 23 18 20 25 41 44 67 46 78 92 89 90 86 85 82 62 49 46 50 53 54 52
10 10 10 14 18 48 56 64 41 26 12 4 4 4 4 7 6 8 11 15 28 40 37 38 32 24 16 72 54 40 33 58 97 98 69 89 80 83 93 89 81 81 78 52 50 47 47 50 50
10 9 12 16 19 42 60 55 38 24 10 4 4 4 4 5 6 9 10 28 41 36 36 45 45 54 37 46 96 97 76 28 87 98 92 94 93 96 93 91 88 73 60 51 52 47 47 46 49
10 10 13 16 22 72 40 44 39 16 7 4 4 7 4 6 6 7 12 31 26 30 43 51 63 96 96 98 96 93 96 44 83 85 95 85 82 89 86 99 86 67 60 69 59 52 49 48 60
10 11 14 18 22 47 41 43 30 13 6 5 4 7 7 6 7 7 22 32 24 34 48 63 48 83 94 84 94 94 96 52 86 69 85 93 74 58 71 95 81 80 87 91 65 57 52 62 62
11 13 16 32 60 63 40 44 26 14 6 5 5 5 6 8 8 10 18 29 21 25 36 50 56 44 62 91 84 86 94 96 65 62 55 63 61 56 67 95 88 84 92 89 69 62 61 59 64
12 13 20 28 48 58 43 44 30 18 8 9 19 10 14 13 12 14 24 34 22 26 38 61 78 51 51 78 91 92 96 94 61 62 47 47 66 54 78 97 94 89 92 93 71 67 59 73 66
13 16 23 34 50 52 42 46 37 21 9 6 7 14 28 33 29 26 41 44 22 26 38 55 74 90 62 63 92 94 96 96 86 69 53 52 65 77 87 98 92 93 94 90 73 72 64 85 84
14 23 28 48 72 50 49 46 40 24 9 6 8 24 46 54 38 27 34 27 21 26 38 54 64 82 77 70 69 89 92 97 96 84 57 81 96 93 90 96 95 96 94 84 79 82 70 96 87
15 26 35 62 56 58 56 44 50 24 12 7 8 24 37 50 36 26 18 17 19 26 37 45 48 78 95 94 93 71 74 90 98 93 92 97 97 95 93 96 95 94 91 80 84 74 78 99 66
19 29 38 45 56 55 53 49 49 28 13 10 7 19 34 42 40 30 28 16 18 25 30 41 49 54 79 85 74 76 76 94 83 92 97 97 97 95 96 95 95 92 78 79 82 72 82 90 64
20 32 37 49 55 57 50 48 50 39 16 10 7 16 27 44 46 33 23 20 24 24 30 36 43 44 90 85 76 52 59 92 95 96 96 95 97 96 96 96 94 92 79 84 78 85 82 92 70
24 36 37 43 57 56 44 46 51 51 26 13 7 16 20 46 40 25 25 24 30 33 40 36 37 39 80 82 89 85 66 85 97 99 97 96 96 96 97 96 94 90 86 88 86 86 88 90 71
33 36 38 43 54 51 49 52 47 50 30 10 9 10 15 40 39 23 22 24 29 34 31 33 36 36 57 74 85 78 76 86 92 96 97 95 97 96 97 96 96 95 95 95 84 85 88 70 71
43 34 41 42 55 49 56 55 48 52 34 15 12 16 18 24 42 29 20 20 22 25 21 20 26 32 83 81 92 96 95 92 89 97 96 95 97 96 96 95 97 97 97 96 90 87 92 76 76
67 50 44 50 57 62 56 60 66 52 45 23 15 15 17 22 34 39 28 20 21 21 20 23 17 20 33 49 69 92 95 95 95 96 97 96 96 96 95 96 97 96 98 97 95 96 96 92 81
78 56 54 59 59 71 57 67 90 56 52 38 20 12 14 24 21 31 37 24 20 18 19 21 20 14 25 31 52 82 96 96 96 96 97 97 96 96 93 93 95 98 97 96 92 91 98 98 95
76 70 75 75 94 54 59 55 73 66 54 47 34 20 15 23 20 28 42 29 24 19 18 18 18 15 20 31 46 79 86 94 97 97 96 96 96 95 95 90 93 97 97 96 90 99 95 88 91
99 96 100 100 98 59 60 52 52 68 73 56 52 32 14 16 24 23 38 35 27 24 19 18 17 16 16 32 55 79 91 91 96 88 96 96 96 96 90 86 90 97 97 93 97 93 90 89 88
95 100 91 84 92 58 70 49 41 47 64 74 63 35 13 11 22 20 29 38 34 26 18 16 16 17 16 28 43 99 90 90 94 67 83 92 92 94 96 96 98 94 94 93 94 93 87 89 95
84 96 96 88 100 65 66 43 42 45 54 62 48 29 18 12 11 20 21 32 38 29 19 15 15 14 12 15 46 94 95 91 78 78 72 92 93 79 92 88 82 95 94 96 95 92 89 95 93
84 100 97 94 100 78 85 48 51 55 52 59 60 47 20 15 12 16 20 25 44 31 19 15 15 16 12 7 17 22 56 69 70 69 67 82 88 79 83 82 82 84 95 96 98 93 92 100 97
84 96 93 89 95 86 80 54 45 57 65 63 63 45 27 16 10 15 24 29 40 30 16 14 12 13 16 11 8 13 24 17 52 66 91 90 94 78 86 86 92 89 98 97 92 96 96 100 96
100 94 100 94 93 86 65 74 52 64 70 69 62 54 27 17 14 12 26 36 38 28 16 15 14 14 14 13 13 10 9 14 18 34 66 84 92 84 98 100 99 98 94 96 95 87 96 97 97
97 98 100 98 98 82 73 60 63 70 74 85 69 64 51 23 15 12 24 44 40 26 17 17 16 19 24 20 25 21 14 10 14 21 23 28 55 88 98 98 96 97 100 97 96 95 99 96 90
98 99 88 89 100 97 88 60 61 64 76 93 85 71 67 32 19 15 25 37 33 29 20 20 18 18 23 28 28 32 30 23 19 20 26 29 27 32 46 82 96 96 96 95 90 96 88 85 80
96 90 96 97 100 98 95 82 96 68 76 86 94 81 72 36 22 19 19 33 36 29 21 20 21 20 18 19 20 21 22 26 30 29 24 19 21 41 47 44 42 36 40 45 51 56 67 78 74
96 99 99 98 94 99 98 100 98 88 64 84 98 87 79 66 38 20 22 27 46 41 30 22 21 23 23 21 20 21 24 34 48 36 28 30 30 27 30 24 26 25 27 37 44 46 53 59 74
100 96 93 99 100 100 99 98 98 99 83 77 97 88 82 77 64 27 24 28 27 37 41 29 24 23 26 27 25 22 23 27 23 36 64 63 57 55 66 72 70 59 58 53 34 43 45 45 47
99 99 98 96 100 98 98 98 95 100 97 82 84 91 97 86 77 38 30 36 33 39 40 44 38 36 27 30 30 31 25 31 35 29 25 36 63 62 63 58 62 68 69 67 66 78 90 82 68

GFSSGP_500_rhum_078.txt.gz
RH
11 11 12 12 11 14 36 67 63 46 42 30 25 12 4 4 4 4 3 6 7 10 17 17 22 23 24 24 17 16 15 15 20 28 18 52 70 77 99 94 81 86 74 54 48 51 49 44 45
11 11 11 12 11 17 58 75 68 62 36 32 26 10 4 4 3 5 5 7 10 11 18 22 26 25 34 31 56 72 46 43 32 35 98 63 52 69 98 98 82 80 78 63 56 58 51 49 51
14 12 11 11 13 20 57 71 56 42 40 33 16 5 4 4 5 6 6 5 7 16 22 24 37 52 51 60 67 97 96 90 49 48 50 54 52 88 97 96 94 83 82 91 80 66 56 49 48
14 13 12 11 14 27 76 62 50 41 37 25 9 4 4 3 4 5 5 7 10 24 26 23 37 58 69 84 94 97 96 96 98 70 86 98 92 90 95 98 97 92 83 82 87 59 54 54 49
14 13 13 11 17 54 71 51 50 45 40 18 10 5 5 5 6 6 7 8 10 23 26 20 40 69 81 64 77 91 97 96 97 88 57 98 92 89 85 95 96 93 84 80 70 57 58 51 47
16 14 13 12 40 65 66 62 43 44 39 22 10 6 8 6 13 12 9 13 21 24 32 24 32 69 76 51 56 90 81 96 96 100 66 83 91 90 96 97 96 98 92 76 67 85 60 54 57
18 15 13 12 22 48 67 65 44 41 40 28 11 6 7 9 26 16 18 29 30 32 32 23 31 50 87 62 56 97 96 90 96 95 75 69 87 92 86 86 84 95 91 74 76 89 66 62 65
17 15 14 14 25 45 74 62 47 38 43 29 12 6 7 21 24 30 26 26 22 18 18 23 36 49 72 77 53 96 98 89 98 95 97 78 84 67 83 63 50 91 93 84 92 92 74 74 63
17 16 14 17 29 77 78 68 44 39 42 37 16 6 5 18 25 30 27 20 20 18 16 23 34 43 94 80 50 85 92 95 96 94 96 73 80 64 50 65 61 100 97 86 94 89 81 74 61
19 17 15 22 44 72 57 68 47 53 43 41 17 8 5 19 20 28 25 29 18 15 17 22 31 51 92 93 72 71 92 96 96 95 94 95 84 94 91 96 88 97 93 86 95 87 77 72 73
20 19 16 24 46 33 43 63 53 51 42 44 28 14 4 29 22 28 25 18 19 18 21 24 28 32 55 68 81 75 79 94 95 96 96 75 79 99 99 90 98 96 95 94 96 82 78 70 79
25 23 20 27 38 36 39 64 57 60 45 44 40 13 5 7 20 29 21 15 23 25 24 26 29 33 45 86 78 72 80 64 64 88 97 97 90 95 95 94 93 96 95 96 94 91 78 74 82
26 27 24 30 39 38 39 57 72 54 46 44 41 11 6 7 16 28 16 15 22 23 25 28 27 28 38 71 85 94 72 59 59 83 98 81 83 96 98 88 93 96 97 96 91 88 77 77 83
35 34 28 32 38 37 40 49 69 64 50 44 40 18 8 8 12 26 22 15 18 21 22 22 24 24 28 34 68 78 76 54 58 62 80 94 91 96 93 95 96 96 96 95 92 80 83 80 86
52 46 35 32 37 38 43 42 69 60 54 48 44 26 13 7 9 22 28 23 20 20 22 21 22 20 20 40 62 72 71 78 55 58 76 87 97 96 92 96 94 97 96 93 92 86 77 74 84
61 61 57 44 42 43 49 42 73 68 47 52 52 40 20 10 8 11 20 28 23 20 17 18 19 20 17 17 27 60 83 90 89 63 64 89 90 97 83 96 95 97 96 94 93 95 90 86 86
76 70 66 59 57 53 51 47 76 78 54 61 51 45 32 18 10 12 14 25 28 24 20 16 18 18 16 15 18 22 67 82 80 79 86 79 90 94 93 96 96 97 95 95 98 95 97 93 95
62 65 73 74 69 98 65 56 74 87 67 51 64 48 37 29 13 8 14 26 30 27 23 19 16 16 17 15 20 26 72 80 83 81 89 85 85 96 96 97 94 99 97 97 95 94 96 95 97
98 96 86 92 93 99 98 55 62 88 91 78 44 51 48 36 15 9 11 18 24 26 26 21 15 13 14 16 22 44 56 72 85 87 83 91 98 96 97 95 97 94 97 96 99 97 98 96 97
100 96 94 85 98 98 94 66 54 65 71 77 91 60 48 41 20 11 8 14 14 21 23 21 14 13 13 16 17 36 78 76 81 85 75 68 84 93 89 91 96 96 96 96 96 95 97 96 97
95 90 95 88 100 99 92 65 53 55 65 70 74 71 55 42 28 13 9 11 17 22 32 21 14 12 14 15 15 26 72 100 90 95 88 75 63 73 91 96 94 96 95 94 94 96 96 97 94
79 88 98 98 98 93 100 62 56 52 62 70 62 59 56 57 34 13 10 10 19 24 36 20 12 11 12 16 11 20 22 31 53 73 83 71 66 67 72 82 92 82 84 90 97 97 96 95 90
95 100 97 96 98 100 85 76 43 58 62 84 84 64 48 52 39 16 9 10 19 23 30 17 12 11 11 13 14 10 8 15 17 24 53 50 47 60 72 89 89 90 94 96 96 96 96 96 94
89 98 95 97 99 86 77 82 44 50 62 94 99 81 59 50 43 17 11 9 13 28 30 16 14 12 13 14 12 13 12 10 9 15 26 61 72 74 83 96 99 95 93 94 96 96 94 96 95
95 99 92 97 90 64 78 75 50 57 78 100 92 66 64 58 44 28 13 9 12 27 25 16 18 14 15 18 18 19 17 16 11 10 15 23 31 34 64 90 96 82 100 97 94 98 98 95 94
99 98 95 93 99 97 97 76 60 59 79 75 78 83 79 71 59 53 19 14 12 18 24 18 19 16 16 18 22 25 27 23 22 23 20 21 26 28 32 55 70 86 90 98 98 100 98 99 96
95 85 99 98 97 97 86 75 94 82 64 75 81 77 92 78 74 61 23 18 16 14 21 21 19 20 17 18 17 16 16 20 24 24 23 24 23 19 40 41 40 34 56 88 95 95 83 78 84
99 100 99 96 96 97 100 95 100 88 78 81 89 87 88 93 89 61 45 20 22 18 18 24 20 20 21 21 21 19 19 18 22 27 37 32 24 26 23 27 26 25 35 37 39 39 38 34 43
99 98 96 97 98 99 98 98 95 100 98 84 78 88 91 82 81 67 67 40 23 24 29 30 28 23 23 23 24 24 25 23 26 28 23 25 51 52 46 50 48 61 68 58 58 53 46 45 49
99 100 99 97 97 97 97 97 100 99 100 76 73 88 84 81 87 80 77 63 35 26 28 35 32 28 28 28 30 27 26 30 30 41 38 34 18 28 60 60 54 54 53 53 55 54 56 58 62

GFSSGP_500_rhum_081.txt.gz
RH
17 17 15 13 13 12 23 25 37 69 58 37 30 55 34 24 15 5 6 8 4 5 6 9 15 17 21 25 24 27 26 19 12 7 67 10 17 20 81 69 77 98 95 80 65 58 49 46 48
17 19 17 15 14 12 23 42 71 68 56 39 46 44 33 15 6 4 4 4 4 5 6 9 18 20 24 43 41 33 34 51 57 28 12 14 19 59 86 88 99 98 96 87 64 55 48 52 49
18 19 18 16 15 12 19 44 46 49 35 44 51 39 21 7 4 4 4 4 4 5 7 18 22 30 36 48 68 74 58 91 94 83 40 25 43 48 90 77 97 96 96 90 69 58 54 60 52
20 19 19 16 13 14 42 62 52 44 51 51 40 33 15 5 4 5 5 6 6 6 8 17 24 27 35 64 75 85 88 83 96 96 96 57 35 85 83 99 91 97 97 88 78 66 67 72 57
24 22 20 17 12 16 27 76 72 52 50 52 43 32 17 5 4 7 10 13 9 9 15 20 32 36 34 32 66 81 85 96 95 96 96 96 36 47 62 76 95 97 95 91 89 88 88 71 57
25 22 20 18 13 13 23 75 73 65 40 53 44 34 15 6 7 16 23 16 11 24 29 34 27 28 42 40 60 63 60 65 79 98 96 96 86 75 84 57 84 96 95 96 90 84 84 71 54
26 24 22 17 14 14 44 67 59 40 39 51 43 38 16 8 5 19 31 30 30 26 16 19 20 26 42 52 59 75 56 62 54 83 96 95 95 79 93 86 72 82 91 96 89 89 81 60 62
28 26 23 18 14 20 62 55 72 62 36 47 44 36 16 9 4 13 22 29 21 30 20 15 19 25 39 53 68 74 50 92 90 62 93 96 94 79 92 96 96 96 95 95 95 89 72 89 69
31 28 24 18 13 24 54 86 79 40 40 48 42 28 22 8 5 9 20 33 28 23 18 18 19 28 47 76 97 90 54 93 89 85 96 95 88 70 78 84 95 85 80 94 95 88 74 88 82
28 27 25 17 14 22 48 86 84 45 38 38 36 21 22 11 5 4 11 34 24 21 22 23 24 31 62 45 90 92 64 92 96 97 96 91 89 72 62 69 71 65 65 82 90 90 80 94 89
29 24 26 20 15 18 23 40 82 61 45 56 44 30 30 18 5 4 8 26 18 20 25 29 31 33 35 43 65 86 74 86 96 95 96 96 93 67 80 52 51 58 64 62 94 93 91 96 75
34 32 30 24 18 18 23 27 40 51 60 66 55 38 35 22 7 5 7 24 17 16 24 27 28 30 31 43 67 91 90 86 94 96 96 96 94 68 78 80 87 90 85 73 84 98 94 93 75
32 36 33 28 23 21 23 29 34 54 70 72 52 43 37 27 12 6 11 24 18 16 20 23 22 23 25 44 40 75 78 81 92 97 96 94 74 68 95 85 86 95 97 96 86 97 94 90 78
42 32 35 32 27 24 23 27 36 47 78 68 59 53 46 28 15 8 7 24 23 18 18 20 20 21 19 23 41 50 74 83 74 92 94 91 94 76 89 88 81 95 97 98 98 91 96 86 77
38 38 36 36 33 30 26 26 28 49 76 63 62 53 39 32 21 12 6 15 30 23 19 18 17 19 18 17 17 31 76 74 82 75 62 74 91 74 82 82 86 95 91 100 98 96 96 84 72
46 42 34 42 43 39 39 29 32 49 62 57 64 48 34 41 31 18 8 9 27 18 22 19 18 16 16 15 14 20 34 66 74 65 56 84 85 72 83 81 82 94 93 96 97 97 96 80 78
45 44 52 52 60 57 56 43 39 52 56 53 54 39 40 52 37 25 10 7 15 23 26 22 20 16 15 13 13 15 28 51 83 78 62 63 83 80 92 93 97 96 95 100 98 97 96 93 93
41 57 68 51 77 82 73 56 41 60 62 56 66 52 39 40 49 33 14 7 13 26 27 25 18 17 13 12 12 15 30 63 85 93 96 94 90 91 93 96 97 96 98 93 98 100 96 95 94
71 85 71 60 71 94 71 99 67 66 77 67 55 47 39 32 42 34 14 6 10 20 27 24 19 16 14 13 13 14 44 86 82 90 95 92 95 97 95 95 98 88 81 92 95 88 98 97 95
52 70 68 59 86 98 84 80 65 80 75 80 66 54 40 26 29 34 15 7 7 16 18 19 22 14 14 14 13 13 41 60 64 80 81 69 77 87 93 95 90 98 92 93 88 89 96 96 96
38 75 96 92 96 97 98 88 84 76 58 68 71 72 61 34 28 38 19 9 7 13 16 25 21 12 11 13 15 13 32 72 80 77 81 79 61 62 73 82 93 94 98 100 95 98 97 93 98
46 96 76 98 94 83 98 64 64 66 77 70 75 57 63 50 31 39 23 12 6 14 16 22 20 12 11 10 14 12 16 20 31 54 66 80 81 71 77 82 92 94 95 91 98 96 96 95 94
45 54 84 84 98 82 96 83 54 58 60 57 56 53 57 63 42 44 30 16 8 12 14 22 15 12 11 11 12 13 11 7 16 15 18 31 54 68 79 77 80 89 96 96 97 96 96 96 94
58 66 79 92 99 96 77 84 52 56 47 46 84 65 52 56 50 46 28 17 11 10 13 22 14 13 12 10 15 13 13 13 12 8 9 16 37 55 69 76 83 82 92 91 87 89 95 96 96
81 83 91 99 99 78 83 82 46 60 69 84 78 69 47 58 56 47 43 21 14 10 22 18 15 16 13 12 16 21 24 20 16 12 8 8 19 36 53 72 84 88 90 94 87 91 94 89 79
100 100 92 88 94 86 91 61 52 75 92 93 85 66 60 74 64 59 54 37 19 14 19 19 17 17 13 12 13 18 26 26 24 22 22 17 14 22 28 28 55 75 93 97 96 97 98 93 94
100 99 100 100 95 91 92 76 85 92 98 96 93 79 79 85 68 72 63 51 26 16 19 18 18 20 16 14 14 14 16 17 23 25 25 22 21 20 19 34 36 37 36 59 88 99 100 97 98
99 100 100 96 97 95 94 92 89 97 98 98 100 91 91 100 93 76 54 59 30 20 18 17 22 20 20 19 18 19 18 18 20 22 22 26 37 37 30 23 26 29 33 30 35 44 63 78 81
100 99 98 99 95 97 99 99 97 90 97 98 97 100 74 71 82 84 61 60 54 30 22 21 20 26 21 22 22 23 24 25 24 25 28 29 28 26 54 57 55 52 37 63 64 60 52 35 36
95 99 99 99 98 96 99 98 95 88 87 97 100 100 92 81 74 62 57 49 62 62 34 25 27 26 34 34 24 24 25 27 29 31 31 34 36 34 25 36 66 68 61 57 58 58 55 57 67

GFSSGP_500_rhum_084.txt.gz
RH
19 18 18 19 16 14 14 16 19 16 23 24 30 47 49 55 43 26 11 4 4 5 5 4 5 7 10 16 16 20 23 24 26 24 16 10 12 22 14 8 21 39 47 72 95 72 64 58 52
19 20 19 19 18 16 14 13 14 14 14 22 33 46 52 40 35 12 4 5 4 6 6 4 4 6 12 22 27 30 41 36 25 26 20 18 14 22 11 14 27 60 63 75 94 78 70 61 52
20 22 21 20 19 16 14 14 16 14 21 32 36 39 41 37 27 6 4 4 5 5 5 5 5 6 20 26 32 51 60 66 65 40 92 55 50 98 77 17 36 85 93 92 96 79 65 56 50
22 22 22 20 20 15 14 19 30 15 20 32 39 44 43 34 23 6 4 6 10 12 11 9 8 10 22 30 38 51 69 67 90 76 97 94 96 73 49 23 78 84 93 98 96 83 63 56 55
21 22 22 24 19 16 15 15 20 16 17 31 34 43 38 34 17 8 8 14 20 16 10 10 18 23 26 30 29 39 56 61 84 94 96 97 96 95 78 43 98 84 84 98 96 88 67 57 67
18 18 23 25 22 17 16 19 22 17 23 48 39 44 40 36 22 11 6 16 18 18 19 33 20 17 19 25 32 42 52 88 83 95 92 96 96 96 95 42 62 65 87 96 96 89 77 65 77
17 16 21 26 24 19 19 21 19 36 56 53 44 48 38 36 27 8 5 13 16 25 21 22 19 15 18 22 34 48 66 76 71 56 62 95 97 95 97 87 96 93 97 93 92 86 83 88 91
17 14 15 25 26 18 18 21 20 42 39 40 46 42 34 32 34 15 6 10 14 19 23 20 16 16 19 27 40 64 75 70 86 55 61 79 95 97 96 90 70 58 77 94 95 87 89 84 93
20 12 18 25 27 16 15 16 16 26 23 29 42 47 40 31 34 17 6 8 15 22 21 18 19 22 25 46 66 73 96 95 97 65 72 78 96 97 96 91 93 80 75 80 84 92 75 88 86
21 16 25 29 27 22 18 17 16 20 21 24 37 48 42 32 26 19 6 8 22 22 17 20 28 30 29 34 43 68 97 93 72 80 81 68 93 96 96 77 94 96 77 77 87 84 74 87 84
23 15 32 28 26 25 21 18 17 18 21 24 40 36 42 31 27 26 10 7 21 20 16 21 25 29 30 34 41 73 95 87 87 94 98 82 94 95 97 84 81 96 97 83 66 58 73 89 92
19 17 32 33 32 28 25 21 20 20 25 32 39 36 37 35 33 34 15 8 23 20 18 17 22 23 23 25 58 78 95 96 97 96 97 97 95 96 94 65 66 66 73 67 56 64 71 77 86
16 23 25 29 34 32 29 26 24 21 27 41 48 38 45 45 42 38 15 8 12 23 20 18 19 19 21 18 26 59 84 90 96 97 96 97 96 96 68 58 54 59 59 65 64 67 77 75 98
28 21 21 20 33 38 31 27 26 24 27 47 52 44 44 45 40 38 21 11 9 25 27 21 17 16 18 18 16 16 28 81 95 87 97 96 96 92 62 58 82 71 92 98 96 100 93 89 100
23 16 14 16 23 36 37 29 29 26 28 44 56 64 58 46 43 42 28 17 9 11 20 25 20 17 17 16 16 16 28 83 84 92 96 96 97 95 64 86 90 92 98 92 94 90 99 91 99
16 17 10 24 46 52 48 21 31 34 35 40 44 44 59 52 51 40 32 20 10 11 16 22 23 19 16 16 14 15 24 63 80 78 92 96 97 99 92 80 80 79 88 90 86 85 93 97 93
11 6 8 21 60 76 74 33 40 41 33 33 39 43 56 57 45 39 37 24 10 10 16 22 26 19 17 14 14 14 26 39 84 90 82 88 90 86 97 86 83 84 77 85 92 86 85 89 91
14 13 12 13 82 98 76 24 34 50 42 36 39 45 58 51 41 40 45 30 11 8 13 20 28 23 18 13 13 15 25 57 80 88 86 83 80 86 99 91 96 97 92 93 87 96 88 91 91
12 7 5 10 50 72 66 30 26 48 52 45 38 41 48 44 52 56 41 30 11 9 8 13 28 24 17 12 13 14 22 79 76 80 87 80 77 96 96 98 97 99 98 99 94 92 88 90 100
8 7 5 7 40 56 79 59 38 38 50 47 46 47 46 56 47 40 42 26 14 10 8 12 18 23 16 10 12 13 32 70 81 75 75 92 95 93 97 98 99 100 96 98 95 93 94 95 97
14 9 10 15 30 56 85 66 58 45 54 45 37 47 52 51 37 33 46 27 13 11 9 12 21 24 13 11 11 13 28 70 84 91 93 79 81 88 92 95 96 94 96 96 97 86 95 97 97
17 21 16 11 9 17 85 54 53 74 58 46 39 62 61 51 35 35 44 28 18 12 11 13 23 23 12 10 11 14 14 22 44 60 89 90 84 72 74 72 78 88 86 92 86 92 98 98 100
18 22 29 29 22 18 33 65 37 86 63 47 49 56 62 53 41 36 57 37 20 13 11 14 19 20 12 11 11 12 12 8 13 17 20 30 46 64 81 82 73 91 100 94 96 91 90 99 97
26 26 33 27 28 29 20 54 28 87 71 59 47 54 60 62 54 42 56 34 20 14 15 13 20 16 13 12 11 12 12 14 13 10 9 11 16 33 56 86 93 100 92 93 100 96 96 99 93
43 39 38 43 39 23 36 54 36 76 80 74 84 75 60 52 58 52 54 49 29 15 15 13 22 14 15 14 13 16 19 18 15 12 10 9 12 30 52 72 78 95 96 97 97 100 100 98 97
58 54 75 88 58 45 62 36 51 62 100 98 95 79 62 52 49 53 63 66 39 20 15 21 24 15 17 14 14 16 22 25 25 22 20 19 15 18 27 30 37 76 93 100 100 99 100 98 96
74 80 96 95 86 95 75 38 58 99 82 86 98 98 72 64 58 56 72 72 61 35 18 26 25 17 18 15 14 15 16 16 18 24 26 23 21 20 19 22 29 33 44 70 90 91 100 94 93
85 91 100 97 97 100 86 89 93 92 91 94 98 99 76 65 74 84 67 70 70 40 24 20 25 21 19 18 15 15 17 16 17 20 23 23 29 36 28 22 22 31 31 35 35 42 72 97 99
87 100 99 100 100 95 100 95 90 88 99 95 75 77 90 86 70 67 60 58 78 63 36 22 26 24 22 20 21 20 19 22 21 22 22 24 27 29 30 53 46 34 28 27 31 58 63 52 47
92 95 89 100 100 93 84 97 97 94 96 98 88 92 94 73 61 66 63 53 58 76 58 31 25 24 26 25 21 22 23 23 26 26 27 27 28 29 32 32 34 52 68 63 59 56 56 54 57

GFSSGP_500_rhum_087.txt.gz
RH
18 20 19 19 17 16 16 15 15 14 14 16 20 28 65 77 67 53 43 31 10 5 5 5 6 5 5 6 7 11 16 16 16 15 11 11 14 12 12 13 19 14 19 26 22 39 79 70 57
19 20 20 20 18 18 18 16 16 14 13 15 18 29 49 45 39 39 33 16 6 4 4 4 4 4 4 5 6 11 21 24 21 21 17 19 35 33 32 37 47 36 13 23 33 50 91 72 59
19 20 19 20 21 20 19 17 16 15 14 15 16 27 31 37 40 36 26 9 5 4 6 5 5 5 5 6 8 18 23 25 42 47 48 40 40 47 42 40 20 30 14 26 43 66 95 73 61
16 16 16 18 22 21 20 19 18 17 16 15 17 24 31 34 34 33 27 13 6 9 12 14 11 10 8 8 13 26 30 34 40 62 73 80 68 73 97 90 56 44 25 28 43 59 97 77 56
16 15 14 17 22 24 23 22 20 19 17 16 18 18 23 35 36 30 27 12 5 7 13 13 8 10 18 19 20 31 42 52 55 81 87 97 94 97 91 97 96 56 34 56 82 86 100 75 60
16 15 13 17 22 23 24 23 21 19 17 16 18 18 24 32 30 30 29 14 4 5 12 19 18 25 23 17 20 26 35 52 79 88 97 94 97 93 90 96 95 91 34 75 88 100 99 88 78
17 14 15 16 22 21 25 24 22 20 18 17 18 20 27 32 32 32 30 23 7 4 11 17 19 18 17 16 18 23 36 61 80 91 99 98 95 91 97 96 96 94 96 79 92 99 96 87 46
19 14 14 17 22 25 23 22 22 21 20 19 18 21 26 28 29 36 42 30 7 5 6 16 20 15 15 17 18 21 44 53 74 76 67 70 58 63 96 96 96 95 99 78 68 97 97 87 86
21 12 12 23 26 28 23 20 20 20 20 19 19 20 30 37 30 32 41 26 9 6 7 20 15 19 20 22 25 44 51 58 88 92 83 67 58 63 95 96 96 96 80 65 83 95 97 94 75
18 13 15 27 28 28 23 23 22 22 22 21 19 21 30 32 33 25 33 25 13 8 8 18 18 19 25 28 31 34 46 60 95 97 85 70 71 72 95 96 97 97 83 65 78 84 97 95 74
19 12 22 31 30 30 26 20 20 21 22 22 20 22 25 32 35 31 31 28 17 9 9 18 17 19 21 23 25 31 52 92 98 96 95 84 91 88 96 97 97 97 64 45 36 77 97 95 98
18 15 20 35 32 28 28 26 18 21 23 23 22 22 24 28 34 33 29 31 16 11 9 19 17 16 18 21 21 18 53 75 91 97 96 93 82 84 97 94 97 96 76 72 68 80 94 97 91
18 18 23 33 34 29 28 26 26 21 23 23 23 23 26 28 39 35 39 34 19 14 9 22 22 18 13 14 21 18 14 16 56 95 98 98 80 95 96 97 95 68 66 75 82 78 82 100 95
20 19 21 27 39 36 27 26 21 22 25 24 25 24 32 29 42 35 46 40 25 19 12 12 29 22 14 15 17 18 16 18 86 96 97 98 97 100 97 95 99 64 60 79 69 71 74 96 95
18 16 21 24 33 41 39 18 20 32 32 29 26 32 40 32 33 50 47 42 32 23 14 10 24 21 18 17 16 16 15 23 77 96 96 95 97 97 96 80 66 61 65 63 59 70 78 96 94
18 20 18 21 34 41 45 12 28 33 33 30 28 29 35 33 35 55 53 48 37 29 17 10 22 23 23 16 16 14 15 23 54 95 97 96 97 96 95 47 58 82 59 71 75 92 99 97 98
15 14 16 25 48 44 38 11 28 40 32 28 29 28 29 29 36 50 55 48 40 32 19 10 17 26 27 20 16 13 14 24 41 88 96 97 97 97 96 69 88 87 94 95 99 85 99 97 96
15 16 18 18 39 49 21 6 13 37 29 19 28 32 31 29 34 48 53 47 36 37 20 9 17 28 28 24 15 11 14 24 43 81 89 95 97 97 96 90 93 88 95 98 99 96 97 96 86
16 16 18 21 35 35 10 5 5 17 32 25 30 35 38 33 37 50 54 46 34 34 18 8 13 22 18 20 14 10 13 26 88 80 84 87 97 96 97 97 96 97 94 95 96 95 93 90 93
15 15 16 16 28 32 17 5 6 11 20 28 38 45 46 44 41 46 54 54 40 31 19 8 11 19 16 21 11 10 11 40 78 82 80 94 97 97 96 96 97 97 95 98 98 98 94 95 96
20 17 23 26 30 33 11 5 5 5 6 26 32 54 55 51 42 48 53 59 41 31 18 8 10 17 21 20 11 10 13 34 74 77 71 80 87 90 97 97 97 96 98 96 97 100 97 96 96
22 25 25 25 20 12 16 6 6 7 6 10 30 56 61 52 51 47 51 54 44 29 20 10 11 18 23 18 11 10 12 19 60 85 92 80 82 86 96 96 97 96 97 98 99 98 100 98 96
23 27 26 20 13 7 9 14 4 9 6 10 18 53 62 62 58 43 47 57 42 32 24 12 13 18 22 16 12 11 13 10 17 26 58 85 80 78 76 77 90 93 98 99 96 98 97 95 95
23 23 26 20 18 8 13 20 4 8 9 15 52 65 73 77 61 49 51 60 46 35 23 13 13 19 25 14 13 12 12 13 12 11 15 16 18 35 56 78 80 84 93 95 99 96 92 87 87
23 29 27 20 18 12 21 28 6 8 12 17 62 73 81 87 68 51 42 60 58 32 22 14 12 21 22 14 15 12 13 13 14 13 12 9 10 16 32 54 72 94 85 85 85 90 83 93 98
28 47 50 30 29 28 28 19 25 24 23 22 33 64 83 90 75 59 50 63 50 37 24 17 14 19 23 14 16 12 14 18 20 18 15 14 12 10 21 32 51 71 70 73 75 94 93 87 88
54 63 60 46 43 39 44 50 70 49 33 39 87 66 80 70 61 57 67 79 70 58 34 21 18 23 25 15 16 13 13 16 18 23 22 20 19 17 15 17 28 40 53 77 96 98 99 96 97
44 78 74 89 81 86 80 76 77 75 73 51 71 93 95 67 68 70 86 96 92 92 66 39 19 26 26 18 17 14 14 16 15 15 20 24 24 24 22 20 19 26 34 37 42 55 65 70 84
33 67 86 88 100 100 78 77 96 66 70 62 87 91 83 82 83 91 100 98 94 92 78 50 26 24 31 24 19 18 15 16 18 19 19 21 22 21 24 29 35 26 24 24 27 31 30 37 42
18 64 100 100 100 96 99 66 97 99 92 80 78 89 85 86 96 90 84 82 87 94 82 65 53 27 24 25 20 19 20 20 20 23 24 26 25 24 25 25 25 27 47 51 49 44 38 40 49

GFSSGP_500_rhum_093.txt.gz
RH
16 18 20 20 16 15 17 15 15 15 16 18 16 15 16 15 15 15 16 18 23 24 23 10 5 3 2 3 4 3 3 5 5 7 13 13 15 13 14 11 11 8 4 5 8 10 18 36 46
21 20 20 19 17 17 18 16 17 16 18 18 19 18 17 16 16 15 20 25 27 22 19 9 4 3 3 3 5 5 7 15 14 14 16 18 26 59 60 60 63 40 19 5 6 11 13 30 48
22 21 20 18 18 19 18 15 16 16 18 20 20 20 18 18 17 17 21 24 26 20 15 8 4 3 4 3 5 5 6 8 11 24 50 58 62 59 79 80 69 61 71 72 25 14 16 21 43
24 22 20 17 17 20 20 17 15 14 17 19 22 20 19 18 17 18 20 23 24 20 14 8 5 5 4 4 6 12 15 12 11 8 15 27 37 45 70 92 91 92 81 66 64 52 36 27 42
25 22 19 15 16 19 23 18 13 14 16 18 20 21 20 19 19 20 22 24 23 21 14 10 9 8 5 4 6 14 24 33 42 54 33 34 40 52 56 94 94 97 99 90 88 64 58 41 69
29 27 20 17 20 23 25 18 11 12 18 19 18 22 20 20 19 21 22 23 25 18 16 15 12 11 8 4 10 16 18 26 37 50 45 40 58 71 74 91 97 98 96 91 97 95 78 66 89
32 32 25 21 22 22 24 18 15 15 18 20 18 19 19 19 20 20 22 22 27 21 16 17 16 13 10 5 12 13 12 17 32 31 42 47 73 82 97 96 93 94 93 95 94 97 93 83 98
36 33 26 25 24 25 26 22 19 18 17 17 17 17 20 20 20 20 21 24 29 25 20 20 18 14 10 5 13 13 18 20 21 37 39 52 72 74 84 94 96 97 97 97 94 95 95 92 90
36 31 26 29 28 28 27 25 22 16 16 16 15 19 22 20 21 21 23 25 29 30 21 23 20 16 13 7 13 16 22 26 29 29 33 39 50 57 71 84 91 83 94 93 96 98 95 78 95
34 30 33 39 32 31 26 24 21 15 14 15 16 18 17 19 22 21 24 27 33 32 24 26 21 19 16 9 13 15 18 23 25 25 35 58 83 88 73 74 73 68 76 94 97 97 77 95 96
40 32 41 41 36 31 27 23 22 15 15 18 20 18 18 20 22 21 23 27 32 34 26 23 23 23 17 12 9 13 13 15 21 20 18 24 25 49 83 73 65 74 67 94 97 96 75 96 98
42 37 34 40 40 33 27 27 19 17 19 22 21 19 21 21 23 22 22 26 31 36 29 21 22 26 20 14 8 10 16 15 16 17 17 16 22 79 79 72 64 64 80 96 97 96 87 91 86
42 38 34 35 37 34 30 24 23 20 21 28 25 23 23 23 24 24 23 25 31 33 33 22 22 30 24 17 7 10 18 18 17 16 15 15 20 75 83 75 65 66 97 96 97 97 93 91 67
42 39 36 31 30 30 30 27 25 26 35 30 26 25 24 23 26 27 24 24 29 32 31 29 22 29 30 15 7 8 17 19 17 16 14 14 19 75 77 74 77 80 97 97 97 95 77 70 60
51 44 41 36 33 29 28 24 23 32 36 31 27 23 24 23 25 26 26 24 29 36 30 33 28 28 32 19 7 8 16 22 21 17 13 13 42 92 90 83 90 90 97 97 97 95 66 66 45
56 50 46 41 38 35 33 21 29 33 33 31 34 32 31 29 29 31 31 23 28 39 34 32 32 28 32 26 8 8 16 25 22 15 11 16 57 95 94 96 90 90 98 96 97 96 92 85 63
58 51 45 44 41 37 34 26 29 29 27 33 36 37 36 33 28 31 32 24 27 37 30 32 36 28 31 28 8 8 11 21 20 12 10 22 65 97 98 96 92 96 97 96 97 93 89 90 96
62 56 52 48 44 39 35 28 26 28 23 26 32 34 32 31 32 32 29 29 28 34 33 33 42 32 29 28 8 8 11 16 17 10 11 61 90 97 93 90 97 95 97 96 87 87 93 88 86
68 66 55 50 46 43 37 31 26 24 22 19 24 32 32 31 36 30 30 30 31 33 35 36 44 37 30 29 8 9 12 19 14 10 12 73 94 97 97 96 97 100 97 98 97 92 90 78 73
95 82 68 53 47 40 35 31 24 20 20 22 26 33 36 33 27 29 29 30 34 36 36 37 46 46 32 29 8 9 11 18 11 9 36 78 97 96 97 97 97 98 92 92 66 70 65 89 92
90 82 58 48 43 39 37 34 26 20 19 26 21 18 20 24 25 27 27 31 37 40 41 44 42 48 31 29 8 9 14 13 11 10 39 74 95 96 96 96 96 95 96 95 79 69 74 98 95
72 50 42 36 31 30 30 29 25 24 25 24 13 10 8 8 10 12 19 32 43 49 51 48 45 48 32 31 10 9 15 12 10 12 34 67 73 93 97 96 96 95 95 96 97 96 96 95 96
75 52 44 36 28 24 22 24 22 21 22 20 11 8 8 8 7 6 13 30 47 53 54 53 52 52 36 32 13 9 14 11 10 12 23 75 77 74 96 96 97 97 97 97 96 96 97 97 97
85 88 70 42 29 25 21 18 18 16 13 13 13 12 10 8 6 6 10 14 36 49 56 58 60 56 48 32 14 11 14 11 9 11 11 19 39 65 69 97 96 96 97 97 97 96 96 96 94
68 39 32 25 33 30 24 20 17 16 15 13 12 12 10 10 7 6 5 12 32 50 68 74 70 61 55 35 16 14 13 13 9 10 11 12 16 38 52 71 88 94 97 96 97 97 97 97 96
43 39 21 24 24 20 18 15 14 13 14 15 11 8 7 7 6 5 5 16 40 70 82 90 82 69 58 38 17 15 14 14 9 10 11 12 13 11 14 18 28 40 48 67 87 95 94 94 94
26 18 29 27 21 20 20 19 15 13 12 12 10 8 7 5 4 4 5 17 42 82 98 100 84 66 53 40 18 15 14 15 10 9 11 12 12 12 11 11 14 21 28 39 48 62 77 79 75
27 31 26 20 19 21 21 17 19 23 25 25 16 18 14 17 10 7 7 26 60 84 98 98 81 64 46 44 20 16 16 15 14 10 10 14 14 13 12 12 12 14 16 26 40 54 59 62 72
28 18 16 19 20 22 16 24 26 34 52 69 62 37 31 27 25 17 13 25 80 98 100 100 82 64 49 45 20 16 20 16 17 12 13 12 10 11 14 14 15 16 15 16 17 19 26 28 30
12 14 19 16 25 22 17 33 41 43 52 76 78 64 59 55 35 28 26 53 100 96 99 98 98 73 58 44 22 16 21 19 18 18 14 14 17 17 17 16 12 13 16 18 20 21 19 21 20

GFSSGP_500_rhum_096.txt.gz
RH
9 12 12 13 18 18 19 16 14 16 15 14 12 17 18 16 15 14 14 14 13 13 15 18 14 7 3 2 2 2 4 4 4 7 16 30 11 11 10 11 10 10 9 6 7 8 11 14 24
17 20 20 19 16 18 21 18 17 15 16 15 13 18 18 16 16 14 16 16 15 16 17 18 14 8 4 3 3 3 4 4 7 13 23 19 12 13 16 18 15 20 11 9 6 10 16 17 21
19 26 22 19 19 20 22 17 16 15 16 16 17 19 17 18 16 15 17 18 18 17 19 18 14 7 6 5 4 3 5 8 8 11 12 78 80 77 89 84 67 60 54 36 17 11 12 20 23
25 26 24 18 20 24 22 18 18 17 18 17 18 19 20 18 17 16 18 19 19 16 19 18 13 10 9 8 7 3 4 12 23 23 34 12 21 52 46 64 84 93 82 64 76 42 16 20 39
28 25 25 23 22 23 24 18 16 16 14 14 18 20 22 19 18 18 18 20 18 15 17 19 15 14 11 10 8 3 10 16 32 59 62 49 28 29 40 44 59 95 96 95 92 69 46 27 39
28 28 25 23 26 28 28 20 14 12 12 12 17 20 23 21 18 19 19 19 17 18 16 20 16 15 13 11 9 3 9 12 18 24 40 61 54 42 52 55 61 76 96 96 96 94 83 53 46
33 28 25 26 29 29 30 26 20 16 15 13 16 19 22 21 19 19 19 19 17 18 17 18 16 16 15 14 10 4 6 11 14 24 56 52 48 51 72 94 85 94 95 96 95 96 96 88 77
38 34 28 29 32 35 30 30 25 21 19 17 20 17 19 16 18 20 20 21 19 19 19 20 18 19 17 16 12 5 5 13 19 23 30 66 85 95 89 96 93 91 95 92 90 96 96 96 94
41 34 29 31 34 42 34 30 26 25 24 20 20 16 16 16 18 21 21 22 21 21 20 25 20 21 20 17 15 8 5 13 18 21 26 41 47 44 45 49 57 80 91 90 96 97 97 97 97
44 37 34 37 34 48 34 28 24 24 23 20 20 17 15 16 19 21 23 22 21 23 24 29 23 22 22 19 17 14 6 12 13 17 22 22 40 56 49 62 73 64 83 78 90 97 97 98 98
50 43 44 36 38 48 40 25 27 23 21 21 19 16 17 18 19 21 23 22 21 24 28 30 28 22 22 22 20 15 7 9 13 12 14 17 17 16 16 33 62 67 71 73 90 97 98 97 93
51 50 45 41 48 50 44 30 22 21 22 24 22 18 20 21 21 22 24 24 22 23 27 30 32 23 22 22 22 17 8 9 14 13 14 15 15 20 18 21 73 73 72 70 82 95 97 97 78
48 50 48 48 48 47 42 38 29 23 23 25 21 21 24 24 24 24 25 25 22 22 25 27 34 29 22 19 23 20 9 7 14 14 15 15 16 25 21 22 72 76 70 78 80 97 97 94 84
59 51 46 46 46 42 37 36 36 31 30 30 24 25 27 26 28 26 25 26 24 23 25 26 32 33 31 24 21 24 10 7 12 15 16 16 19 20 14 35 76 80 73 75 82 97 97 95 86
63 56 52 48 47 43 38 32 31 33 35 33 34 30 28 30 30 28 26 27 25 23 24 26 26 32 36 30 22 25 11 7 10 15 17 14 14 14 24 62 81 82 73 61 91 97 96 84 84
72 63 54 55 54 48 42 33 33 29 31 32 37 33 30 30 31 29 25 25 26 23 24 25 26 29 37 37 25 25 14 7 9 11 13 14 10 13 43 83 95 90 88 63 88 96 96 90 79
84 68 63 62 52 54 48 41 39 31 29 28 28 31 31 31 29 28 27 28 30 25 23 25 24 28 39 44 30 27 19 7 9 12 12 14 9 22 61 94 94 88 88 79 96 97 96 94 69
96 87 73 64 62 59 53 47 42 36 32 31 28 26 27 29 32 32 30 27 33 27 24 26 26 28 37 48 35 30 26 7 10 12 15 12 10 64 72 97 96 97 98 94 96 96 97 96 97
99 96 92 88 71 62 56 52 45 39 34 30 30 28 28 26 33 39 37 33 28 31 29 28 28 30 34 48 43 33 28 8 10 13 13 10 18 73 92 97 97 97 98 97 96 97 97 94 84
98 96 95 97 81 70 60 54 47 41 37 33 31 30 29 28 25 32 37 36 32 30 30 28 29 31 34 46 45 38 30 9 10 13 10 9 40 65 96 96 96 93 96 97 94 96 93 95 91
94 92 100 97 97 83 62 53 49 46 42 37 31 27 24 21 21 25 28 30 29 26 32 30 32 35 36 42 44 40 32 10 11 11 10 12 59 78 98 97 99 99 96 96 96 95 95 92 90
87 100 100 96 93 90 70 61 53 47 44 40 34 26 20 17 17 20 20 20 19 28 29 28 35 39 43 44 46 46 34 13 11 11 9 14 64 72 97 95 97 99 98 97 97 96 88 72 70
97 98 98 96 92 90 75 63 52 47 43 39 36 30 23 18 14 12 11 14 13 18 21 24 37 44 49 47 48 54 38 18 11 10 10 10 50 72 75 96 97 95 96 96 97 85 78 87 92
100 99 99 99 95 69 49 44 39 34 30 28 26 26 22 18 13 8 7 7 6 11 21 26 41 44 50 50 50 52 48 23 11 10 9 10 17 54 69 86 96 96 96 94 95 89 97 97 98
98 93 80 67 60 50 39 33 30 27 24 21 19 17 18 17 14 8 8 8 6 7 22 27 49 47 55 60 54 55 53 29 11 9 9 11 11 21 51 66 96 97 97 96 96 96 96 97 97
100 98 79 73 64 51 42 36 30 25 21 17 16 15 13 12 11 9 9 8 6 7 19 31 55 58 66 64 58 62 58 32 12 8 11 11 13 12 17 29 57 67 97 97 97 97 96 97 96
98 90 59 46 32 27 28 21 20 20 18 16 14 13 13 13 11 10 10 10 8 7 24 44 60 58 76 70 61 62 58 36 12 10 10 13 12 12 12 12 12 18 22 36 42 62 88 96 94
61 52 63 57 33 28 24 24 28 22 20 19 18 15 12 11 10 10 10 10 8 8 18 50 70 72 86 80 65 64 57 40 13 14 11 13 14 15 13 12 11 12 14 19 38 34 38 66 78
74 36 32 33 30 25 21 27 28 21 22 23 16 13 13 10 8 7 6 5 8 9 18 62 78 84 98 92 73 64 53 42 13 15 13 11 11 14 18 19 18 17 18 15 15 23 33 44 40
43 36 32 25 24 21 23 26 22 24 30 34 23 35 40 29 22 16 13 10 7 9 25 80 85 99 100 94 70 64 58 43 15 16 17 14 14 14 13 15 16 15 16 20 20 19 18 18 20